[[{"header":{"parameterUnit":"m.s-1","parameterCategory":1,"la1":30.6,"la2":29.2853,"lo1":-89.7004,"lo2":-87.6739,"dy":0.0162,"dx":0.0183,"nx":112,"ny":82,"refTime":"2024-07-02T12:00:00:Z","depth":0,"parameterNumber":2,"parameterNumberName":"U-component_of_WINDS"},"data":[0.0,0.0,0.0,0.0,0.0,0.0,0.0,0.0,0.0,0.0,0.0,0.0,0.0,0.0,0.0,0.0,0.0,0.0,0.0,0.0,0.0,0.0,0.0,0.0,0.0,0.0,0.0,0.0,0.0,0.0,0.0,0.0,0.0,0.0,0.0,0.0,0.0,0.0,0.0,0.0,0.0,0.0,0.0,0.0,0.0,0.0,0.0,0.0,0.0,0.0,0.0,0.0,0.0,0.0,0.0,0.0,0.0,0.0,0.0,0.0,0.0,0.0,0.0,0.0,0.0,0.0,0.0,0.0,0.0,0.0,0.0,0.0,0.0,0.0,0.0,0.0,0.0,0.0,0.0,0.0,0.0,0.0,0.0,0.0,0.0,0.0,0.0,0.0,0.0,0.0,0.0,-1.818,-2.1066,-2.2856,-2.2989,-2.207,-1.9753,-1.5664,0.0,0.0,0.0,0.0,0.0,0.0,0.0,0.0,0.0,0.0,0.0,0.0,0.0,0.0,0.0,0.0,0.0,0.0,0.0,0.0,0.0,0.0,0.0,0.0,0.0,0.0,0.0,0.0,0.0,0.0,0.0,0.0,0.0,0.0,0.0,0.0,0.0,0.0,0.0,0.0,0.0,0.0,0.0,0.0,0.0,0.0,0.0,0.0,0.0,0.0,0.0,0.0,0.0,0.0,0.0,0.0,0.0,0.0,0.0,0.0,0.0,0.0,0.0,0.0,0.0,0.0,0.0,0.0,0.0,0.0,0.0,0.0,0.0,0.0,0.0,0.0,0.0,0.0,0.0,0.0,0.0,0.0,0.0,0.0,0.0,0.0,0.0,0.0,0.0,0.0,0.0,0.0,0.0,0.0,0.0,0.0,0.0,0.0,0.0,0.0,0.0,0.0,0.0,0.0,-1.6808,-2.1528,-2.2489,-2.2856,-2.2989,-2.1522,-1.9107,-1.5625,0.0,0.0,0.0,0.0,0.0,0.0,0.0,0.0,0.0,0.0,0.0,0.0,0.0,0.0,0.0,0.0,0.0,0.0,0.0,0.0,0.0,0.0,0.0,0.0,0.0,0.0,0.0,0.0,0.0,0.0,0.0,0.0,0.0,0.0,0.0,0.0,0.0,0.0,0.0,0.0,0.0,0.0,0.0,0.0,0.0,0.0,0.0,0.0,0.0,0.0,0.0,0.0,0.0,0.0,0.0,0.0,0.0,0.0,0.0,0.0,0.0,0.0,0.0,0.0,0.0,0.0,0.0,0.0,0.0,0.0,0.0,0.0,0.0,0.0,0.0,0.0,0.0,0.0,0.0,0.0,0.0,0.0,0.0,0.0,0.0,0.0,0.0,0.0,0.0,0.0,0.0,0.0,0.0,0.0,0.0,0.0,0.0,0.0,0.0,0.0,0.0,0.0,0.0,-1.5561,-1.8157,-2.2355,-2.2797,-2.2856,-2.2989,-2.1835,-1.9479,-1.5644,-1.5391,0.0,0.0,0.0,0.0,0.0,0.0,0.0,0.0,0.0,0.0,0.0,0.0,0.0,0.0,0.0,0.0,0.0,0.0,0.0,0.0,0.0,0.0,0.0,0.0,0.0,0.0,0.0,0.0,0.0,0.0,0.0,0.0,0.0,0.0,0.0,0.0,0.0,0.0,0.0,0.0,0.0,0.0,0.0,0.0,0.0,0.0,0.0,0.0,0.0,0.0,0.0,0.0,0.0,0.0,0.0,0.0,0.0,0.0,0.0,0.0,0.0,0.0,0.0,0.0,0.0,0.0,0.0,0.0,0.0,0.0,0.0,0.0,0.0,0.0,0.0,0.0,0.0,0.0,0.0,0.0,0.0,0.0,0.0,0.0,0.0,0.0,0.0,0.0,0.0,0.0,0.0,0.0,0.0,0.0,0.0,0.0,0.0,0.0,0.0,0.0,0.0,0.0,-1.7253,-1.9234,-2.247,-2.2797,-2.2856,-2.2989,-2.1815,-1.946,-1.5644,-1.5039,0.0,0.0,0.0,0.0,0.0,0.0,0.0,0.0,0.0,0.0,0.0,0.0,0.0,0.0,0.0,0.0,0.0,0.0,0.0,0.0,0.0,0.0,0.0,0.0,0.0,0.0,0.0,0.0,0.0,0.0,0.0,0.0,0.0,0.0,0.0,0.0,0.0,0.0,0.0,0.0,0.0,0.0,0.0,0.0,0.0,0.0,0.0,0.0,0.0,0.0,0.0,0.0,0.0,0.0,0.0,0.0,0.0,0.0,0.0,0.0,0.0,0.0,0.0,0.0,0.0,0.0,0.0,0.0,0.0,0.0,0.0,0.0,0.0,0.0,0.0,0.0,0.0,0.0,0.0,0.0,0.0,0.0,0.0,0.0,0.0,0.0,0.0,0.0,0.0,0.0,0.0,0.0,0.0,0.0,0.0,0.0,0.0,0.0,0.0,0.0,0.0,0.0,-1.74,-1.9904,-2.2528,-2.2797,-2.2856,-2.2989,-2.0716,-1.8166,-1.5566,-1.3945,0.0,0.0,0.0,0.0,0.0,0.0,0.0,0.0,0.0,0.0,0.0,0.0,0.0,0.0,0.0,0.0,0.0,0.0,0.0,0.0,0.0,0.0,0.0,0.0,0.0,0.0,0.0,0.0,0.0,0.0,0.0,0.0,0.0,0.0,0.0,0.0,0.0,0.0,0.0,0.0,0.0,0.0,0.0,0.0,0.0,0.0,0.0,0.0,0.0,0.0,0.0,0.0,0.0,0.0,0.0,0.0,0.0,0.0,0.0,0.0,0.0,0.0,0.0,0.0,0.0,0.0,0.0,0.0,0.0,0.0,0.0,0.0,0.0,0.0,0.0,0.0,0.0,0.0,0.0,0.0,0.0,0.0,0.0,0.0,0.0,0.0,0.0,0.0,0.0,0.0,0.0,0.0,0.0,0.0,0.0,0.0,0.0,0.0,0.0,0.0,0.0,0.0,-1.65,-1.8619,0.0,-2.1543,-2.1482,-2.208,-2.0274,-1.8043,-1.5554,0.0,0.0,0.0,0.0,0.0,0.0,0.0,0.0,0.0,0.0,0.0,0.0,0.0,0.0,0.0,0.0,0.0,0.0,0.0,0.0,0.0,0.0,0.0,0.0,0.0,0.0,0.0,0.0,0.0,0.0,0.0,0.0,0.0,0.0,0.0,0.0,0.0,0.0,0.0,0.0,0.0,0.0,0.0,0.0,0.0,0.0,0.0,0.0,0.0,0.0,0.0,0.0,0.0,0.0,0.0,0.0,0.0,0.0,0.0,0.0,0.0,0.0,0.0,0.0,0.0,0.0,0.0,0.0,0.0,0.0,0.0,0.0,0.0,0.0,0.0,0.0,0.0,0.0,0.0,0.0,0.0,0.0,0.0,0.0,0.0,0.0,0.0,0.0,0.0,0.0,0.0,0.0,0.0,0.0,0.0,0.0,0.0,0.0,0.0,0.0,0.0,0.0,-1.4904,-1.6176,-1.8061,0.0,-2.1,-2.0928,-2.1559,-1.9815,-1.7746,-1.5537,0.0,0.0,0.0,0.0,0.0,0.0,0.0,0.0,0.0,0.0,0.0,0.0,0.0,0.0,0.0,0.0,0.0,0.0,0.0,0.0,0.0,0.0,0.0,0.0,0.0,0.0,0.0,0.0,0.0,0.0,0.0,0.0,0.0,0.0,0.0,0.0,0.0,0.0,0.0,0.0,0.0,0.0,0.0,0.0,0.0,0.0,0.0,0.0,0.0,0.0,0.0,0.0,0.0,0.0,0.0,0.0,0.0,0.0,0.0,0.0,0.0,0.0,0.0,0.0,0.0,0.0,0.0,0.0,0.0,0.0,0.0,0.0,0.0,0.0,0.0,0.0,0.0,0.0,0.0,0.0,0.0,0.0,0.0,0.0,0.0,0.0,0.0,0.0,0.0,0.0,0.0,0.0,0.0,0.0,0.0,0.0,0.0,0.0,0.0,0.0,0.0,0.0,-1.4981,-1.6657,-1.868,-2.1216,-2.1485,-2.1506,-2.1575,-1.9255,-1.7108,0.0,0.0,0.0,0.0,0.0,0.0,0.0,0.0,0.0,0.0,0.0,0.0,0.0,0.0,0.0,0.0,0.0,0.0,0.0,0.0,0.0,0.0,0.0,0.0,0.0,0.0,0.0,0.0,0.0,0.0,0.0,0.0,0.0,0.0,0.0,0.0,0.0,0.0,0.0,0.0,0.0,0.0,0.0,0.0,0.0,0.0,0.0,0.0,0.0,0.0,0.0,0.0,0.0,0.0,0.0,0.0,0.0,0.0,0.0,0.0,0.0,0.0,0.0,0.0,0.0,0.0,0.0,0.0,0.0,0.0,0.0,0.0,0.0,0.0,0.0,0.0,0.0,0.0,0.0,0.0,0.0,0.0,0.0,0.0,0.0,0.0,0.0,0.0,0.0,0.0,0.0,0.0,0.0,0.0,0.0,0.0,0.0,0.0,0.0,0.0,0.0,0.0,0.0,-1.4981,-1.6657,-1.8469,-2.0442,-2.0654,-2.0666,-2.0677,-1.8902,-1.7096,-1.5428,0.0,0.0,0.0,0.0,0.0,0.0,0.0,0.0,0.0,0.0,0.0,0.0,0.0,0.0,0.0,0.0,0.0,0.0,0.0,0.0,0.0,0.0,0.0,0.0,0.0,0.0,0.0,0.0,0.0,0.0,0.0,0.0,0.0,0.0,0.0,0.0,0.0,0.0,0.0,0.0,0.0,0.0,0.0,0.0,0.0,0.0,0.0,0.0,0.0,0.0,0.0,0.0,0.0,0.0,0.0,0.0,0.0,0.0,0.0,0.0,0.0,0.0,0.0,0.0,0.0,0.0,0.0,0.0,0.0,0.0,0.0,0.0,0.0,0.0,0.0,0.0,0.0,0.0,0.0,0.0,0.0,0.0,0.0,0.0,0.0,0.0,0.0,0.0,0.0,0.0,0.0,0.0,0.0,0.0,0.0,0.0,0.0,0.0,0.0,0.0,0.0,0.0,-1.5038,-1.6968,-1.8757,-2.0154,-2.0308,-2.0308,-2.0308,-1.8734,-1.7043,-1.5379,0.0,0.0,0.0,0.0,0.0,0.0,0.0,0.0,0.0,0.0,0.0,0.0,0.0,0.0,0.0,0.0,0.0,0.0,0.0,0.0,0.0,0.0,0.0,0.0,0.0,0.0,0.0,0.0,0.0,0.0,0.0,0.0,0.0,0.0,0.0,0.0,0.0,0.0,0.0,0.0,0.0,0.0,0.0,0.0,0.0,0.0,0.0,0.0,0.0,0.0,0.0,0.0,0.0,0.0,0.0,0.0,0.0,0.0,0.0,0.0,0.0,0.0,0.0,0.0,0.0,0.0,0.0,0.0,0.0,0.0,0.0,0.0,0.0,0.0,0.0,0.0,0.0,0.0,0.0,0.0,0.0,0.0,0.0,0.0,0.0,0.0,0.0,0.0,0.0,0.0,0.0,0.0,0.0,0.0,0.0,0.0,0.0,0.0,0.0,0.0,0.0,0.0,-1.5096,-1.7411,-1.9334,-2.0212,-2.0308,-2.0308,-2.0308,-1.8696,-1.7029,-1.542,0.0,0.0,0.0,0.0,0.0,0.0,0.0,0.0,0.0,0.0,0.0,0.0,0.0,0.0,0.0,0.0,0.0,0.0,0.0,0.0,0.0,0.0,0.0,0.0,0.0,0.0,0.0,0.0,0.0,0.0,0.0,0.0,0.0,0.0,0.0,0.0,0.0,0.0,0.0,0.0,0.0,0.0,0.0,0.0,0.0,0.0,0.0,0.0,0.0,0.0,0.0,0.0,0.0,0.0,0.0,0.0,0.0,0.0,0.0,0.0,-1.6067,0.0,0.0,0.0,0.0,0.0,0.0,0.0,0.0,0.0,0.0,0.0,0.0,0.0,0.0,0.0,0.0,0.0,0.0,0.0,0.0,0.0,0.0,0.0,0.0,0.0,0.0,0.0,0.0,0.0,0.0,0.0,0.0,0.0,0.0,0.0,0.0,0.0,0.0,0.0,0.0,0.0,-1.5096,-1.7411,-1.9334,-2.0212,-2.0308,-2.0308,-2.0308,-1.8696,-1.7276,-1.6298,0.0,0.0,0.0,0.0,0.0,0.0,0.0,0.0,0.0,0.0,0.0,0.0,0.0,0.0,0.0,0.0,0.0,0.0,0.0,0.0,0.0,0.0,0.0,0.0,0.0,0.0,0.0,0.0,0.0,0.0,0.0,0.0,0.0,0.0,0.0,0.0,0.0,0.0,0.0,0.0,0.0,0.0,0.0,0.0,0.0,0.0,0.0,0.0,0.0,0.0,0.0,0.0,0.0,0.0,0.0,0.0,0.0,0.0,0.0,0.0,0.0,-1.7108,0.0,0.0,0.0,0.0,0.0,0.0,0.0,0.0,0.0,0.0,0.0,0.0,0.0,0.0,0.0,0.0,0.0,0.0,0.0,0.0,0.0,0.0,0.0,0.0,0.0,0.0,0.0,0.0,0.0,0.0,0.0,0.0,0.0,0.0,0.0,0.0,0.0,0.0,0.0,0.0,-1.5712,-1.8042,-1.9792,-2.025,-2.0308,-2.0308,-2.0308,-1.9084,-1.7805,-1.6575,-1.444,0.0,0.0,0.0,0.0,0.0,0.0,0.0,0.0,0.0,0.0,0.0,0.0,0.0,0.0,0.0,0.0,0.0,0.0,0.0,0.0,0.0,0.0,0.0,0.0,0.0,0.0,0.0,0.0,0.0,0.0,0.0,0.0,0.0,0.0,0.0,0.0,0.0,0.0,0.0,0.0,0.0,0.0,0.0,0.0,0.0,0.0,0.0,0.0,0.0,0.0,0.0,0.0,0.0,-2.1171,-2.1942,-2.2657,-2.3327,-2.3686,-2.3641,-2.0982,-2.007,-2.0304,0.0,0.0,0.0,0.0,0.0,0.0,0.0,0.0,0.0,0.0,0.0,0.0,0.0,0.0,0.0,0.0,0.0,0.0,0.0,0.0,0.0,0.0,0.0,0.0,0.0,-2.072,-2.0773,0.0,0.0,0.0,0.0,0.0,0.0,0.0,0.0,0.0,0.0,0.0,0.0,-1.6596,-1.8811,-2.0308,-2.0308,-2.0308,-2.0308,-2.0308,-1.9508,-1.8337,-1.6814,-1.5753,-1.3865,0.0,0.0,0.0,0.0,0.0,0.0,0.0,0.0,0.0,0.0,0.0,0.0,0.0,0.0,0.0,0.0,0.0,0.0,0.0,0.0,0.0,0.0,0.0,0.0,0.0,0.0,0.0,0.0,0.0,0.0,0.0,0.0,-1.2747,-1.2968,0.0,0.0,0.0,0.0,0.0,0.0,0.0,0.0,0.0,0.0,0.0,0.0,0.0,-2.0629,-2.218,-2.3685,-2.4493,-2.4603,-2.5419,-2.585,-2.597,-2.608,-2.6146,-2.6129,-2.5698,0.0,-2.2091,-2.1113,0.0,0.0,0.0,0.0,0.0,0.0,0.0,0.0,0.0,0.0,0.0,0.0,0.0,0.0,0.0,0.0,0.0,0.0,0.0,0.0,0.0,0.0,-2.3244,-2.247,-2.247,-2.2489,0.0,-1.9565,-1.7237,-1.6199,-1.5465,0.0,0.0,0.0,0.0,0.0,0.0,0.0,-1.7449,-1.9158,-2.0308,-2.0308,-2.0308,-2.0308,-2.0308,-1.9508,-1.8588,-1.7603,-1.608,-1.4651,-1.3456,-1.1382,0.0,0.0,0.0,0.0,0.0,0.0,0.0,0.0,0.0,0.0,0.0,0.0,0.0,0.0,0.0,0.0,0.0,0.0,0.0,0.0,0.0,0.0,0.0,0.0,0.0,0.0,0.0,0.0,0.0,-1.2517,-1.4138,-1.4597,-1.5356,-1.5539,0.0,0.0,0.0,0.0,0.0,0.0,0.0,0.0,0.0,-2.2657,-2.3511,-2.4492,-2.5695,-2.6851,-2.764,-2.811,-2.8448,-2.8631,-2.8631,-2.8631,-2.8381,-2.7923,-2.7475,-2.6662,-2.5515,-2.3853,-2.2562,-2.1488,0.0,0.0,0.0,0.0,-1.9523,-1.9985,-2.095,-2.1301,0.0,-2.0139,0.0,0.0,0.0,0.0,0.0,0.0,0.0,0.0,0.0,0.0,-2.4125,-2.4197,-2.4216,-2.4216,-2.4216,-2.2677,-2.0777,0.0,-1.8692,-1.7865,-1.5112,0.0,0.0,0.0,0.0,0.0,-1.9058,-2.0215,-2.0962,-2.0962,-2.0577,-2.0308,-2.0308,-1.9946,-1.9142,-1.7795,-1.7003,-1.5788,-1.3975,-1.2822,-1.1555,0.0,0.0,0.0,0.0,0.0,0.0,0.0,0.0,0.0,0.0,0.0,0.0,0.0,0.0,0.0,0.0,0.0,0.0,0.0,0.0,0.0,0.0,0.0,0.0,0.0,0.0,0.0,0.0,-1.4273,-1.5723,-1.6525,-1.7527,-1.7741,0.0,0.0,0.0,0.0,0.0,0.0,-2.1685,-2.2758,-2.4254,-2.6256,-2.7108,-2.7915,-2.8716,-2.931,-2.9916,-3.0503,-3.0503,-3.0503,-3.0503,-3.0503,-3.0173,-2.9574,-2.876,-2.8504,-2.8454,-2.6202,-2.5001,-2.4474,-2.32,-2.2479,-2.2196,-2.2641,-2.2947,-2.3312,-2.4625,-2.5067,-2.4817,-2.3293,0.0,-2.1485,-1.9584,0.0,0.0,0.0,0.0,-2.162,-2.3062,-2.3913,-2.4567,-2.5154,-2.5308,-2.5308,-2.5308,-2.4832,-2.3798,0.0,-2.1581,-2.0754,-1.7385,0.0,0.0,0.0,0.0,-1.9898,-2.0823,-2.1273,-2.1504,-2.1504,-2.0769,-2.0308,-2.0308,-2.0308,-1.9561,-1.7815,-1.7699,-1.6657,-1.4324,-1.4014,-1.2921,-1.081,0.0,0.0,0.0,0.0,0.0,0.0,0.0,0.0,0.0,0.0,0.0,0.0,0.0,0.0,0.0,0.0,0.0,0.0,0.0,0.0,0.0,0.0,0.0,0.0,0.0,0.0,0.0,0.0,0.0,-1.9022,-2.0564,0.0,0.0,0.0,0.0,-2.1427,-2.2987,-2.4273,-2.5099,-2.6641,-2.7897,-2.8785,-2.9604,-3.0411,-3.1213,-3.1268,-3.1305,-3.1342,-3.1342,-3.1342,-3.1342,-3.1342,-3.1323,-3.1231,-3.043,-3.0093,-2.9915,-2.7702,-2.6884,-2.6962,-2.6227,-2.6447,-2.7071,-2.6543,-2.6871,-2.7588,-2.7684,-2.7703,-2.7568,-2.664,-2.4716,-2.272,-2.2586,-2.1966,0.0,0.0,-2.324,-2.4105,-2.4942,-2.5212,-2.525,-2.5288,-2.5308,-2.5308,-2.5308,-2.5269,-2.4981,0.0,-2.3278,-2.2389,-2.137,0.0,-2.1231,-2.1196,-2.1288,-2.1692,-2.2566,-2.1985,-2.1504,-2.1504,-2.0769,-2.0308,-2.0308,-2.0308,-1.9561,-1.7815,-1.7699,-1.6926,-1.5212,-1.4343,-1.3481,-1.2587,-1.0944,0.0,0.0,0.0,0.0,0.0,0.0,0.0,0.0,0.0,0.0,0.0,0.0,0.0,0.0,0.0,0.0,0.0,0.0,0.0,0.0,0.0,0.0,0.0,0.0,0.0,0.0,0.0,0.0,-2.1584,-2.3116,0.0,-2.2565,-2.318,-2.3988,-2.4832,-2.5897,-2.709,-2.8411,-2.9035,-2.9714,-3.0522,-3.1317,-3.1867,-3.2173,-3.2687,-3.2944,-3.2944,-3.2944,-3.2669,-3.2173,-3.2173,-3.188,-3.1378,-3.1103,-3.0962,-3.0901,-3.0132,-2.9074,-2.7905,-2.7279,-2.7338,-2.7735,-2.7522,-2.7621,-2.7895,-2.7895,-2.7895,-2.7857,-2.7544,-2.6813,-2.6087,-2.6087,-2.5466,-2.4851,-2.5159,-2.5063,-2.4947,-2.5231,-2.5308,-2.5308,-2.5308,-2.5308,-2.5308,-2.5308,-2.5308,-2.5212,-2.4928,-2.462,-2.3966,-2.2581,-2.2797,-2.2797,-2.1677,-2.2447,-2.3297,-2.3605,-2.3374,-2.2951,-2.2389,-2.1581,-2.0865,-2.0346,-2.0308,-1.9561,-1.7815,-1.7699,-1.6946,-1.5269,-1.4363,-1.3519,-1.2721,-1.1543,-1.0117,0.0,0.0,0.0,0.0,0.0,0.0,0.0,0.0,0.0,0.0,0.0,0.0,0.0,0.0,0.0,0.0,0.0,0.0,0.0,0.0,0.0,0.0,0.0,0.0,0.0,0.0,-2.2593,-2.3676,-2.5227,-2.5888,-2.5089,-2.6237,-2.7236,-2.7769,-2.8558,-2.9487,-3.054,-3.087,-3.1256,-3.1788,-3.2596,-3.2999,-3.2999,-3.3532,-3.3807,-3.3807,-3.3807,-3.3532,-3.2999,-3.2999,-3.2706,-3.2192,-3.1916,-3.1806,-3.177,-3.1513,-3.0672,-2.9485,-2.8816,-2.854,-2.8517,-2.8574,-2.8672,-2.8736,-2.8736,-2.8544,-2.8299,-2.8299,-2.8126,-2.7895,-2.7895,-2.7505,-2.7044,-2.7044,-2.6621,-2.6115,-2.5808,-2.5731,-2.5654,-2.5365,-2.5308,-2.5308,-2.5308,-2.5308,-2.5308,-2.5308,-2.5308,-2.4942,-2.3832,-2.412,-2.4101,-2.2962,-2.3774,-2.4509,-2.4509,-2.4259,-2.3879,-2.3297,-2.2197,-2.1273,-2.075,-2.0196,-1.9234,-1.7795,-1.7449,-1.6676,-1.5269,-1.4363,-1.3519,-1.2721,-1.1293,-1.0019,-0.89,0.0,0.0,0.0,0.0,0.0,0.0,0.0,0.0,0.0,0.0,0.0,0.0,0.0,0.0,0.0,0.0,0.0,0.0,0.0,0.0,0.0,0.0,0.0,-2.1831,-2.2593,-2.3749,-2.5319,-2.6917,-2.7585,-2.6833,-2.887,-3.0246,-3.0283,-3.0999,-3.1452,-3.147,-3.221,-3.2638,-3.2638,-3.3385,-3.3807,-3.3807,-3.3807,-3.3807,-3.3807,-3.3807,-3.3807,-3.3807,-3.3807,-3.3807,-3.3752,-3.2968,-3.2638,-3.2583,-3.1788,-3.1604,-3.1745,-3.0956,-3.0272,-2.9769,-2.9969,-3.0202,-3.0404,-3.0404,-2.9852,-2.9146,-2.9146,-2.8607,-2.7992,-2.7992,-2.7953,-2.7934,-2.7934,-2.7915,-2.7698,-2.6832,-2.6601,-2.639,-2.5519,-2.5308,-2.5308,-2.5308,-2.5308,-2.5308,-2.5308,-2.5308,-2.5308,-2.5308,-2.5308,-2.5308,-2.5308,-2.5308,0.0,-2.5308,-2.462,-2.4129,-2.411,-2.2586,-2.1562,-2.1504,-2.0008,-1.8684,-1.7757,-1.6968,-1.6138,-1.5231,-1.4363,-1.3519,-1.2683,-1.025,-0.8996,-0.8939,0.0,0.0,0.0,0.0,0.0,0.0,0.0,0.0,0.0,0.0,0.0,0.0,0.0,0.0,0.0,0.0,0.0,0.0,0.0,0.0,0.0,0.0,-2.2666,-2.2666,-2.4869,-2.6869,-2.7886,-2.8925,-2.9677,-3.0044,-3.0668,-3.1311,-3.1898,-3.2155,-3.2522,-3.3109,-3.3348,-3.3476,-3.3476,-3.3678,-3.3807,-3.3807,-3.3807,-3.3807,-3.3807,-3.3807,-3.3807,-3.3807,-3.3807,-3.3807,-3.3788,-3.3568,-3.3476,-3.3458,-3.322,-3.2849,-3.2312,-3.1715,-3.1104,-3.06,-3.0847,-3.0705,-3.0404,-3.0404,-3.0231,-3.0038,-3.0038,-2.9885,-2.9712,-2.9712,-2.9275,-2.878,-2.878,-2.8357,-2.7698,-2.6832,-2.6601,-2.639,-2.5519,-2.5308,-2.5308,-2.5308,-2.5308,-2.5308,-2.5308,-2.5308,-2.5308,-2.5308,-2.5308,-2.5308,-2.5308,-2.5308,0.0,-2.5308,-2.5115,-2.4755,-2.4168,-2.3663,-2.2874,-2.162,-2.1081,-1.9927,-1.7834,-1.7487,-1.6715,-1.5269,-1.4363,-1.3228,-1.1793,-1.1697,-1.1021,0.0,0.0,0.0,0.0,0.0,0.0,0.0,0.0,0.0,0.0,0.0,0.0,0.0,0.0,0.0,0.0,0.0,0.0,0.0,0.0,0.0,0.0,-2.4217,-2.5629,-2.596,-2.7346,-2.8741,-2.9879,-3.0723,-3.1403,-3.1861,-3.221,-3.2596,-3.3073,-3.3096,-3.3445,-3.4266,-3.4289,-3.4468,-3.4835,-3.4853,-3.4853,-3.4853,-3.4853,-3.4853,-3.4835,-3.4486,-3.4289,-3.4302,-3.3954,-3.3807,0.0,-3.3807,-3.3807,-3.3807,-3.3807,-3.3532,0.0,0.0,0.0,0.0,0.0,-3.0846,-3.0254,-3.0361,-3.0404,-3.0404,-3.0404,-3.0404,-3.0404,-3.0404,-3.0038,-2.964,-2.964,-2.9313,-2.8756,-2.7871,-2.764,-2.7332,-2.6135,-2.5846,-2.5731,-2.5385,-2.5308,-2.5308,-2.5308,-2.5308,0.0,-2.5308,-2.5308,-2.5308,-2.5308,-2.5308,-2.5308,-2.5308,-2.5308,-2.5115,-2.4639,-2.4298,-2.3548,-2.2158,-2.1408,0.0,0.0,0.0,-1.6946,-1.5269,-1.4363,0.0,0.0,0.0,0.0,0.0,0.0,0.0,0.0,-0.9887,-1.0135,0.0,0.0,0.0,0.0,0.0,0.0,0.0,0.0,0.0,0.0,0.0,0.0,0.0,0.0,0.0,0.0,-2.7622,-2.9445,-3.0338,-2.9867,-2.9941,-3.1366,-3.2173,-3.2638,-3.2729,-3.3385,-3.3844,-3.3935,-3.3935,-3.4302,-3.5096,0.0,0.0,0.0,0.0,-3.6303,-3.6303,-3.6303,-3.6303,-3.6285,-3.5426,-3.5004,-3.4968,-3.4174,-3.3807,-3.3807,-3.3807,-3.3807,-3.3807,-3.3807,-3.3807,-3.3715,-3.2913,-3.2336,-3.1939,-3.1536,-3.0879,-3.0235,-3.0471,0.0,0.0,-3.0404,-3.0404,-3.0404,-3.0404,-3.0404,-3.0404,-3.0404,-3.0404,-3.0192,-2.9338,-2.9107,-2.8703,-2.7121,-2.6678,-2.639,-2.5615,-2.5365,-2.5308,-2.5308,-2.5308,-2.5308,-2.5308,-2.5308,-2.5308,-2.5308,-2.5308,-2.5308,-2.5308,-2.5308,-2.5308,-2.5308,0.0,0.0,-2.3028,-2.1485,-2.0177,-1.9203,-1.8238,-1.7026,-1.5538,-1.4747,-1.3942,-1.3142,-1.3219,-1.3161,-1.2988,-1.3084,-1.3084,-1.2969,-1.1985,-1.2005,0.0,0.0,0.0,0.0,0.0,0.0,0.0,0.0,0.0,0.0,0.0,0.0,0.0,0.0,0.0,-2.7045,-2.8815,-3.0485,-3.1922,-3.1995,-3.2014,-3.2326,-3.2509,-3.2839,-3.3495,-3.3715,-3.4082,-3.4729,-3.4766,-3.5133,-3.6009,-3.6046,-3.6138,-3.6285,-3.6303,-3.6303,-3.6303,-3.6303,-3.6303,-3.6285,0.0,0.0,-3.4968,-3.4174,-3.3807,-3.3807,-3.3807,-3.3807,-3.3807,-3.3807,-3.3807,-3.3715,-3.2913,-3.2813,-3.2992,-3.2288,-3.174,-3.1386,-3.1436,-3.0981,-3.0404,-3.0404,-3.0404,-3.0404,-3.0404,-3.0404,0.0,-3.0404,-3.0404,-3.0192,-2.9338,-2.9107,-2.8857,-2.7876,-2.7101,-2.6544,-2.6385,-2.5808,-2.5308,-2.5308,-2.5308,-2.5308,-2.5308,-2.5308,-2.5308,-2.5308,-2.5308,-2.5308,-2.5308,-2.5308,-2.5308,-2.5308,-2.5154,-2.4736,-2.3918,-2.2913,-2.1677,-2.0139,-1.8561,-1.7545,-1.7237,-1.7042,-1.6583,-1.5775,-1.6391,-1.6064,-1.4712,-1.5426,-1.5407,-1.4676,-1.3159,-1.289,0.0,0.0,0.0,0.0,0.0,0.0,0.0,0.0,0.0,0.0,0.0,-2.2841,0.0,0.0,-2.8319,-2.9934,-3.0889,-3.1825,-3.3036,-3.3201,-3.3201,-3.3201,-3.3201,-3.3366,-3.3752,-3.4174,-3.4564,-3.4968,-3.5389,-3.6028,-3.6868,-3.6905,-3.7092,-3.7496,-3.7496,-3.7496,-3.7496,-3.7496,-3.7496,-3.7496,-3.6652,-3.6248,-3.6229,-3.5422,-3.4816,-3.4399,-3.4399,-3.416,-3.3807,-3.3807,-3.3807,-3.3752,-3.3366,-3.3118,-3.2982,-3.284,-3.2435,-3.1924,-3.1751,-3.141,-3.0981,-3.0538,-3.0404,-3.0404,-3.0404,-3.0404,-3.0404,-3.0404,-3.0404,-3.0308,-2.9871,-2.9756,-2.9544,-2.8703,-2.7852,-2.7121,-2.6697,-2.5923,-2.5308,-2.5308,-2.5308,-2.5308,-2.5308,-2.5308,-2.5308,-2.5308,-2.5308,-2.5308,-2.5308,-2.5308,-2.5308,-2.5308,-2.5308,-2.4962,-2.4168,-2.2893,-2.162,-2.0385,-1.9077,-1.835,-1.8357,-1.793,-1.7507,-1.7103,-1.7507,-1.7295,-1.6445,-1.6891,-1.6872,-1.6426,-1.5583,-1.5198,0.0,0.0,0.0,0.0,0.0,0.0,0.0,0.0,-2.0511,-2.2637,-2.4732,-2.6629,-2.8014,-2.9586,-3.1091,-3.2381,-3.2729,-3.3073,-3.3715,-3.3807,-3.3807,-3.3807,-3.3807,-3.3862,-3.4027,-3.4619,-3.5151,-3.5463,-3.6138,-3.6886,-3.7694,-3.7731,-3.8028,-3.8689,-3.8707,-3.8707,-3.8707,-3.8707,-3.8707,-3.8689,-3.7878,-3.7492,-3.7474,-3.6684,-3.5826,-3.5004,-3.4839,-3.4399,-3.3807,-3.3807,-3.3807,-3.3807,-3.3807,-3.3403,-3.2912,-3.3449,-3.3166,-3.2473,-3.226,-3.2064,-3.1795,-3.0923,-3.0654,-3.0615,-3.0442,-3.0404,-3.0404,-3.0404,-3.0404,-3.0404,-3.0404,-3.0404,-3.0212,-2.9525,-2.8607,-2.7703,-2.7005,-2.6038,-2.5308,-2.5308,-2.5308,-2.5308,-2.5308,-2.5308,-2.5308,-2.5308,-2.5308,-2.5308,-2.5308,-2.5308,-2.5308,-2.5308,-2.5308,-2.4904,-2.3932,-2.2566,-2.135,-2.0365,-1.9631,-1.925,-1.9261,-1.8584,-1.8219,-1.8219,-1.8219,-1.8122,-1.7946,-1.7946,-1.7872,-1.7699,-1.7872,-1.7507,-1.5462,-1.5974,-1.7275,-1.9504,-1.959,-2.0293,0.0,0.0,-2.4295,-2.7015,-2.8407,-2.9295,-2.9838,-3.1256,-3.2381,-3.2564,-3.3201,-3.3697,-3.3788,-3.3807,-3.3807,-3.3807,-3.3807,-3.4082,-3.4802,-3.4949,-3.561,-3.7107,-3.7309,-3.7731,-3.8524,-3.8579,-3.8615,-3.8707,-3.8707,-3.8707,-3.8707,-3.8707,-3.8707,-3.8689,-3.7878,-3.7492,-3.7474,-3.6684,-3.5826,-3.4968,-3.4234,-3.388,-3.3807,-3.3807,-3.3807,-3.3807,-3.3807,-3.3733,-3.3753,-3.4333,-3.4159,-3.3655,-3.3843,-3.341,-3.2622,-3.1814,-3.1545,-3.141,-3.0635,-3.0404,-3.0404,-3.0404,-3.0404,-3.0404,-3.0404,-3.0404,-3.0385,-3.0288,-2.9044,-2.7876,-2.778,-2.6467,-2.5308,-2.5308,-2.5308,-2.5308,-2.5308,-2.5308,-2.5308,-2.5308,-2.5308,-2.5308,-2.5308,-2.5308,-2.5308,-2.5308,-2.5308,-2.4654,-2.3086,-2.2778,-2.1985,-2.0404,-2.0212,-2.0154,-2.0154,-2.0058,-2.0,-2.0,-2.0,-1.9635,-1.8842,-1.8842,-1.8462,-1.7718,-1.8491,-1.8395,-1.8702,-1.9572,0.0,0.0,-2.3228,-2.4086,-2.693,-2.7293,-2.7477,-2.908,-3.043,-3.1407,-3.1567,-3.254,-3.3311,0.0,-3.3587,-3.3807,-3.3807,-3.3807,-3.3807,-3.3807,-3.3807,-3.3935,-3.427,-3.5169,-3.6046,-3.6758,-3.7661,-3.834,-3.8689,-3.8707,-3.8707,-3.8707,-3.8707,-3.8707,-3.8707,-3.8707,-3.8707,-3.8707,-3.8358,-3.8193,-3.8193,-3.7845,-3.7239,-3.6376,-3.5059,-3.4491,-3.4454,-3.399,-3.3807,-3.3807,-3.3807,-3.3807,-3.3868,-3.4483,-3.4537,-3.43,-3.4237,-3.3955,-3.343,-3.2122,-3.1698,-3.1545,-3.0654,-3.0404,-3.0404,-3.0404,-3.0404,-3.0404,-3.0404,-3.0404,-3.0404,-3.0404,-2.9121,-2.7895,-2.7895,-2.6524,-2.5308,-2.5308,-2.5308,-2.5308,-2.5308,-2.5308,-2.5308,-2.5308,-2.5308,-2.5308,-2.5308,-2.5308,-2.5308,-2.5308,-2.5308,-2.4827,-2.3663,-2.3086,-2.2274,-2.1077,-2.0558,-2.0308,-2.0308,-2.0308,-2.0308,-2.0308,-2.0308,-2.0115,-1.9769,-1.9769,-1.9577,-1.9215,-1.9581,-1.9561,-2.1289,0.0,0.0,-2.5117,-2.6126,-2.715,-2.8631,-2.9346,-2.9976,-3.0841,-3.178,-3.2464,-3.2588,-3.3091,0.0,-3.3476,-3.3844,-3.4064,-3.3825,-3.399,-3.4045,-3.3825,-3.3807,-3.3807,-3.3807,-3.511,-3.6138,-3.6597,-3.7716,-3.8469,-3.8689,-3.8707,-3.8707,-3.8707,-3.8707,-3.8707,-3.8707,-3.8707,-3.8707,-3.8707,-3.8707,-3.8707,-3.8689,-3.8469,-3.8046,-3.7419,-3.5991,-3.5224,-3.4949,-3.4362,-3.4044,-3.3915,-3.3915,-3.3967,-3.4111,-3.4614,-3.4754,-3.4679,-3.4504,-3.4505,-3.4276,-3.2583,-3.2025,-3.1833,-3.0731,-3.0404,-3.0404,-3.0404,-3.0404,-3.0404,-3.0404,-3.0404,-3.0404,-3.0404,-2.9294,-2.8165,-2.7953,-2.6717,-2.5596,-2.5346,-2.5308,-2.5308,-2.5308,-2.5308,-2.5308,-2.5308,-2.5308,-2.5308,-2.5308,-2.5308,-2.5308,-2.5308,-2.5308,-2.4962,-2.4168,-2.3509,-2.2682,-2.1562,-2.0942,-2.0538,-2.0308,-2.0308,-2.0308,-2.0308,-2.0308,-2.0308,-2.0308,-2.0308,-2.0308,-2.0308,-2.0308,-2.0308,0.0,0.0,-2.5198,-2.6366,-2.755,-2.8807,-3.0299,-3.0984,-3.1665,-3.2868,-3.2531,-3.2144,-3.2517,-3.2619,-3.2638,-3.2638,-3.3959,-3.4692,-3.3917,-3.4472,-3.4674,-3.3899,-3.3807,-3.3807,0.0,-3.4546,-3.5701,-3.7345,-3.7511,-3.7878,-3.867,-3.8707,-3.8707,-3.8707,-3.8707,-3.8707,-3.8707,-3.8707,-3.8707,-3.8707,-3.8707,-3.8707,-3.867,-3.7896,-3.7529,-3.7456,-3.6615,-3.5789,-3.5004,-3.4968,-3.4655,-3.4195,-3.4195,-3.4379,-3.4704,-3.4981,-3.4926,-3.4734,-3.4988,-3.5251,-3.5173,-3.343,-3.2852,-3.2564,-3.0904,-3.0404,-3.0404,-3.0404,-3.0404,-3.0404,-3.0404,-3.0404,-3.0404,-3.0404,-2.9717,-2.8857,-2.8068,-2.7198,-2.6308,-2.5462,-2.5308,-2.5308,-2.5308,-2.5308,-2.5308,-2.5308,-2.5308,-2.5308,-2.5308,-2.5308,-2.5308,-2.5308,-2.5308,-2.4962,-2.4168,-2.4072,-2.3336,-2.162,-2.1485,-2.1115,-2.0327,-2.0308,-2.0308,-2.0308,-2.0308,-2.0308,-2.0308,-2.0308,-2.0308,-2.0308,-2.0308,-2.0308,0.0,0.0,-2.7245,-2.8364,-2.953,-3.0757,-3.2072,-3.2478,-3.2637,-3.278,-3.2155,-3.1482,-3.1084,-3.1017,-3.1182,-3.1715,-3.3146,-3.4119,-3.3844,-3.5,-3.5349,-3.3954,-3.427,0.0,0.0,0.0,0.0,-3.6615,-3.7199,-3.786,-3.867,-3.8707,-3.8707,-3.8707,-3.8707,-3.8707,-3.8707,-3.8707,-3.8707,-3.8707,-3.8707,-3.8707,-3.8689,-3.8414,-3.8303,-3.8212,-3.6872,-3.6228,-3.6025,-3.4927,-3.4503,-3.4529,-3.4529,-3.4593,-3.4704,-3.4793,-3.4898,-3.4999,-3.5281,-3.5432,-3.5308,-3.4141,-3.3372,-3.2699,-3.1602,-3.0865,-3.0404,-3.0404,-3.0404,-3.0404,-3.0404,-3.0404,-3.0404,-3.0404,-2.9333,-2.8195,-2.7795,-2.6559,-2.5449,-2.5157,-2.5099,-2.5146,-2.5274,-2.5308,-2.5308,-2.5308,-2.5308,-2.5308,-2.5308,-2.5308,-2.5308,-2.5308,-2.5308,-2.5192,-2.4928,-2.4413,-2.386,-2.3259,-2.2139,-2.1389,-2.1115,-2.0577,-2.0308,-2.0308,-2.0308,-2.0308,-2.0308,-2.0308,-2.0308,-2.0308,-2.0308,-2.0308,0.0,-2.7455,-2.9001,-2.9988,-3.1158,-3.2159,-3.267,-3.2886,-3.2752,-3.192,-3.1109,-3.0301,-2.9494,-2.9347,-2.9696,-3.0779,-3.2559,-3.3899,-3.4192,-3.5661,-3.6225,-3.4853,-3.5147,0.0,0.0,0.0,0.0,-3.6266,-3.7052,-3.786,-3.867,-3.8707,-3.8707,-3.8707,-3.8707,-3.8707,-3.8707,-3.8707,-3.8707,-3.8707,-3.8707,-3.8707,-3.8707,-3.8707,-3.8707,-3.8634,-3.7294,-3.6722,-3.6583,-3.5231,-3.4738,-3.4832,-3.4832,-3.4908,-3.4981,-3.4981,-3.5096,-3.5246,-3.532,-3.5424,-3.5365,-3.4468,-3.3603,-3.2756,-3.1948,-3.1096,-3.0404,-3.0404,-3.0404,-3.0404,-3.0404,-3.0404,-3.0404,-3.0404,-2.9577,-2.8658,-2.8141,-2.7141,-2.6168,-2.5488,-2.536,-2.5317,-2.5215,-2.5259,-2.5308,-2.5308,-2.5308,-2.5308,-2.5308,-2.5308,-2.5308,-2.5308,-2.5308,-2.5308,-2.5308,-2.4832,-2.4413,-2.4129,-2.3047,-2.2158,-2.1523,-2.1,-2.0596,-2.0308,-2.0308,-2.0308,-2.0308,-2.0308,-2.0308,-2.0308,-2.0308,-2.0308,-2.8031,-2.9315,-3.0415,-3.1288,-3.2381,-3.303,-3.2206,-3.2288,-3.2069,-3.0467,-2.9464,-2.862,0.0,0.0,-2.8246,-2.9824,-3.2173,-3.4082,-3.4894,-3.6486,-3.7254,0.0,0.0,0.0,0.0,0.0,0.0,-3.6358,0.0,-3.786,-3.867,-3.8707,-3.8707,-3.8707,-3.8707,-3.8707,-3.8707,-3.8707,-3.8707,-3.8707,-3.8707,-3.8707,-3.8707,-3.8707,-3.8707,-3.867,-3.7856,-3.7225,-3.6664,-3.5876,-3.5367,-3.5122,-3.5122,-3.5281,-3.55,-3.55,-3.55,-3.5453,-3.5207,-3.5289,-3.5365,-3.4545,-3.368,-3.2814,-3.2006,-3.1154,-3.0462,-3.0404,-3.0404,-3.0404,-3.0404,-3.0404,-3.0404,-3.0404,-3.0365,-3.0054,-2.9011,-2.8722,-2.8132,-2.6337,-2.5959,-2.5732,-2.5107,-2.5157,-2.5298,-2.5303,-2.5308,-2.5308,-2.5308,-2.5308,-2.5308,-2.5308,-2.5308,-2.5308,-2.5308,-2.5308,-2.4962,-2.4206,-2.4129,-2.3355,-2.1696,-2.16,-2.1196,-2.0385,-2.0365,-2.0346,-2.0308,-2.0308,-2.0308,-2.0308,-2.0308,-2.0327,-2.9304,-3.0564,-3.1709,-3.2544,-3.3201,-3.3433,-3.2634,-3.2072,-3.1256,-2.9647,-2.818,-2.6767,-2.5383,0.0,0.0,-2.8246,-3.1439,0.0,-3.4894,-3.6949,0.0,0.0,0.0,-3.696,-3.6358,-3.685,0.0,0.0,-3.7382,-3.786,-3.867,-3.8707,-3.8707,-3.8707,-3.8707,-3.8707,-3.8707,-3.8707,-3.8707,-3.8707,-3.8707,-3.8707,-3.8707,-3.8707,-3.8707,-3.8667,-3.8072,-3.7479,-3.6953,-3.6345,-3.5821,-3.5391,-3.5391,-3.5439,-3.55,-3.55,-3.55,-3.5493,-3.5424,-3.5439,-3.5462,-3.5231,-3.4584,-3.3705,-3.2852,-3.2025,-3.1231,-3.0577,-3.0404,-3.0404,-3.0404,-3.0404,-3.0404,-3.0404,-2.991,-2.9262,-2.8708,-2.7608,-2.6537,-2.5893,-2.5402,-2.5081,-2.5018,-2.504,-2.5135,-2.5274,-2.5308,-2.5308,-2.5308,-2.5308,-2.5308,-2.5308,-2.5308,-2.5308,-2.5308,-2.5308,-2.5212,-2.5,-2.4432,-2.3898,-2.3451,-2.2816,-2.2062,-2.1212,-2.1192,-2.0904,-2.0308,-2.0308,-2.0308,-2.0308,-2.0308,-2.0615,-3.0869,-3.1845,-3.2687,-3.3313,-3.3364,-3.2981,-3.1812,-3.065,-2.9255,-2.731,-2.5886,0.0,0.0,0.0,0.0,0.0,0.0,0.0,-3.4747,-3.6835,-3.7973,0.0,-3.7753,0.0,-3.7404,-3.7753,-3.8028,0.0,-3.8028,-3.8212,-3.8689,-3.8707,-3.8707,-3.8707,-3.8707,-3.8707,-3.8707,-3.8707,-3.8762,-3.8884,-3.8884,-3.8884,-3.8884,-3.8884,-3.8884,-3.8828,0.0,-3.7664,-3.7229,-3.6567,-3.5982,-3.55,-3.55,-3.55,-3.55,-3.55,-3.55,-3.55,-3.55,-3.55,-3.55,-3.55,-3.4911,-3.4109,-3.3622,-3.2641,-3.1602,-3.1115,-3.0692,-3.0404,-3.0404,-3.0404,-3.0404,-3.0404,-3.0019,-2.9575,-2.922,-2.8361,-2.7322,-2.6284,-2.5322,-2.4682,-2.4773,-2.4911,-2.5034,-2.5152,-2.5234,-2.5308,-2.5308,-2.5308,-2.5308,-2.5308,-2.5308,-2.5308,-2.5308,-2.5308,-2.5308,-2.5308,-2.4889,-2.4471,-2.411,-2.3624,-2.2778,-2.1523,-2.1504,-2.1096,-2.0308,-2.0308,-2.0308,-2.0308,-2.0654,-2.0885,-3.2333,-3.2938,-3.3302,-3.3707,-3.3109,-3.2051,-3.054,-2.8778,-2.6862,-2.4649,0.0,0.0,-2.1776,0.0,-2.3868,-2.608,0.0,-3.1317,-3.4546,-3.6358,-3.7676,-3.8597,-3.8707,-3.8707,-3.8707,-3.8707,-3.8707,-3.8707,-3.8707,-3.8707,-3.8707,-3.8707,-3.8707,-3.8707,-3.8707,-3.8707,-3.8707,-3.8735,-3.8869,-3.9112,-3.9152,-3.9178,-3.9178,-3.9178,-3.9178,-3.9122,-3.8352,0.0,-3.7432,-3.6665,-3.6024,-3.55,-3.55,-3.55,-3.55,-3.55,-3.55,-3.55,-3.55,-3.55,-3.55,-3.55,-3.4988,-3.4359,-3.4244,-3.3103,-3.1833,-3.1737,-3.1077,-3.0404,-3.0404,-3.0404,-3.0404,-3.0404,-3.0404,-3.0336,-3.0061,-2.9726,-2.8876,-2.6845,-2.5448,-2.4591,-2.4513,-2.4752,-2.4955,-2.4979,-2.5152,-2.5269,-2.5303,-2.5308,-2.5308,-2.5308,-2.5308,-2.5308,-2.5308,-2.5308,-2.5308,-2.5308,-2.5308,-2.4981,-2.4298,-2.4259,-2.3509,-2.1889,-2.185,-2.1446,-2.0635,-2.0635,-2.0577,-2.0481,-2.1293,-2.1293,-3.2676,-3.315,-3.3302,-3.3707,-3.2687,-3.1347,-3.0411,-2.7934,0.0,0.0,0.0,-2.1757,-2.0878,-2.252,0.0,-2.5429,0.0,0.0,0.0,0.0,-3.7055,0.0,0.0,0.0,0.0,0.0,0.0,0.0,0.0,-3.8707,-3.8707,-3.8707,-3.8707,-3.8707,-3.8707,-3.8707,-3.8707,-3.8923,-3.9044,-3.9093,-3.9377,-3.9498,-3.9498,-3.9498,-3.9498,-3.9484,-3.8896,0.0,-3.745,-3.688,-3.6183,-3.55,-3.55,-3.55,-3.55,-3.55,-3.55,-3.55,-3.55,-3.55,-3.55,-3.55,-3.5404,-3.5135,-3.441,-3.3487,-3.2545,-3.1891,-3.1077,-3.0404,-3.0404,-3.0404,-3.0404,-3.0404,-3.0404,-3.0336,-3.0061,-2.9146,-2.7829,-2.5978,-2.5414,-2.5087,-2.4581,-2.4551,-2.4678,-2.4968,-2.5028,-2.5105,-2.5274,-2.5308,-2.5308,-2.5308,-2.5308,-2.5308,-2.5308,-2.5308,-2.5308,-2.5308,-2.5308,-2.525,-2.5096,-2.5096,-2.4639,-2.3663,-2.3644,-2.322,-2.2374,-2.2374,-2.2004,-2.1312,-2.2177,-2.2509,-3.2675,-3.3199,-3.3459,-3.3221,-3.1971,-3.0356,-2.8705,0.0,0.0,0.0,0.0,-1.9245,-1.9245,0.0,0.0,0.0,0.0,0.0,0.0,0.0,0.0,0.0,0.0,0.0,0.0,0.0,0.0,0.0,0.0,-3.8707,-3.8707,-3.8707,-3.8707,-3.8707,-3.8707,-3.8707,-3.8707,-3.8975,-3.9186,-3.9364,-3.969,-3.987,-3.9851,-3.9385,-3.9166,-3.9138,-3.8423,0.0,-3.7067,-3.681,-3.6231,-3.55,-3.55,-3.55,-3.55,-3.55,-3.55,-3.55,-3.55,-3.55,-3.5423,-3.4968,-3.5135,-3.5346,-3.4449,-3.3583,-3.2737,-3.1929,-3.1077,-3.0404,-3.0404,-3.0299,-3.0235,-3.0367,-3.0404,-3.0299,-2.9916,-2.9126,-2.798,-2.6331,-2.5769,-2.5301,-2.4468,-2.4418,-2.4559,-2.4723,-2.4836,-2.4956,-2.5111,-2.5146,-2.5173,-2.5298,-2.5308,-2.5308,-2.5308,-2.5308,-2.5308,-2.5308,-2.5308,-2.5308,-2.5308,-2.5308,-2.4928,-2.4129,-2.411,-2.3663,-2.2797,-2.2797,-2.2526,-2.2048,-2.292,-2.3073,-3.2509,-3.3201,-3.3605,-3.2803,-3.1262,-2.9365,-2.7097,-2.3969,0.0,0.0,0.0,-1.7147,-1.7942,0.0,0.0,0.0,0.0,0.0,0.0,0.0,0.0,0.0,0.0,0.0,0.0,0.0,0.0,0.0,0.0,0.0,-3.8707,-3.8707,-3.8707,-3.8707,-3.8747,-3.8788,-3.8788,-3.9068,-3.9327,-3.9599,-3.9932,-4.0005,-3.9795,-3.9194,-3.8811,-3.8582,-3.7722,0.0,0.0,-3.65,-3.6077,-3.55,-3.55,-3.55,-3.55,-3.55,-3.55,-3.55,-3.55,-3.55,-3.5365,-3.4468,-3.4661,-3.5064,-3.418,-3.3314,-3.2506,-3.1891,-3.1077,-3.0404,-3.0404,-3.0202,-3.0042,-3.026,-3.0361,-3.0286,-2.9864,-2.9395,-2.8601,-2.7036,-2.6303,-2.5595,-2.446,-2.4357,-2.4444,-2.4495,-2.4631,-2.4806,-2.498,-2.5004,-2.5082,-2.5274,-2.5308,-2.5308,-2.5308,-2.5308,-2.5308,-2.5308,-2.5308,-2.5308,-2.5308,-2.5308,-2.5,-2.4375,-2.4356,-2.4028,-2.3331,-2.3331,-2.3165,-2.2857,-2.3675,-2.3601,-3.2197,-3.3201,-3.3605,-3.2803,-3.084,-2.8675,-2.6969,0.0,0.0,0.0,-1.8016,-1.7147,-1.7942,-1.8757,0.0,0.0,0.0,0.0,0.0,0.0,0.0,0.0,0.0,0.0,0.0,0.0,0.0,0.0,0.0,0.0,-3.8707,-3.8707,-3.8707,-3.8707,-3.8952,-3.9058,-3.9058,-3.9396,-3.9576,-3.9599,-3.9932,-3.969,-3.8928,-3.9158,-3.8823,-3.8016,-3.7151,0.0,0.0,-3.5904,-3.5577,-3.55,-3.55,-3.55,-3.55,-3.55,-3.55,-3.55,-3.55,-3.55,-3.5365,-3.4468,-3.4244,-3.4167,-3.3276,-3.2449,-3.1795,-3.1718,-3.1077,-3.0404,-3.0404,-3.0202,-3.0006,-3.0028,-3.0215,-3.0317,-3.0021,-2.9934,-2.9357,-2.7498,-2.6948,-2.6301,-2.4739,-2.4348,-2.4284,-2.4469,-2.452,-2.4643,-2.4968,-2.5004,-2.5082,-2.5274,-2.5308,-2.5308,-2.5308,-2.5308,-2.5308,-2.5308,-2.5308,-2.5308,-2.5308,-2.5308,-2.5269,-2.5192,-2.5192,-2.5154,-2.5077,-2.5077,-2.4692,-2.3971,-2.4591,-2.4465,-3.0253,-3.1366,-3.2155,-3.1366,-2.9696,-2.7732,-2.564,0.0,0.0,-1.8126,-1.6585,-1.5845,-1.7128,-1.7649,-1.8658,0.0,-2.1758,-2.3217,0.0,0.0,0.0,0.0,0.0,0.0,0.0,0.0,0.0,0.0,0.0,0.0,-3.8707,-3.8707,-3.8777,-3.8952,-3.8898,-3.8933,-3.9099,-3.9225,-3.9145,-3.8822,-3.9162,-3.8964,-3.8298,-3.7913,-3.7546,-3.718,-3.6346,0.0,0.0,-3.5635,-3.55,-3.55,-3.55,-3.55,-3.55,-3.55,-3.55,-3.55,-3.55,-3.5154,-3.4564,-3.3699,-3.3083,-3.2622,-3.2275,-3.1948,-3.1583,-3.1077,-3.0673,-3.0404,-3.0404,-3.0202,-2.9977,-2.9845,-2.9996,-3.0136,-3.0021,-3.0129,-2.9632,-2.7596,-2.727,-2.676,-2.499,-2.452,-2.441,-2.4486,-2.4401,-2.4461,-2.4823,-2.4871,-2.4993,-2.5264,-2.5308,-2.5308,-2.5308,-2.5308,-2.5308,-2.5308,-2.5308,-2.5308,-2.5308,-2.5308,-2.5308,-2.5308,-2.5308,-2.5308,-2.5308,-2.5308,-2.5076,-2.4651,-2.4803,-2.4719,-2.851,-2.9824,-3.0779,-2.9751,-2.8631,-2.7108,0.0,0.0,-1.8831,-1.722,-1.5814,-1.5264,-1.6652,-1.7092,-1.7972,-2.0162,-2.0713,-2.1859,-2.4658,0.0,0.0,0.0,0.0,0.0,0.0,0.0,0.0,0.0,0.0,0.0,0.0,-3.8707,-3.8788,-3.899,-3.8884,-3.8909,-3.9099,-3.9112,-3.8788,-3.8186,-3.8496,-3.8214,-3.7368,-3.691,-3.6577,-3.6308,0.0,0.0,0.0,-3.55,-3.55,-3.55,-3.55,-3.55,-3.55,-3.55,-3.55,-3.5462,-3.5192,-3.4718,-3.4013,-3.291,-3.216,-3.166,-3.1385,-3.1308,-3.1192,-3.0577,-3.0404,-3.0373,-3.0305,-3.0143,-2.9954,-2.9756,-2.9804,-2.9931,-2.9991,-3.015,-2.9704,-2.779,-2.752,-2.7026,-2.5174,-2.4704,-2.4583,-2.4583,-2.4469,-2.4485,-2.4821,-2.4862,-2.4975,-2.5264,-2.5308,-2.5308,-2.5308,-2.5308,-2.5308,-2.5308,-2.5308,-2.5308,-2.5308,-2.5308,-2.5308,-2.5308,-2.5308,-2.5308,-2.5308,-2.5308,-2.5224,-2.5088,-2.493,-2.4835,-2.7376,-2.8998,-2.9824,-2.8209,-2.7816,-2.6961,0.0,-2.1088,-1.8831,-1.722,-1.6255,-1.5931,-1.6743,-1.7557,-1.8621,-2.0236,-2.1216,-2.2345,-2.3969,0.0,0.0,0.0,0.0,0.0,0.0,0.0,0.0,0.0,0.0,0.0,0.0,-3.8707,-3.8707,-3.8707,-3.8961,-3.9099,-3.9112,-3.9112,-3.8702,-3.7914,-3.8174,-3.7464,-3.595,-3.6471,-3.6269,0.0,0.0,0.0,0.0,-3.55,-3.55,-3.55,-3.55,-3.55,-3.55,-3.55,-3.55,-3.5385,-3.4507,-3.4205,-3.3936,-3.2256,-3.1718,-3.1545,-3.0673,-3.0404,-3.0404,-3.0404,-3.0404,-3.0349,-3.0075,-3.0006,-2.9954,-2.9756,-2.9705,-2.9765,-2.9962,-3.0006,-2.9586,-2.8165,-2.7738,-2.7039,-2.5291,-2.4884,-2.4797,-2.4797,-2.4797,-2.4842,-2.4986,-2.5004,-2.5082,-2.5274,-2.5308,-2.5308,-2.5308,-2.5308,-2.5308,-2.5308,-2.5308,-2.5308,-2.5308,-2.5308,-2.5308,-2.5308,-2.5308,-2.5308,-2.5308,-2.5308,-2.5303,-2.5284,-2.5094,-2.4936,-2.3704,-2.5283,-2.6531,-2.4924,-2.452,-2.4116,-2.2538,-2.0262,-1.8188,-1.7128,-1.6255,-1.5949,-1.6743,-1.7557,-1.8831,-2.1033,-2.1629,0.0,0.0,0.0,0.0,0.0,0.0,0.0,0.0,0.0,0.0,0.0,0.0,0.0,0.0,-3.8175,-3.8217,-3.8957,-3.8344,-3.8104,-3.8273,-3.7549,-3.6869,-3.6261,-3.6539,-3.6201,-3.5371,-3.573,0.0,0.0,0.0,0.0,0.0,-3.55,-3.55,-3.55,-3.55,-3.55,-3.55,-3.55,-3.55,-3.5462,-3.5173,-3.4314,-3.3218,-3.2699,-3.1756,-3.075,-3.0481,-3.0404,-3.0404,-3.0404,-3.0404,-3.0349,-3.0075,-2.9901,-2.9771,-2.9722,-2.9598,-2.9589,-2.9931,-3.0006,-2.9579,-2.817,-2.7857,-2.7253,-2.5515,-2.5053,-2.4949,-2.4949,-2.4862,-2.4849,-2.4986,-2.5004,-2.5082,-2.5274,-2.5308,-2.5308,-2.5308,-2.5308,-2.5308,-2.5308,-2.5308,-2.5308,-2.5308,-2.5308,-2.5308,-2.5308,-2.5308,-2.5308,-2.5308,-2.5308,-2.5224,-2.5094,-2.5028,-2.498,0.0,-2.2657,-2.3795,-2.2795,-2.2556,-2.2244,-2.1115,-1.9198,-1.7429,-1.6603,-1.6059,-1.5949,-1.6743,-1.7557,-1.8702,-2.0564,-2.139,0.0,0.0,0.0,0.0,0.0,0.0,0.0,0.0,0.0,0.0,0.0,0.0,0.0,0.0,-3.7477,-3.7352,-3.8021,-3.7403,-3.7131,-3.7293,-3.6633,-3.6025,-3.5504,-3.5769,-3.5608,-3.5105,-3.5376,0.0,0.0,0.0,0.0,0.0,-3.55,-3.55,-3.55,-3.55,-3.55,-3.55,-3.55,-3.55,-3.5442,-3.5115,-3.4083,-3.2852,-3.2545,-3.1519,-3.0404,-3.0404,-3.0404,-3.0404,-3.0404,-3.0404,-3.0361,-3.0196,-2.9988,-2.9813,-2.9813,-2.9652,-2.9607,-2.9931,-3.0006,-2.9579,-2.817,-2.7895,-2.7351,-2.5596,-2.5203,-2.5105,-2.5105,-2.5043,-2.5018,-2.5094,-2.5105,-2.5157,-2.5298,-2.5308,-2.5308,-2.5308,-2.5308,-2.5308,-2.5308,-2.5308,-2.5308,-2.5308,-2.5308,-2.5308,-2.5308,-2.5308,-2.5308,-2.5308,-2.5308,-2.5248,-2.5105,-2.5105,-2.5077,0.0,-2.0831,-2.15,-2.139,-2.1408,-2.1041,-1.9481,-1.7924,0.0,-1.5857,-1.5698,-1.5967,-1.6835,-1.7594,-1.8445,-1.9481,0.0,0.0,0.0,0.0,0.0,0.0,0.0,0.0,0.0,0.0,0.0,0.0,0.0,0.0,0.0,-3.6652,-3.6211,-3.6211,-3.6166,-3.6166,-3.6211,-3.6156,-3.5878,-3.541,-3.5675,-3.5551,-3.5105,-3.5376,0.0,0.0,0.0,0.0,0.0,-3.55,-3.55,-3.55,-3.55,-3.55,-3.55,-3.55,-3.5462,-3.5288,-3.4468,-3.3583,-3.2679,-3.1872,-3.1058,-3.0404,-3.0404,-3.0404,-3.0404,-3.0404,-3.0404,-3.0404,-3.0404,-3.0202,-3.0006,-3.0006,-2.9845,-2.9765,-2.9962,-3.0006,-2.9579,-2.817,-2.7895,-2.7351,-2.5596,-2.5308,-2.5308,-2.5308,-2.5308,-2.5308,-2.5308,-2.5308,-2.5308,-2.5308,-2.5308,-2.5308,-2.5308,-2.5308,-2.5308,-2.5308,-2.5308,-2.5308,-2.5308,-2.5308,-2.5308,-2.5308,-2.5308,-2.5308,-2.5308,-2.5308,-2.5308,-2.5308,-2.5308,-2.5203,-1.6334,0.0,-1.8665,-1.7443,-1.7601,-1.7961,0.0,-1.6695,-1.5931,-1.5735,0.0,-1.6133,-1.7557,-1.7961,-1.9198,0.0,0.0,0.0,0.0,0.0,0.0,0.0,0.0,0.0,0.0,0.0,0.0,0.0,0.0,0.0,0.0,-3.5771,-3.5316,-3.5316,-3.4905,-3.4899,-3.5298,-3.4706,-3.4421,-3.4516,-3.4841,-3.5012,-3.5105,-3.5376,0.0,0.0,0.0,0.0,-3.55,-3.55,-3.55,-3.55,-3.55,-3.55,-3.55,-3.55,-3.5084,-3.4468,-3.4263,-3.3218,-3.1833,-3.0981,-3.0577,-3.0404,-3.0404,-3.0404,-3.0404,-3.0404,-3.0404,-3.0404,-3.0404,-3.0202,-3.0006,-3.0006,-2.9845,-2.9765,-2.9962,-3.0006,-2.9579,-2.817,-2.7895,-2.7351,-2.5596,-2.5308,-2.5308,-2.5308,-2.5308,-2.5308,-2.5308,-2.5308,-2.5308,-2.5308,-2.5308,-2.5308,-2.5308,-2.5308,-2.5308,-2.5308,-2.5308,-2.5308,-2.5308,-2.5308,-2.5308,-2.5308,-2.5308,-2.5308,-2.5308,-2.5308,-2.5308,-2.5308,-2.5308,-2.5269,-1.4266,-1.6316,-1.7986,-1.7479,-1.7399,-1.744,-1.744,0.0,0.0,0.0,0.0,-1.6188,-1.7803,0.0,0.0,0.0,0.0,0.0,0.0,0.0,0.0,0.0,0.0,0.0,0.0,0.0,0.0,0.0,0.0,0.0,0.0,-3.5008,-3.462,-3.462,-3.4507,-3.45,-3.462,-3.434,-3.4353,-3.4626,-3.4803,-3.5016,-3.5289,-3.5432,-3.55,0.0,0.0,0.0,-3.55,-3.55,-3.55,-3.5462,-3.5064,-3.5154,-3.5404,-3.4596,-3.4257,-3.4148,-3.3744,-3.2776,-3.1564,-3.0673,-3.0404,-3.0404,-3.0404,-3.0404,-3.0404,-3.0404,-3.0404,-3.0404,-3.0404,-3.0299,-3.0189,-3.0189,-3.0095,-3.0052,-3.0169,-3.0189,-2.9736,-2.8201,-2.7895,-2.7351,-2.5596,-2.5308,-2.5308,-2.5308,-2.5308,-2.5308,-2.5308,-2.5308,-2.5308,-2.5308,-2.5308,-2.5308,-2.5308,-2.5308,-2.5308,-2.5308,-2.5308,-2.5308,-2.5308,-2.5308,-2.5308,-2.5308,-2.5308,-2.5308,-2.5308,-2.5308,-2.5308,-2.5308,-2.5308,-2.5308,-1.3353,-1.5845,-1.8207,-1.8636,-1.8427,-1.8071,-1.7942,0.0,0.0,0.0,0.0,0.0,0.0,0.0,0.0,0.0,0.0,0.0,0.0,0.0,0.0,0.0,0.0,0.0,0.0,0.0,0.0,0.0,0.0,0.0,0.0,-3.4501,-3.4288,-3.4288,-3.4593,-3.4624,-3.4338,-3.4582,-3.4822,-3.5105,-3.5105,-3.5231,-3.55,-3.55,-3.55,-3.55,0.0,0.0,-3.55,-3.55,-3.55,-3.5423,-3.468,-3.4776,-3.5115,-3.3641,-3.3391,-3.3686,-3.2814,-3.2064,-3.1385,-3.0635,-3.0404,-3.0404,-3.0404,-3.0404,-3.0404,-3.0404,-3.0404,-3.0404,-3.0404,-3.0404,-3.0404,-3.0404,-3.0404,-3.0404,-3.0404,-3.0404,-2.9942,-2.8371,-2.7992,-2.739,-2.5788,-2.5385,-2.5308,-2.5308,-2.5308,-2.5308,-2.5308,-2.5308,-2.5308,-2.5308,-2.5308,-2.5308,-2.5308,-2.5308,-2.5308,-2.5308,-2.5308,-2.5308,-2.5308,-2.5308,-2.5308,-2.5308,-2.5308,-2.5308,-2.5308,-2.5308,-2.5308,-2.5308,-2.5308,-2.5308,-1.456,-1.6683,-1.7803,-1.6561,-1.7179,-1.7924,-1.7238,0.0,0.0,0.0,0.0,0.0,0.0,0.0,0.0,0.0,0.0,0.0,0.0,0.0,0.0,0.0,0.0,0.0,0.0,0.0,0.0,0.0,0.0,0.0,0.0,-3.4509,-3.4614,-3.4614,-3.4889,-3.5008,-3.4953,-3.4784,-3.4822,-3.5105,-3.5105,-3.5231,-3.55,-3.55,-3.55,-3.55,0.0,-3.55,-3.55,-3.55,-3.55,-3.5481,-3.5346,-3.493,-3.4379,-3.4109,-3.3179,-3.1968,-3.1096,-3.0692,-3.0577,-3.0442,-3.0404,-3.0404,-3.0404,-3.0404,-3.0404,-3.0404,-3.0404,-3.0404,-3.0404,-3.0404,-3.0404,-3.0404,-3.0404,-3.0404,-3.0404,-3.0404,-3.0115,-2.9107,-2.8376,-2.7582,-2.6563,-2.5788,-2.5308,-2.5308,-2.5308,-2.5308,-2.5308,-2.5308,-2.5308,-2.5308,-2.5308,-2.5308,-2.5308,-2.5308,-2.5308,-2.5308,-2.5308,-2.5308,-2.5308,-2.5308,-2.5308,-2.5308,-2.5308,-2.5308,-2.5308,-2.5308,-2.5308,-2.5308,-2.5308,-2.5308,-1.3128,-1.5252,-1.683,-1.6958,-1.8555,-2.0005,-1.9638,0.0,0.0,0.0,0.0,0.0,0.0,0.0,0.0,0.0,0.0,0.0,0.0,0.0,0.0,0.0,0.0,0.0,0.0,0.0,0.0,0.0,0.0,0.0,0.0,0.0,-3.4917,-3.4917,-3.5182,-3.5312,-3.5312,-3.5198,-3.5198,-3.5312,-3.5312,-3.5376,-3.55,-3.55,-3.55,-3.55,0.0,-3.55,-3.55,-3.55,-3.5212,-3.4757,-3.4276,-3.3853,-3.343,-3.3006,-3.2064,-3.0942,-3.0538,-3.0404,-3.0404,-3.0404,-3.0404,-3.0404,-3.0404,-3.0404,-3.0404,-3.0404,-3.0404,-3.0404,-3.0404,-3.0404,-3.0404,-3.0404,-3.0404,-3.0404,-3.0404,-3.0404,-3.0,-2.8703,-2.8145,-2.7467,-2.6135,-2.5577,-2.5308,-2.5308,-2.5308,-2.5308,-2.5308,-2.5308,-2.5308,-2.5308,-2.5308,-2.5308,-2.5308,-2.5308,-2.5308,-2.5308,-2.5308,-2.5308,-2.5308,-2.5308,-2.5308,-2.5308,-2.5308,-2.5308,-2.5308,-2.5308,-2.5308,-2.5308,-2.5308,-2.5308,-1.2113,-1.4004,-1.5931,-1.8126,-2.0097,-2.161,-2.1996,-2.0949,0.0,0.0,0.0,0.0,0.0,0.0,0.0,0.0,0.0,0.0,0.0,0.0,0.0,0.0,0.0,0.0,0.0,0.0,0.0,0.0,0.0,0.0,0.0,0.0,-3.5198,-3.5198,-3.5383,-3.5404,-3.5192,-3.5404,-3.55,-3.55,-3.5288,-3.5192,-3.5192,-3.4981,-3.4885,-3.4885,-3.4885,-3.4885,-3.4885,-3.4885,-3.4507,-3.384,-3.316,-3.2776,-3.2526,-3.1698,-3.0962,-3.0404,-3.0404,-3.0408,-3.0411,-3.0416,-3.0408,-3.0411,-3.0396,-3.0404,-3.0404,-3.0404,-3.0404,-3.0404,-3.0404,-3.0404,-3.0404,-3.0404,-3.0404,-3.0404,-3.0404,-3.0404,-2.9962,-2.8467,-2.803,-2.7409,-2.5865,-2.5442,-2.5308,-2.5308,-2.5308,-2.5308,-2.5308,-2.5308,-2.5308,-2.5308,-2.5308,-2.5308,-2.5308,-2.5308,-2.5308,-2.5308,-2.5308,-2.5308,-2.5308,-2.5308,-2.5308,-2.5308,-2.5308,-2.5308,-2.5308,-2.5308,-2.5308,-2.5308,-2.5308,-2.5303,-1.3484,-1.4457,-1.5502,-1.9373,-2.0456,-2.1006,-2.2566,-2.2244,0.0,-2.3529,0.0,0.0,0.0,0.0,0.0,0.0,0.0,0.0,0.0,0.0,0.0,0.0,0.0,0.0,0.0,0.0,0.0,0.0,0.0,0.0,0.0,0.0,0.0,-3.546,-3.5493,-3.5122,-3.4302,-3.5103,-3.55,-3.5481,-3.468,-3.4302,-3.4263,-3.3468,-3.3083,-3.3083,-3.3083,-3.3083,-3.3083,-3.3083,-3.3045,-3.2987,-3.291,-3.2449,-3.1679,-3.0808,-3.0442,-3.0404,-3.0404,-3.0441,-3.0486,-3.0411,-3.0441,-3.0486,-3.0431,-3.0404,-3.0404,-3.0404,-3.0404,-3.0404,-3.0404,-3.0404,-3.0404,-3.0404,-3.0404,-3.0404,-3.0404,-3.0404,-3.0135,-2.9184,-2.8415,-2.7601,-2.6678,-2.5846,-2.5308,-2.5308,-2.5308,-2.5308,-2.5308,-2.5308,-2.5308,-2.5308,-2.5308,-2.5308,-2.5308,-2.5308,-2.5308,-2.5308,-2.5308,-2.5308,-2.5308,-2.5308,-2.5308,-2.5308,-2.5308,-2.5308,-2.5308,-2.5308,-2.5308,-2.5308,-2.5308,-2.533,-1.2407,-1.4095,-1.5967,-1.8996,-2.0537,0.0,0.0,-2.3906,-2.4346,-2.5456,-2.5933,0.0,0.0,0.0,0.0,0.0,0.0,0.0,0.0,0.0,0.0,0.0,0.0,0.0,0.0,0.0,0.0,0.0,0.0,0.0,0.0,0.0,0.0,-3.3891,-3.3891,-3.3718,-3.3391,-3.3718,-3.3891,-3.3891,-3.4103,-3.3917,-3.3372,-3.3045,-3.2891,-3.2891,-3.2891,-3.2891,-3.2891,-3.2891,-3.2602,-3.2102,-3.1558,-3.1154,-3.0846,-3.0519,-3.0404,-3.0416,-3.0456,-3.0482,-3.0503,-3.0528,-3.0545,-3.0559,-3.0486,-3.0467,-3.0447,-3.0414,-3.0404,-3.0404,-3.0404,-3.0404,-3.0404,-3.0404,-3.0404,-3.0404,-3.0404,-3.0404,-2.9981,-2.8621,-2.8107,-2.7448,-2.6038,-2.5519,-2.5308,-2.5308,-2.5308,-2.5308,-2.5308,-2.5308,-2.5308,-2.5308,-2.5308,-2.5308,-2.5308,-2.5308,-2.5308,-2.5308,-2.5308,-2.5308,-2.5308,-2.5308,-2.5308,-2.5308,-2.5308,-2.5308,-2.5308,-2.5333,-2.5367,-2.5363,-2.539,-2.5438,-1.2118,-1.4064,-1.6286,-1.8691,0.0,0.0,-2.4144,-2.5007,-2.5778,-2.709,0.0,0.0,0.0,0.0,0.0,0.0,0.0,0.0,0.0,0.0,0.0,0.0,0.0,0.0,0.0,0.0,0.0,0.0,0.0,0.0,0.0,0.0,0.0,0.0,-3.2891,-3.2776,-3.2526,-3.2776,-3.2622,-3.2122,-3.2987,-3.3103,-3.2506,-3.2237,-3.2122,-3.2122,-3.2122,-3.2122,-3.2122,-3.2122,-3.1795,-3.1231,-3.0635,-3.0404,-3.0404,-3.0404,-3.0414,-3.0436,-3.0472,-3.0529,-3.0565,-3.0594,-3.06,-3.0628,-3.0544,-3.0533,-3.0528,-3.0462,-3.0439,-3.0428,-3.0416,-3.0404,-3.0404,-3.0404,-3.0404,-3.0404,-3.0404,-3.0173,-2.9583,-2.8159,-2.7678,-2.7024,-2.5558,-2.5308,-2.5308,-2.5308,-2.5308,-2.5308,-2.5308,-2.5308,-2.5308,-2.5308,-2.5308,-2.5308,-2.5308,-2.5308,-2.5308,-2.5308,-2.5308,-2.5308,-2.5308,-2.5308,-2.5308,-2.5308,-2.5308,-2.5308,-2.5308,-2.5379,-2.5406,-2.5402,-2.5477,-2.5503,-1.3078,-1.4492,-1.6304,0.0,0.0,0.0,-2.486,-2.5411,-2.6109,-2.851,0.0,0.0,0.0,0.0,0.0,0.0,0.0,0.0,0.0,0.0,0.0,0.0,0.0,0.0,0.0,0.0,0.0,0.0,0.0,0.0,0.0,0.0,0.0,0.0,-3.2872,-3.2487,-3.1698,-3.2487,-3.2045,-3.0404,-3.1269,-3.1698,-3.166,-3.0788,-3.0404,-3.0404,-3.0404,-3.0404,-3.0404,-3.0404,-3.0404,-3.0404,-3.0404,-3.0404,-3.0404,-3.0404,-3.0441,-3.0498,-3.0503,-3.0594,-3.0689,-3.0611,-3.0655,-3.0687,-3.0628,-3.0606,-3.0587,-3.0513,-3.0503,-3.0472,-3.0425,-3.0404,-3.0404,-3.0404,-3.0404,-3.0404,-3.0404,-2.9717,-2.8857,-2.8068,-2.7198,-2.6327,-2.5442,-2.5308,-2.5308,-2.5308,-2.5308,-2.5308,-2.5308,-2.5308,-2.5308,-2.5308,-2.5308,-2.5308,-2.5308,-2.5308,-2.5308,-2.5308,-2.5308,-2.5308,-2.5308,-2.5308,-2.5308,-2.5308,-2.5308,-2.5308,-2.5308,-2.5379,-2.5409,-2.5402,-2.5477,-2.5543,-1.3248,-1.5405,0.0,0.0,0.0,0.0,0.0,-2.6667,0.0,0.0,0.0,0.0,0.0,0.0,0.0,0.0,0.0,0.0,0.0,0.0,0.0,0.0,0.0,0.0,0.0,0.0,0.0,0.0,0.0,0.0,0.0,0.0,0.0,0.0,-3.1135,-3.1019,-3.0788,-3.1019,-3.0885,-3.0404,-3.0654,-3.0788,-3.0788,-3.0519,-3.0404,-3.0404,-3.0404,-3.0404,-3.0404,-3.0404,-3.0404,-3.0404,-3.0404,-3.0404,-3.0404,-3.0404,-3.0441,-3.0511,-3.0544,-3.0636,-3.0717,-3.0787,-3.0814,-3.0816,-3.0708,-3.0675,-3.0663,-3.0594,-3.0541,-3.0494,-3.0472,-3.0449,-3.0404,-3.0404,-3.0404,-3.0404,-3.0404,-2.9717,-2.8857,-2.8068,-2.7198,-2.6327,-2.5442,-2.5308,-2.5308,-2.5308,-2.5308,-2.5308,-2.5308,-2.5308,-2.5308,-2.5308,-2.5308,-2.5308,-2.5308,-2.5308,-2.5308,-2.5308,-2.5308,-2.5308,-2.5308,-2.5308,-2.5308,-2.5308,-2.5308,-2.5317,-2.5364,-2.5441,-2.5486,-2.5545,-2.5605,-2.5658,-1.5053,0.0,0.0,0.0,0.0,0.0,0.0,0.0,0.0,0.0,0.0,0.0,0.0,0.0,0.0,0.0,0.0,0.0,0.0,0.0,0.0,0.0,0.0,0.0,0.0,0.0,0.0,0.0,0.0,0.0,0.0,0.0,0.0,0.0,-3.0404,-3.0404,-3.0404,-3.0404,-3.0404,-3.0404,-3.0404,-3.0404,-3.0404,-3.0404,-3.0404,-3.0404,-3.0404,-3.0404,-3.0404,-3.0404,-3.0404,-3.0404,-3.0404,-3.0404,-3.0404,-3.0404,-3.0457,-3.0552,-3.0587,-3.0687,-3.0793,-3.0878,-3.0898,-3.0879,-3.0794,-3.0771,-3.0766,-3.0665,-3.0597,-3.0533,-3.0511,-3.0442,-3.0404,-3.0404,-3.0404,-3.0404,-3.0404,-2.9467,-2.8472,-2.7992,-2.6928,-2.5923,-2.5385,-2.5308,-2.5308,-2.5308,-2.5308,-2.5308,-2.5308,-2.5308,-2.5308,-2.5308,-2.5308,-2.5308,-2.5308,-2.5308,-2.5308,-2.5308,-2.5308,-2.5308,-2.5308,-2.5308,-2.5308,-2.5308,-2.5308,-2.5335,-2.5394,-2.5477,-2.5522,-2.5602,-2.5662,-2.5703,-1.7552,0.0,0.0,0.0,0.0,0.0,0.0,0.0,0.0,0.0,0.0,0.0,0.0,0.0,0.0,0.0,0.0,0.0,0.0,0.0,0.0,0.0,0.0,0.0,0.0,0.0,0.0,0.0,0.0,0.0,0.0,0.0,0.0,-3.0404,-3.0404,-3.0404,-3.0404,-3.0404,-3.0404,-3.0404,-3.0404,-3.0404,-3.0404,-3.0404,-3.0404,-3.0404,-3.0404,-3.0404,-3.0404,-3.0404,-3.0404,-3.0404,-3.0404,-3.0404,-3.0404,-3.0404,-3.0477,-3.0594,-3.06,-3.0721,-3.0879,-3.0898,-3.0898,-3.0898,-3.0898,-3.0898,-3.0878,-3.0744,-3.0659,-3.0584,-3.0528,-3.0442,-3.0385,-3.0308,-3.0346,-3.0385,-3.0308,-2.9025,-2.7876,-2.7799,-2.6447,-2.5308,-2.5308,-2.5308,-2.5308,-2.5308,-2.5308,-2.5308,-2.5308,-2.5308,-2.5308,-2.5308,-2.5308,-2.5308,-2.5308,-2.5308,-2.5308,-2.5308,-2.5308,-2.5308,-2.5308,-2.5308,-2.5308,-2.5308,-2.5317,-2.5333,-2.5404,-2.5488,-2.5547,-2.5606,-2.5662,-2.5703,0.0,0.0,0.0,0.0,0.0,0.0,0.0,0.0,0.0,0.0,0.0,0.0,0.0,0.0,0.0,0.0,0.0,0.0,0.0,0.0,0.0,0.0,0.0,0.0,0.0,0.0,0.0,0.0,0.0,0.0,0.0,0.0,0.0,-3.0404,-3.0404,-3.0404,-3.0404,-3.0404,-3.0404,0.0,-3.0404,-3.0404,-3.0404,-3.0404,-3.0404,-3.0404,-3.0404,-3.0404,-3.0404,-3.0404,-3.0404,-3.0404,-3.0404,-3.0404,-3.0404,-3.0404,-3.0442,-3.0529,-3.0581,-3.0659,-3.0768,-3.0878,-3.0898,-3.0898,-3.0898,-3.0898,-3.0878,-3.0744,-3.0659,-3.0584,-3.0528,-3.0442,-3.0231,-2.9544,-2.991,-3.0212,-2.9525,-2.8607,-2.7698,-2.7005,-2.6019,-2.5308,-2.5308,-2.5308,-2.5308,-2.5308,-2.5308,-2.5308,-2.5308,-2.5308,-2.5308,-2.5308,-2.5308,-2.5308,-2.5308,-2.5308,-2.5308,-2.5308,-2.5308,-2.5308,-2.5308,-2.5308,-2.5308,-2.5308,-2.535,-2.5408,-2.549,-2.5549,-2.5607,-2.5683,-2.5683,-2.5703,0.0,0.0,0.0,0.0,0.0,0.0,0.0,0.0,0.0,0.0,0.0,0.0,0.0,0.0,0.0,0.0,0.0,0.0,0.0,0.0,0.0,0.0,0.0,0.0,0.0,0.0,0.0,0.0,0.0,0.0,0.0,-3.0404,-3.0404,-3.0404,-3.0,-2.9775,-2.9775,-2.9775,-2.9775,-2.9775,-2.9775,-2.9583,-2.9236,-3.0038,-3.0404,-3.0404,-3.0404,-3.0404,-3.0404,-3.0404,-3.0404,-3.0404,-3.0404,-3.0404,-3.0404,-3.0404,-3.0441,-3.0507,-3.0545,-3.06,-3.0669,-3.0768,-3.0794,-3.0816,-3.0879,-3.0898,-3.0801,-3.0307,-3.0384,-3.0408,-2.9602,-2.9613,-2.9626,-2.8814,-2.9206,-2.9544,-2.8703,-2.7871,-2.714,-2.6697,-2.5904,-2.5308,-2.5308,-2.5308,-2.5308,-2.5348,-2.5327,-2.5308,-2.5348,-2.5322,-2.5308,-2.5308,-2.5308,-2.5308,-2.5308,-2.5326,-2.5335,-2.5288,-2.533,-2.5342,-2.5342,-2.5357,-2.5357,-2.5342,-2.5379,-2.5453,-2.5551,-2.5573,-2.5634,-2.5703,-2.5703,-2.5703,0.0,0.0,0.0,0.0,0.0,0.0,0.0,0.0,0.0,0.0,0.0,0.0,0.0,0.0,0.0,0.0,0.0,0.0,0.0,0.0,0.0,0.0,0.0,0.0,0.0,0.0,0.0,0.0,0.0,0.0,-3.0173,-3.0038,-2.9962,-2.9962,-2.9275,-2.8896,-2.8896,-2.8896,-2.8896,-2.8896,-2.8896,-2.8549,-2.7953,-2.9352,-3.0038,-3.0173,-3.0327,-3.0404,-3.0404,-3.0404,-3.0404,-3.0404,-3.0404,-3.0404,-3.0404,-3.0404,-3.0444,-3.0472,-3.0494,-3.0541,-3.06,-3.0679,-3.0617,-3.0526,-3.0643,-3.0566,-3.0293,-2.957,-2.9757,-2.9871,-2.8523,-2.8588,-2.8819,-2.8058,-2.8295,-2.8516,-2.7841,-2.7147,-2.6588,-2.6434,-2.5818,-2.5322,-2.5322,-2.5303,-2.5322,-2.5379,-2.5335,-2.5312,-2.5387,-2.5346,-2.5312,-2.533,-2.5335,-2.5335,-2.5335,-2.5387,-2.5398,-2.5339,-2.5391,-2.5417,-2.5415,-2.5413,-2.5417,-2.5438,-2.5431,-2.5495,-2.5602,-2.5606,-2.5657,-2.5703,-2.5703,-2.5703,0.0,0.0,0.0,0.0,0.0,0.0,0.0,0.0,0.0,0.0,0.0,0.0,0.0,0.0,0.0,0.0,0.0,0.0,0.0,0.0,0.0,0.0,0.0,0.0,0.0,0.0,0.0,0.0,0.0,0.0,-2.928,-2.8602,-2.8236,-2.8236,-2.8126,-2.8068,-2.8068,-2.8068,-2.8068,-2.8068,-2.8068,-2.8011,-2.7915,-2.8121,-2.8602,-2.9319,-3.0077,-3.0404,-3.0404,-3.0404,-3.0404,-3.0404,-3.0404,-3.0404,-3.0404,-3.0404,-3.0416,-3.0417,-3.0482,-3.0511,-3.0537,-3.0667,-3.0226,-2.9666,-2.9745,-2.9258,-2.8613,-2.8443,-2.8447,-2.8468,-2.8184,-2.8173,-2.8022,-2.7182,-2.7034,-2.7077,-2.6961,-2.6867,-2.6559,-2.579,-2.5518,-2.5379,-2.5387,-2.5344,-2.5293,-2.5308,-2.5317,-2.5317,-2.5395,-2.5398,-2.5404,-2.5477,-2.5463,-2.5463,-2.5463,-2.5473,-2.5473,-2.5463,-2.5421,-2.5421,-2.5476,-2.5425,-2.5456,-2.5566,-2.5567,-2.5572,-2.5602,-2.566,-2.5683,-2.5703,-2.5703,-2.5703,0.0,0.0,0.0,0.0,0.0,0.0,0.0,0.0,0.0,0.0,0.0,0.0,0.0,0.0,0.0,0.0,0.0,0.0,0.0,0.0,0.0,0.0,0.0,0.0,0.0,0.0,0.0,0.0,0.0,-2.8434,-2.8434,-2.8088,-2.7895,-2.7895,-2.7428,-2.7178,-2.7178,-2.7178,-2.7178,-2.7178,-2.7178,-2.6928,-2.6467,-2.6948,-2.7621,-2.8453,-2.8832,-2.9006,-2.9006,-2.9006,-2.9006,-2.9006,-2.9006,-2.9006,-2.9044,-2.9506,-2.9679,-2.9748,-3.0251,-3.0477,-3.0451,-3.0033,-2.9735,-2.9412,-2.9003,-2.8594,-2.8183,-2.7672,-2.7856,-2.7978,-2.7004,-2.7085,-2.7227,-2.6377,-2.6188,-2.6188,-2.6188,-2.6114,-2.5953,-2.5569,-2.5485,-2.5462,-2.5465,-2.5431,-2.5404,-2.5404,-2.5404,-2.5418,-2.5459,-2.5465,-2.5477,-2.5508,-2.5491,-2.5491,-2.5491,-2.5522,-2.5545,-2.5493,-2.5515,-2.5531,-2.5556,-2.5533,-2.5556,-2.5659,-2.5629,-2.5629,-2.566,-2.5683,-2.5703,-2.5703,-2.5703,-2.5703,0.0,0.0,0.0,0.0,0.0,0.0,0.0,0.0,0.0,0.0,0.0,0.0,0.0,0.0,0.0,0.0,0.0,0.0,0.0,0.0,0.0,0.0,0.0,0.0,0.0,0.0,0.0,0.0,0.0,-2.7563,-2.7563,-2.7351,-2.7236,-2.7236,-2.6621,-2.6269,-2.6269,-2.6269,-2.6269,-2.6269,-2.6269,-2.5923,-2.5327,-2.5962,-2.6621,-2.7255,-2.7703,-2.7895,-2.7895,-2.7895,-2.7895,-2.7895,-2.7895,-2.7895,-2.7972,-2.8569,-2.88,-2.8896,-2.9544,-2.9809,-2.9775,-2.9188,-2.8914,-2.8728,-2.8143,-2.7812,-2.75,-2.6855,-2.7105,-2.7272,-2.6015,-2.6148,-2.6433,-2.5839,-2.5703,-2.5703,-2.5703,-2.561,-2.5552,-2.5552,-2.5543,-2.5533,-2.5533,-2.5503,-2.5491,-2.5491,-2.5491,-2.5517,-2.5511,-2.5533,-2.5539,-2.5551,-2.5552,-2.5552,-2.5552,-2.5599,-2.5603,-2.5554,-2.5572,-2.5605,-2.5611,-2.5605,-2.5633,-2.5703,-2.5658,-2.5658,-2.5703,-2.5703,-2.5703,-2.5703,-2.5703,-2.5703,0.0,0.0,0.0,0.0,0.0,0.0,0.0,0.0,0.0,0.0,0.0,0.0,0.0,0.0,0.0,0.0,0.0,0.0,0.0,0.0,0.0,0.0,0.0,0.0,0.0,0.0,0.0,0.0,0.0,-2.6678,-2.6678,-2.5885,-2.5442,-2.5442,-2.5385,-2.5365,-2.5365,-2.5365,-2.5365,-2.5365,-2.5365,-2.5346,-2.5308,-2.5346,-2.5385,-2.5538,-2.7178,-2.7895,-2.7895,-2.7895,-2.7895,-2.7895,-2.7895,-2.7895,-2.7915,-2.7953,-2.7953,-2.7972,-2.8011,-2.8068,-2.8121,-2.8161,-2.7645,-2.7046,-2.7069,-2.6484,-2.582,-2.5781,-2.5801,-2.5801,-2.5723,-2.5723,-2.5742,-2.5703,-2.5703,-2.5703,-2.5703,-2.5683,-2.5683,-2.5683,-2.5636,-2.5599,-2.5599,-2.5547,-2.5491,-2.5491,-2.5491,-2.5511,-2.5594,-2.5599,-2.5629,-2.5683,-2.5683,-2.5683,-2.5683,-2.5683,-2.5683,-2.5683,-2.5634,-2.5633,-2.5683,-2.5634,-2.5633,-2.5703,-2.5703,-2.5703,-2.5703,-2.5703,-2.5703,-2.5703,-2.5703,-2.5703,0.0,0.0,0.0,0.0,0.0,0.0,0.0,0.0,0.0,0.0,0.0,0.0,0.0,0.0,0.0,0.0,0.0,0.0,0.0,0.0,0.0,0.0,0.0,0.0,0.0,0.0,0.0,0.0,0.0,0.0,-2.5769,-2.5462,-2.5308,-2.5308,-2.5308,-2.5308,-2.5308,-2.5308,-2.5308,-2.5308,-2.5308,-2.5308,-2.5308,-2.5308,-2.5308,-2.5327,-2.5962,-2.6231,-2.6231,-2.6231,-2.6231,-2.6231,-2.6231,-2.6231,-2.6288,-2.6851,-2.7063,-2.715,-2.775,-2.8005,-2.7983,-2.7485,-2.7163,-2.6852,-2.6328,-2.5957,-2.5703,-2.5703,-2.5703,-2.5703,-2.5703,-2.5703,-2.5703,-2.5703,-2.5703,-2.5703,-2.5703,-2.5703,-2.5703,-2.5703,-2.5683,-2.5661,-2.5661,-2.5637,-2.5607,-2.5566,-2.5602,-2.561,-2.5603,-2.5635,-2.5662,-2.5703,-2.5703,-2.5703,-2.5703,-2.5703,-2.5703,-2.5703,-2.5682,-2.5662,-2.5703,-2.5682,-2.5682,-2.5703,-2.5703,-2.5703,-2.5703,-2.5703,-2.5703,-2.5703,-2.5703,-2.5703,0.0,0.0,0.0,0.0,0.0,0.0,0.0,0.0,0.0,0.0,0.0,0.0,0.0,0.0,0.0,0.0,0.0,0.0,0.0,0.0,0.0,0.0,0.0,0.0,0.0,0.0,0.0,0.0,0.0,0.0,-2.5308,-2.5308,-2.5308,-2.5308,-2.5308,-2.5308,-2.5308,-2.5308,-2.5308,-2.5308,-2.5308,-2.5308,-2.5308,-2.5308,-2.5308,-2.5308,-2.5308,-2.5308,-2.5308,-2.5308,-2.5308,-2.5308,-2.5308,-2.5308,-2.5365,-2.5942,-2.6154,-2.6251,-2.6906,-2.7168,-2.7133,-2.6638,-2.6515,-2.6465,-2.5879,-2.5703,-2.5703,-2.5703,-2.5703,-2.5703,-2.5703,-2.5703,-2.5703,-2.5703,-2.5703,-2.5703,-2.5703,-2.5703,-2.5703,-2.5703,-2.5703,-2.5703,-2.5703,-2.5703,-2.5683,-2.5636,-2.5662,-2.5683,-2.5636,-2.5662,-2.5703,-2.5703,-2.5703,-2.5703,-2.5703,-2.5703,-2.5703,-2.5703,-2.5703,-2.5703,-2.5703,-2.5703,-2.5703,-2.5703,-2.5703,-2.5703,-2.5703,-2.5703,-2.5703,-2.5703,-2.5703,-2.5703,0.0,0.0,0.0,0.0,0.0,0.0,0.0,0.0,0.0,0.0,0.0,0.0,0.0,0.0,0.0,0.0,0.0,0.0,0.0,0.0,0.0,0.0,0.0,0.0,0.0,0.0,0.0,0.0,0.0,-2.5308,-2.5308,-2.5308,-2.5308,-2.5308,-2.5308,-2.5308,-2.5308,-2.5308,-2.5308,-2.5308,-2.5308,-2.5308,-2.5308,-2.5308,-2.5308,-2.5308,-2.5308,-2.5308,-2.5308,-2.5308,-2.5308,-2.5308,-2.5308,-2.5308,-2.5308,-2.5308,-2.5308,-2.5313,-2.5387,-2.5447,-2.5505,-2.5572,-2.5657,-2.5703,-2.5703,-2.5703,-2.5703,-2.5703,-2.5703,-2.5703,-2.5703,-2.5703,-2.5703,-2.5703,-2.5703,-2.5703,-2.5703,-2.5703,-2.5703,-2.5703,-2.5703,-2.5703,-2.5703,-2.5703,-2.5703,-2.5703,-2.5703,-2.5703,-2.5703,-2.5703,-2.5703,-2.5703,-2.5703,-2.5703,-2.5703,-2.5703,-2.5703,-2.5703,-2.5703,-2.5703,-2.5703,-2.5703,-2.5703,-2.5703,-2.5703,-2.5703,-2.5703,-2.5703,-2.5703,-2.5703,-2.5703,-2.5703,-1.0249,0.0,0.0,0.0,0.0,0.0,0.0,0.0,0.0,0.0,0.0,0.0,0.0,0.0,0.0,0.0,0.0,0.0,0.0,0.0,0.0,0.0,0.0,0.0,0.0,0.0,0.0,0.0,-2.5308,-2.5308,-2.5308,-2.5308,-2.5308,-2.5308,-2.5308,-2.5308,-2.5308,-2.5308,-2.5308,-2.5308,-2.5308,-2.5308,-2.5308,-2.5308,-2.5308,-2.5308,-2.5308,-2.5308,-2.5308,-2.5308,-2.5308,-2.5308,-2.5308,-2.5308,-2.5308,-2.5308,-2.533,-2.5379,-2.5453,-2.5524,-2.5573,-2.5658,-2.5683,-2.5703,-2.5703,-2.5703,-2.5703,-2.5703,-2.5703,-2.5703,-2.5703,-2.5703,-2.5703,-2.5703,-2.5703,-2.5703,-2.5703,-2.5703,-2.5703,-2.5703,-2.5703,-2.5703,-2.5703,-2.5703,-2.5703,-2.5703,-2.5703,-2.5703,-2.5703,-2.5703,-2.5703,-2.5703,-2.5703,-2.5703,-2.5703,-2.5703,-2.5703,-2.5703,-2.5703,-2.5703,-2.5703,-2.5703,-2.5703,-2.5703,-2.5703,-2.5703,-2.5703,-2.5703,-2.5703,-2.5703,-2.5703,-2.5703,0.0,0.0,0.0,0.0,0.0,0.0,0.0,0.0,0.0,0.0,0.0,0.0,0.0,0.0,0.0,0.0,0.0,0.0,0.0,0.0,0.0,0.0,0.0,0.0,0.0,0.0,0.0,-2.5308,-2.5308,-2.5308,-2.5308,-2.5308,-2.5308,-2.5308,-2.5308,-2.5308,-2.5308,-2.5308,-2.5308,-2.5308,-2.5308,-2.5308,-2.5308,-2.5308,-2.5308,-2.5308,-2.5308,-2.5308,-2.5308,-2.5308,-2.5308,-2.5308,-2.5308,-2.5308,-2.5308,-2.5308,-2.5333,-2.5404,-2.5488,-2.5547,-2.5606,-2.5682,-2.5703,-2.5703,-2.5703,-2.5703,-2.5703,-2.5703,-2.5703,-2.5703,-2.5703,-2.5703,-2.5703,-2.5703,-2.5703,-2.5703,-2.5703,-2.5703,-2.5703,-2.5703,-2.5703,-2.5703,-2.5703,-2.5703,-2.5703,-2.5703,-2.5703,-2.5703,-2.5703,-2.5703,-2.5703,-2.5703,-2.5703,-2.5703,-2.5703,-2.5703,-2.5703,-2.5703,-2.5703,-2.5703,-2.5703,-2.5703,-2.5703,-2.5703,-2.5703,-2.5703,-2.5703,-2.5703,-2.5703,-2.5703,-2.5703,-2.5703,-1.4091,-1.4187,0.0,0.0,0.0,0.0,-1.666,-1.6195,0.0,0.0,0.0,0.0,0.0,0.0,0.0,0.0,0.0,0.0,0.0,0.0,0.0,0.0,0.0,0.0,0.0,-2.5308,-2.5308,-2.5308,-2.5308,-2.5308,-2.5308,-2.5308,-2.5308,-2.5308,-2.5308,-2.5308,-2.5308,-2.5308,-2.5308,-2.5308,-2.5308,-2.5308,-2.5308,-2.5308,-2.5308,-2.5308,-2.5308,-2.5308,-2.5308,-2.5308,-2.5308,-2.5308,-2.5308,-2.5308,-2.5308,-2.5303,-2.535,-2.5421,-2.5498,-2.5556,-2.561,-2.5683,-2.5703,-2.5703,-2.5703,-2.5703,-2.5703,-2.5703,-2.5703,-2.5703,-2.5703,-2.5703,-2.5703,-2.5703,-2.5703,-2.5703,-2.5703,-2.5703,-2.5703,-2.5703,-2.5703,-2.5703,-2.5703,-2.5703,-2.5703,-2.5703,-2.5703,-2.5703,-2.5703,-2.5703,-2.5703,-2.5703,-2.5703,-2.5703,-2.5703,-2.5703,-2.5703,-2.5703,-2.5703,-2.5703,-2.5703,-2.5703,-2.5703,-2.5703,-2.5703,-2.5703,-2.5703,-2.5703,-2.5703,-2.5703,-2.5703,-2.5703,-1.5308,-1.5923,-1.6542,0.0,0.0,0.0,0.0,-1.492,0.0,0.0,0.0,0.0,0.0,0.0,0.0,0.0,0.0,0.0,0.0,0.0,0.0,0.0,0.0,0.0,0.0,-2.5308,-2.5308,-2.5308,-2.5308,-2.5308,-2.5308,-2.5308,-2.5308,-2.5308,-2.5308,-2.5308,-2.5308,-2.5308,-2.5308,-2.5308,-2.5308,-2.5308,-2.5308,-2.5308,-2.5308,-2.5308,-2.5308,-2.5308,-2.5308,-2.5308,-2.5308,-2.5308,-2.5308,-2.5308,-2.5317,-2.5354,-2.5418,-2.5481,-2.5558,-2.5611,-2.5683,-2.5703,-2.5703,-2.5703,-2.5703,-2.5703,-2.5703,-2.5703,-2.5703,-2.5703,-2.5703,-2.5703,-2.5703,-2.5703,-2.5703,-2.5703,-2.5703,-2.5703,-2.5703,-2.5703,-2.5703,-2.5703,-2.5703,-2.5703,-2.5703,-2.5703,-2.5703,-2.5703,-2.5703,-2.5703,-2.5703,-2.5703,-2.5703,-2.5703,-2.5703,-2.5703,-2.5703,-2.5703,-2.5703,-2.5703,-2.5703,-2.5703,-2.5703,-2.5703,-2.5703,-2.5703,-2.5703,-2.5703,-2.5703,-2.5703,-2.5703,-2.5703,-1.7449,-1.7718,-1.8142,-1.7308,0.0,0.0,0.0,0.0,0.0,0.0,0.0,0.0,0.0,0.0,0.0,0.0,0.0,0.0,0.0,0.0,0.0,0.0,0.0,0.0,0.0,-2.4697,-2.487,-2.5269,-2.5308,-2.5308,-2.5308,-2.5308,-2.5308,-2.5308,-2.5308,-2.5308,-2.5308,-2.5308,-2.5308,-2.5308,-2.5308,-2.5308,-2.5308,-2.5308,-2.5308,-2.5308,-2.5308,-2.5308,-2.5308,-2.5308,-2.5308,-2.5308,-2.5308,-2.5308,-2.5303,-2.5379,-2.5441,-2.552,-2.5588,-2.5637,-2.5703,-2.5703,-2.5703,-2.5703,-2.5703,-2.5703,-2.5703,-2.5703,-2.5703,-2.5703,-2.5703,-2.5703,-2.5703,-2.5703,-2.5703,-2.5703,-2.5703,-2.5703,-2.5703,-2.5703,-2.5703,-2.5703,-2.5703,-2.5703,-2.5703,-2.5703,-2.5703,-2.5703,-2.5703,-2.5703,-2.5703,-2.5703,-2.5703,-2.5703,-2.5703,-2.5703,-2.5703,-2.5703,-2.5703,-2.5703,-2.5703,-2.5703,-2.5703,-2.5703,-2.5703,-2.5703,-2.5703,-2.5661,-2.5658,-2.5658,-2.5628,-2.5602,0.0,0.0,0.0,0.0,0.0,-1.8853,0.0,0.0,0.0,-1.8203,0.0,0.0,0.0,0.0,0.0,0.0,0.0,0.0,0.0,0.0,0.0,0.0,0.0,0.0,0.0,-2.3451,-2.3778,-2.475,-2.4654,-2.4721,-2.5076,-2.5226,-2.5317,-2.5322,-2.5317,-2.5308,-2.5308,-2.5308,-2.5308,-2.5308,-2.5308,-2.5317,-2.5322,-2.5317,-2.5303,-2.5327,-2.5317,-2.5308,-2.5308,-2.5308,-2.5308,-2.5308,-2.5308,-2.5308,-2.5303,-2.5383,-2.5444,-2.552,-2.5588,-2.5637,-2.5703,-2.5703,-2.5703,-2.5703,-2.5703,-2.5703,-2.5703,-2.5703,-2.5703,-2.5703,-2.5703,-2.5703,-2.5703,-2.5703,-2.5703,-2.5703,-2.5703,-2.5703,-2.5703,-2.5703,-2.5703,-2.5703,-2.5703,-2.5703,-2.5703,-2.5703,-2.5703,-2.5703,-2.5703,-2.5703,-2.5703,-2.5703,-2.5703,-2.5703,-2.5703,-2.5703,-2.5703,-2.5703,-2.5703,-2.5703,-2.5703,-2.5703,-2.5703,-2.5703,-2.5703,-2.5683,-2.5683,-2.5607,-2.5595,-2.5601,-2.5537,-2.5491,0.0,0.0,0.0,0.0,-2.1281,0.0,0.0,0.0,-1.9154,-1.7196,0.0,0.0,0.0,0.0,0.0,0.0,0.0,0.0,0.0,0.0,0.0,0.0,0.0,0.0,0.0,0.0,-2.1389,-2.297,-2.237,-2.2631,-2.4233,-2.4945,-2.5336,-2.5399,-2.5326,-2.5308,-2.5308,-2.5308,-2.5308,-2.5308,-2.5308,-2.5326,-2.5399,-2.5336,-2.5335,-2.5387,-2.534,-2.5308,-2.5308,-2.5308,-2.5308,-2.5308,-2.5308,-2.5308,-2.5303,-2.5372,-2.5447,-2.552,-2.5588,-2.5637,-2.5703,-2.5703,-2.5703,-2.5703,-2.5703,-2.5703,-2.5703,-2.5703,-2.5703,-2.5703,-2.5703,-2.5703,-2.5703,-2.5703,-2.5703,-2.5703,-2.5703,-2.5703,-2.5703,-2.5703,-2.5703,-2.5703,-2.5703,-2.5703,-2.5703,-2.5703,-2.5703,-2.5703,-2.5703,-2.5703,-2.5703,-2.5703,-2.5703,-2.5703,-2.5703,-2.5703,-2.5703,-2.5703,-2.5703,-2.5703,-2.5703,-2.5703,-2.5703,-2.5703,-2.5703,-2.5662,-2.5606,-2.5549,-2.5547,-2.5601,-2.5537,-2.5491,0.0,0.0,0.0,0.0,0.0,0.0,0.0,0.0,-1.8907,0.0,0.0,0.0,0.0,0.0,0.0,0.0,0.0,0.0,0.0,0.0,0.0,0.0,0.0,0.0,0.0,0.0,0.0,0.0,0.0,-2.14,-2.2685,-2.398,-2.4678,-2.4696,-2.5173,-2.5427,-2.5427,-2.5427,-2.5427,-2.5427,-2.5427,-2.5401,-2.5406,-2.5364,-2.535,-2.5348,-2.5313,-2.5308,-2.5308,-2.5308,-2.5308,-2.5293,-2.5333,-2.5335,-2.5313,-2.5415,-2.5488,-2.5524,-2.561,-2.5682,-2.5703,-2.5703,-2.5703,-2.5703,-2.5703,-2.5703,-2.5703,-2.5703,-2.5703,-2.5703,-2.5703,-2.5703,-2.5703,-2.5703,-2.5703,-2.5703,-2.5703,-2.5703,-2.5703,-2.5703,-2.5703,-2.5703,-2.5703,-2.5703,-2.5703,-2.5703,-2.5703,-2.5703,-2.5703,-2.5703,-2.5703,-2.5703,-2.5703,-2.5703,-2.5703,-2.5703,-2.5703,-2.5703,-2.5703,-2.5703,-2.5703,-2.5703,-2.5683,-2.5636,-2.5636,-2.5605,-2.5547,-2.5465,-2.5465,-2.5473,-2.5427,-2.5379,-2.3658,0.0,0.0,0.0,0.0,0.0,0.0,0.0,0.0,0.0,0.0,0.0,0.0,0.0,0.0,0.0,0.0,0.0,0.0,0.0,0.0,0.0,0.0,0.0,0.0,0.0,0.0,0.0,0.0,-1.9705,-2.1286,-2.2955,-2.399,-2.4222,-2.507,-2.5491,-2.5491,-2.5491,-2.5491,-2.5491,-2.5491,-2.5476,-2.5443,-2.5441,-2.5404,-2.5376,-2.5363,-2.535,-2.535,-2.535,-2.535,-2.5359,-2.5401,-2.5406,-2.5371,-2.5451,-2.5503,-2.5545,-2.5636,-2.5683,-2.5703,-2.5703,-2.5703,-2.5703,-2.5703,-2.5703,-2.5703,-2.5703,-2.5703,-2.5703,-2.5703,-2.5703,-2.5703,-2.5703,-2.5703,-2.5703,-2.5703,-2.5703,-2.5703,-2.5703,-2.5703,-2.5703,-2.5703,-2.5703,-2.5703,-2.5703,-2.5703,-2.5703,-2.5703,-2.5703,-2.5703,-2.5703,-2.5703,-2.5703,-2.5703,-2.5703,-2.5703,-2.5703,-2.5703,-2.5703,-2.5703,-2.5683,-2.5658,-2.5602,-2.5572,-2.5545,-2.5463,-2.5425,-2.5398,-2.5364,-2.5312,-2.5308,0.0,0.0,0.0,-2.1154,0.0,0.0,0.0,0.0,-2.0027,0.0,0.0,0.0,0.0,0.0,0.0,-1.5744,0.0,0.0,0.0,0.0,0.0,0.0,0.0,0.0,0.0,0.0,0.0,0.0,0.0,0.0,-2.0368,-2.2139,-2.3422,-2.4269,-2.5089,-2.5491,-2.5491,-2.5491,-2.5491,-2.5491,-2.5491,-2.5539,-2.5597,-2.5535,-2.5537,-2.5594,-2.5511,-2.5484,-2.5484,-2.5484,-2.5484,-2.5486,-2.5506,-2.5506,-2.5486,-2.5508,-2.5545,-2.5601,-2.5602,-2.5657,-2.5703,-2.5703,-2.5703,-2.5703,-2.5703,-2.5703,-2.5703,-2.5703,-2.5703,-2.5703,-2.5703,-2.5703,-2.5703,-2.5703,-2.5703,-2.5703,-2.5703,-2.5703,-2.5703,-2.5703,-2.5703,-2.5703,-2.5703,-2.5703,-2.5703,-2.5703,-2.5703,-2.5703,-2.5703,-2.5703,-2.5703,-2.5703,-2.5703,-2.5703,-2.5703,-2.5703,-2.5703,-2.5703,-2.5703,-2.5703,-2.5703,-2.5635,-2.5602,-2.5602,-2.5541,-2.546,-2.5397,-2.5394,-2.5375,-2.5293,-2.5308,-2.5308,0.0,0.0,-2.4769,-2.2504,0.0,0.0,0.0,0.0,0.0,0.0,0.0,0.0,0.0,0.0,-1.7883,-1.6457,-1.5267,0.0,0.0,0.0,0.0,0.0,0.0,0.0,0.0,0.0,0.0,0.0,-1.6211,0.0,0.0,-2.1027,-2.2667,-2.3532,-2.4348,-2.5048,-2.5633,-2.5633,-2.5633,-2.5633,-2.5633,-2.561,-2.5601,-2.5588,-2.5556,-2.5539,-2.55,-2.5491,-2.5491,-2.5491,-2.5491,-2.5496,-2.5551,-2.5563,-2.5563,-2.5563,-2.5572,-2.5604,-2.5658,-2.5683,-2.5703,-2.5703,-2.5703,-2.5703,-2.5703,-2.5703,-2.5703,-2.5703,-2.5703,-2.5703,-2.5703,-2.5703,-2.5703,-2.5703,-2.5703,-2.5703,-2.5703,-2.5703,-2.5703,-2.5703,-2.5703,-2.5703,-2.5703,-2.5703,-2.5703,-2.5703,-2.5703,-2.5703,-2.5703,-2.5703,-2.5703,-2.5703,-2.5703,-2.5703,-2.5703,-2.5703,-2.5703,-2.5703,-2.5703,-2.5703,-2.5703,-2.5635,-2.557,-2.5522,-2.5477,-2.539,-2.5335,-2.5335,-2.5312,-2.5308,-2.5308,-2.5308,-2.5308,-2.5308,0.0,-2.3216,-2.1985,0.0,-1.9338,0.0,0.0,0.0,0.0,0.0,0.0,0.0,0.0,-1.7305,-1.5703,0.0,0.0,0.0,0.0,0.0,0.0,0.0,0.0,0.0,-1.4422,-1.5321,0.0,0.0,0.0,0.0,-2.166,-2.3144,-2.3984,-2.4824,-2.5684,-2.5703,-2.5703,-2.5703,-2.5703,-2.5682,-2.5635,-2.5635,-2.5606,-2.5566,-2.5566,-2.5566,-2.5566,-2.5566,-2.5566,-2.5588,-2.5629,-2.5635,-2.5635,-2.5635,-2.5635,-2.5636,-2.5683,-2.5703,-2.5703,-2.5703,-2.5703,-2.5703,-2.5703,-2.5703,-2.5703,-2.5703,-2.5703,-2.5703,-2.5703,-2.5703,-2.5703,-2.5703,-2.5703,-2.5703,-2.5703,-2.5703,-2.5703,-2.5703,-2.5703,-2.5703,-2.5703,-2.5703,-2.5703,-2.5703,-2.5703,-2.5703,-2.5703,-2.5703,-2.5703,-2.5703,-2.5703,-2.5703,-2.5703,-2.5703,-2.5703,-2.5703,-2.5703,-2.5703,-2.5703,-2.5607,-2.5549,-2.5491,-2.5404,-2.5333,-2.5308,-2.5308,-2.5308,-2.5308,-2.5308,-2.5308]},{"header":{"parameterUnit":"m.s-1","parameterCategory":1,"la1":30.6,"la2":29.2853,"lo1":-89.7004,"lo2":-87.6739,"dy":0.0162,"dx":0.0183,"nx":112,"ny":82,"refTime":"2024-07-02T12:00:00:Z","depth":0,"parameterNumber":3,"parameterNumberName":"V-component_of_WINDS"},"data":[0.0,0.0,0.0,0.0,0.0,0.0,0.0,0.0,0.0,0.0,0.0,0.0,0.0,0.0,0.0,0.0,0.0,0.0,0.0,0.0,0.0,0.0,0.0,0.0,0.0,0.0,0.0,0.0,0.0,0.0,0.0,0.0,0.0,0.0,0.0,0.0,0.0,0.0,0.0,0.0,0.0,0.0,0.0,0.0,0.0,0.0,0.0,0.0,0.0,0.0,0.0,0.0,0.0,0.0,0.0,0.0,0.0,0.0,0.0,0.0,0.0,0.0,0.0,0.0,0.0,0.0,0.0,0.0,0.0,0.0,0.0,0.0,0.0,0.0,0.0,0.0,0.0,0.0,0.0,0.0,0.0,0.0,0.0,0.0,0.0,0.0,0.0,0.0,0.0,0.0,0.0,-0.3185,-0.3691,-0.3518,-0.2315,-0.2077,-0.1425,-0.0085,0.0,0.0,0.0,0.0,0.0,0.0,0.0,0.0,0.0,0.0,0.0,0.0,0.0,0.0,0.0,0.0,0.0,0.0,0.0,0.0,0.0,0.0,0.0,0.0,0.0,0.0,0.0,0.0,0.0,0.0,0.0,0.0,0.0,0.0,0.0,0.0,0.0,0.0,0.0,0.0,0.0,0.0,0.0,0.0,0.0,0.0,0.0,0.0,0.0,0.0,0.0,0.0,0.0,0.0,0.0,0.0,0.0,0.0,0.0,0.0,0.0,0.0,0.0,0.0,0.0,0.0,0.0,0.0,0.0,0.0,0.0,0.0,0.0,0.0,0.0,0.0,0.0,0.0,0.0,0.0,0.0,0.0,0.0,0.0,0.0,0.0,0.0,0.0,0.0,0.0,0.0,0.0,0.0,0.0,0.0,0.0,0.0,0.0,0.0,0.0,0.0,0.0,0.0,0.0,-0.2983,-0.3772,-0.394,-0.3518,-0.2315,-0.2072,-0.142,-0.0085,0.0,0.0,0.0,0.0,0.0,0.0,0.0,0.0,0.0,0.0,0.0,0.0,0.0,0.0,0.0,0.0,0.0,0.0,0.0,0.0,0.0,0.0,0.0,0.0,0.0,0.0,0.0,0.0,0.0,0.0,0.0,0.0,0.0,0.0,0.0,0.0,0.0,0.0,0.0,0.0,0.0,0.0,0.0,0.0,0.0,0.0,0.0,0.0,0.0,0.0,0.0,0.0,0.0,0.0,0.0,0.0,0.0,0.0,0.0,0.0,0.0,0.0,0.0,0.0,0.0,0.0,0.0,0.0,0.0,0.0,0.0,0.0,0.0,0.0,0.0,0.0,0.0,0.0,0.0,0.0,0.0,0.0,0.0,0.0,0.0,0.0,0.0,0.0,0.0,0.0,0.0,0.0,0.0,0.0,0.0,0.0,0.0,0.0,0.0,0.0,0.0,0.0,0.0,-0.2744,-0.3202,-0.3917,-0.3994,-0.3518,-0.2315,-0.2078,-0.1426,-0.0085,0.0,0.0,0.0,0.0,0.0,0.0,0.0,0.0,0.0,0.0,0.0,0.0,0.0,0.0,0.0,0.0,0.0,0.0,0.0,0.0,0.0,0.0,0.0,0.0,0.0,0.0,0.0,0.0,0.0,0.0,0.0,0.0,0.0,0.0,0.0,0.0,0.0,0.0,0.0,0.0,0.0,0.0,0.0,0.0,0.0,0.0,0.0,0.0,0.0,0.0,0.0,0.0,0.0,0.0,0.0,0.0,0.0,0.0,0.0,0.0,0.0,0.0,0.0,0.0,0.0,0.0,0.0,0.0,0.0,0.0,0.0,0.0,0.0,0.0,0.0,0.0,0.0,0.0,0.0,0.0,0.0,0.0,0.0,0.0,0.0,0.0,0.0,0.0,0.0,0.0,0.0,0.0,0.0,0.0,0.0,0.0,0.0,0.0,0.0,0.0,0.0,0.0,0.0,-0.3042,-0.3392,-0.3937,-0.3994,-0.3518,-0.2315,-0.2077,-0.1425,-0.0085,0.0,0.0,0.0,0.0,0.0,0.0,0.0,0.0,0.0,0.0,0.0,0.0,0.0,0.0,0.0,0.0,0.0,0.0,0.0,0.0,0.0,0.0,0.0,0.0,0.0,0.0,0.0,0.0,0.0,0.0,0.0,0.0,0.0,0.0,0.0,0.0,0.0,0.0,0.0,0.0,0.0,0.0,0.0,0.0,0.0,0.0,0.0,0.0,0.0,0.0,0.0,0.0,0.0,0.0,0.0,0.0,0.0,0.0,0.0,0.0,0.0,0.0,0.0,0.0,0.0,0.0,0.0,0.0,0.0,0.0,0.0,0.0,0.0,0.0,0.0,0.0,0.0,0.0,0.0,0.0,0.0,0.0,0.0,0.0,0.0,0.0,0.0,0.0,0.0,0.0,0.0,0.0,0.0,0.0,0.0,0.0,0.0,0.0,0.0,0.0,0.0,0.0,0.0,-0.3107,-0.3532,-0.3947,-0.3994,-0.3518,-0.2315,-0.2086,-0.143,-0.0085,0.0,0.0,0.0,0.0,0.0,0.0,0.0,0.0,0.0,0.0,0.0,0.0,0.0,0.0,0.0,0.0,0.0,0.0,0.0,0.0,0.0,0.0,0.0,0.0,0.0,0.0,0.0,0.0,0.0,0.0,0.0,0.0,0.0,0.0,0.0,0.0,0.0,0.0,0.0,0.0,0.0,0.0,0.0,0.0,0.0,0.0,0.0,0.0,0.0,0.0,0.0,0.0,0.0,0.0,0.0,0.0,0.0,0.0,0.0,0.0,0.0,0.0,0.0,0.0,0.0,0.0,0.0,0.0,0.0,0.0,0.0,0.0,0.0,0.0,0.0,0.0,0.0,0.0,0.0,0.0,0.0,0.0,0.0,0.0,0.0,0.0,0.0,0.0,0.0,0.0,0.0,0.0,0.0,0.0,0.0,0.0,0.0,0.0,0.0,0.0,0.0,0.0,0.0,-0.2928,-0.3283,0.0,-0.3799,-0.3451,-0.2711,-0.2176,-0.1499,-0.0611,0.0,0.0,0.0,0.0,0.0,0.0,0.0,0.0,0.0,0.0,0.0,0.0,0.0,0.0,0.0,0.0,0.0,0.0,0.0,0.0,0.0,0.0,0.0,0.0,0.0,0.0,0.0,0.0,0.0,0.0,0.0,0.0,0.0,0.0,0.0,0.0,0.0,0.0,0.0,0.0,0.0,0.0,0.0,0.0,0.0,0.0,0.0,0.0,0.0,0.0,0.0,0.0,0.0,0.0,0.0,0.0,0.0,0.0,0.0,0.0,0.0,0.0,0.0,0.0,0.0,0.0,0.0,0.0,0.0,0.0,0.0,0.0,0.0,0.0,0.0,0.0,0.0,0.0,0.0,0.0,0.0,0.0,0.0,0.0,0.0,0.0,0.0,0.0,0.0,0.0,0.0,0.0,0.0,0.0,0.0,0.0,0.0,0.0,0.0,0.0,0.0,0.0,-0.2645,-0.2852,-0.3185,0.0,-0.3726,-0.3455,-0.2934,-0.2411,-0.1748,-0.095,0.0,0.0,0.0,0.0,0.0,0.0,0.0,0.0,0.0,0.0,0.0,0.0,0.0,0.0,0.0,0.0,0.0,0.0,0.0,0.0,0.0,0.0,0.0,0.0,0.0,0.0,0.0,0.0,0.0,0.0,0.0,0.0,0.0,0.0,0.0,0.0,0.0,0.0,0.0,0.0,0.0,0.0,0.0,0.0,0.0,0.0,0.0,0.0,0.0,0.0,0.0,0.0,0.0,0.0,0.0,0.0,0.0,0.0,0.0,0.0,0.0,0.0,0.0,0.0,0.0,0.0,0.0,0.0,0.0,0.0,0.0,0.0,0.0,0.0,0.0,0.0,0.0,0.0,0.0,0.0,0.0,0.0,0.0,0.0,0.0,0.0,0.0,0.0,0.0,0.0,0.0,0.0,0.0,0.0,0.0,0.0,0.0,0.0,0.0,0.0,0.0,0.0,-0.2658,-0.2937,-0.3273,-0.3741,-0.3788,-0.3551,-0.296,-0.277,-0.2176,0.0,0.0,0.0,0.0,0.0,0.0,0.0,0.0,0.0,0.0,0.0,0.0,0.0,0.0,0.0,0.0,0.0,0.0,0.0,0.0,0.0,0.0,0.0,0.0,0.0,0.0,0.0,0.0,0.0,0.0,0.0,0.0,0.0,0.0,0.0,0.0,0.0,0.0,0.0,0.0,0.0,0.0,0.0,0.0,0.0,0.0,0.0,0.0,0.0,0.0,0.0,0.0,0.0,0.0,0.0,0.0,0.0,0.0,0.0,0.0,0.0,0.0,0.0,0.0,0.0,0.0,0.0,0.0,0.0,0.0,0.0,0.0,0.0,0.0,0.0,0.0,0.0,0.0,0.0,0.0,0.0,0.0,0.0,0.0,0.0,0.0,0.0,0.0,0.0,0.0,0.0,0.0,0.0,0.0,0.0,0.0,0.0,0.0,0.0,0.0,0.0,0.0,0.0,-0.2658,-0.2937,-0.3236,-0.3628,-0.3665,-0.3597,-0.3414,-0.2888,-0.227,-0.1571,0.0,0.0,0.0,0.0,0.0,0.0,0.0,0.0,0.0,0.0,0.0,0.0,0.0,0.0,0.0,0.0,0.0,0.0,0.0,0.0,0.0,0.0,0.0,0.0,0.0,0.0,0.0,0.0,0.0,0.0,0.0,0.0,0.0,0.0,0.0,0.0,0.0,0.0,0.0,0.0,0.0,0.0,0.0,0.0,0.0,0.0,0.0,0.0,0.0,0.0,0.0,0.0,0.0,0.0,0.0,0.0,0.0,0.0,0.0,0.0,0.0,0.0,0.0,0.0,0.0,0.0,0.0,0.0,0.0,0.0,0.0,0.0,0.0,0.0,0.0,0.0,0.0,0.0,0.0,0.0,0.0,0.0,0.0,0.0,0.0,0.0,0.0,0.0,0.0,0.0,0.0,0.0,0.0,0.0,0.0,0.0,0.0,0.0,0.0,0.0,0.0,0.0,-0.2669,-0.2973,-0.3286,-0.3576,-0.3604,-0.3604,-0.3604,-0.3072,-0.2509,-0.1991,0.0,0.0,0.0,0.0,0.0,0.0,0.0,0.0,0.0,0.0,0.0,0.0,0.0,0.0,0.0,0.0,0.0,0.0,0.0,0.0,0.0,0.0,0.0,0.0,0.0,0.0,0.0,0.0,0.0,0.0,0.0,0.0,0.0,0.0,0.0,0.0,0.0,0.0,0.0,0.0,0.0,0.0,0.0,0.0,0.0,0.0,0.0,0.0,0.0,0.0,0.0,0.0,0.0,0.0,0.0,0.0,0.0,0.0,0.0,0.0,0.0,0.0,0.0,0.0,0.0,0.0,0.0,0.0,0.0,0.0,0.0,0.0,0.0,0.0,0.0,0.0,0.0,0.0,0.0,0.0,0.0,0.0,0.0,0.0,0.0,0.0,0.0,0.0,0.0,0.0,0.0,0.0,0.0,0.0,0.0,0.0,0.0,0.0,0.0,0.0,0.0,0.0,-0.2679,-0.305,-0.3387,-0.3587,-0.3604,-0.3604,-0.3604,-0.3297,-0.285,-0.227,0.0,0.0,0.0,0.0,0.0,0.0,0.0,0.0,0.0,0.0,0.0,0.0,0.0,0.0,0.0,0.0,0.0,0.0,0.0,0.0,0.0,0.0,0.0,0.0,0.0,0.0,0.0,0.0,0.0,0.0,0.0,0.0,0.0,0.0,0.0,0.0,0.0,0.0,0.0,0.0,0.0,0.0,0.0,0.0,0.0,0.0,0.0,0.0,0.0,0.0,0.0,0.0,0.0,0.0,0.0,0.0,0.0,0.0,0.0,0.0,-0.3857,0.0,0.0,0.0,0.0,0.0,0.0,0.0,0.0,0.0,0.0,0.0,0.0,0.0,0.0,0.0,0.0,0.0,0.0,0.0,0.0,0.0,0.0,0.0,0.0,0.0,0.0,0.0,0.0,0.0,0.0,0.0,0.0,0.0,0.0,0.0,0.0,0.0,0.0,0.0,0.0,0.0,-0.2679,-0.305,-0.3387,-0.3587,-0.3604,-0.3604,-0.3604,-0.3297,-0.291,-0.2472,0.0,0.0,0.0,0.0,0.0,0.0,0.0,0.0,0.0,0.0,0.0,0.0,0.0,0.0,0.0,0.0,0.0,0.0,0.0,0.0,0.0,0.0,0.0,0.0,0.0,0.0,0.0,0.0,0.0,0.0,0.0,0.0,0.0,0.0,0.0,0.0,0.0,0.0,0.0,0.0,0.0,0.0,0.0,0.0,0.0,0.0,0.0,0.0,0.0,0.0,0.0,0.0,0.0,0.0,0.0,0.0,0.0,0.0,0.0,0.0,0.0,-0.4206,0.0,0.0,0.0,0.0,0.0,0.0,0.0,0.0,0.0,0.0,0.0,0.0,0.0,0.0,0.0,0.0,0.0,0.0,0.0,0.0,0.0,0.0,0.0,0.0,0.0,0.0,0.0,0.0,0.0,0.0,0.0,0.0,0.0,0.0,0.0,0.0,0.0,0.0,0.0,0.0,-0.2788,-0.3181,-0.349,-0.3593,-0.3604,-0.3604,-0.3604,-0.3344,-0.306,-0.2718,-0.2465,0.0,0.0,0.0,0.0,0.0,0.0,0.0,0.0,0.0,0.0,0.0,0.0,0.0,0.0,0.0,0.0,0.0,0.0,0.0,0.0,0.0,0.0,0.0,0.0,0.0,0.0,0.0,0.0,0.0,0.0,0.0,0.0,0.0,0.0,0.0,0.0,0.0,0.0,0.0,0.0,0.0,0.0,0.0,0.0,0.0,0.0,0.0,0.0,0.0,0.0,0.0,0.0,0.0,-0.7732,-0.8013,-0.8218,-0.849,-0.8358,-0.7824,-0.6717,-0.5684,-0.4781,0.0,0.0,0.0,0.0,0.0,0.0,0.0,0.0,0.0,0.0,0.0,0.0,0.0,0.0,0.0,0.0,0.0,0.0,0.0,0.0,0.0,0.0,0.0,0.0,0.0,-0.363,-0.3663,0.0,0.0,0.0,0.0,0.0,0.0,0.0,0.0,0.0,0.0,0.0,0.0,-0.2945,-0.3317,-0.3604,-0.3604,-0.3604,-0.3604,-0.3604,-0.3418,-0.3192,-0.2946,-0.2778,-0.246,0.0,0.0,0.0,0.0,0.0,0.0,0.0,0.0,0.0,0.0,0.0,0.0,0.0,0.0,0.0,0.0,0.0,0.0,0.0,0.0,0.0,0.0,0.0,0.0,0.0,0.0,0.0,0.0,0.0,0.0,0.0,0.0,-0.4608,-0.4688,0.0,0.0,0.0,0.0,0.0,0.0,0.0,0.0,0.0,0.0,0.0,0.0,0.0,-0.7508,-0.8045,-0.8591,-0.8884,-0.8924,-0.9252,-0.944,-0.9452,-0.9492,-0.9484,-0.9414,-0.9227,0.0,-0.5202,-0.4923,0.0,0.0,0.0,0.0,0.0,0.0,0.0,0.0,0.0,0.0,0.0,0.0,0.0,0.0,0.0,0.0,0.0,0.0,0.0,0.0,0.0,0.0,-0.4046,-0.3937,-0.3937,-0.394,0.0,-0.3428,-0.302,-0.2838,-0.2727,0.0,0.0,0.0,0.0,0.0,0.0,0.0,-0.3057,-0.3378,-0.3604,-0.3604,-0.3604,-0.3604,-0.3604,-0.3418,-0.3236,-0.3084,-0.2835,-0.2616,-0.2418,-0.2033,0.0,0.0,0.0,0.0,0.0,0.0,0.0,0.0,0.0,0.0,0.0,0.0,0.0,0.0,0.0,0.0,0.0,0.0,0.0,0.0,0.0,0.0,0.0,0.0,0.0,0.0,0.0,0.0,0.0,-0.4556,-0.5128,-0.5295,-0.5608,-0.5675,0.0,0.0,0.0,0.0,0.0,0.0,0.0,0.0,0.0,-0.8218,-0.8557,-0.8945,-0.9352,-0.9773,-1.006,-1.0197,-1.0354,-1.0421,-1.0421,-1.0421,-1.0365,-1.0198,-1.0,-0.8953,-0.7316,-0.6364,-0.5417,-0.4494,0.0,0.0,0.0,0.0,-0.3442,-0.3524,-0.3671,-0.3708,0.0,-0.3551,0.0,0.0,0.0,0.0,0.0,0.0,0.0,0.0,0.0,0.0,-0.4227,-0.4267,-0.427,-0.427,-0.427,-0.3999,-0.364,0.0,-0.3317,-0.317,-0.2699,0.0,0.0,0.0,0.0,0.0,-0.3382,-0.3565,-0.372,-0.372,-0.3651,-0.3604,-0.3604,-0.3517,-0.3354,-0.3118,-0.2998,-0.2802,-0.2511,-0.2304,-0.2064,0.0,0.0,0.0,0.0,0.0,0.0,0.0,0.0,0.0,0.0,0.0,0.0,0.0,0.0,0.0,0.0,0.0,0.0,0.0,0.0,0.0,0.0,0.0,0.0,0.0,0.0,0.0,0.0,-0.5213,-0.5742,-0.5994,-0.6379,-0.6479,0.0,0.0,0.0,0.0,0.0,0.0,-0.7919,-0.8283,-0.8798,-0.9524,-0.9866,-1.016,-1.0416,-1.0668,-1.0889,-1.1102,-1.1102,-1.1102,-1.1102,-1.1102,-1.0982,-1.0801,-1.0468,-1.0024,-0.9383,-0.7886,-0.6758,-0.5904,-0.4799,-0.4319,-0.4239,-0.4094,-0.4046,-0.4111,-0.4314,-0.4392,-0.4348,-0.4107,0.0,-0.3788,-0.3431,0.0,0.0,0.0,0.0,-0.3812,-0.4066,-0.419,-0.4304,-0.4464,-0.4491,-0.4491,-0.4491,-0.4379,-0.4169,0.0,-0.3805,-0.3659,-0.3085,0.0,0.0,0.0,0.0,-0.3778,-0.3718,-0.3751,-0.3792,-0.3792,-0.3686,-0.3604,-0.3604,-0.3604,-0.3449,-0.3121,-0.3101,-0.2937,-0.2558,-0.2518,-0.2307,-0.1906,0.0,0.0,0.0,0.0,0.0,0.0,0.0,0.0,0.0,0.0,0.0,0.0,0.0,0.0,0.0,0.0,0.0,0.0,0.0,0.0,0.0,0.0,0.0,0.0,0.0,0.0,0.0,0.0,0.0,-0.69,-0.7459,0.0,0.0,0.0,0.0,-0.7772,-0.8338,-0.8805,-0.9104,-0.9664,-1.0154,-1.0512,-1.0775,-1.1069,-1.1322,-1.1342,-1.1355,-1.1369,-1.1369,-1.1369,-1.1369,-1.1369,-1.1362,-1.1329,-1.1076,-1.0916,-1.0777,-0.9168,-0.8059,-0.7288,-0.6297,-0.5954,-0.594,-0.5009,-0.4738,-0.4833,-0.485,-0.4854,-0.483,-0.4697,-0.4358,-0.3981,-0.3957,-0.3873,0.0,0.0,-0.4072,-0.4223,-0.4426,-0.4474,-0.4481,-0.4487,-0.4491,-0.4491,-0.4491,-0.4484,-0.4433,0.0,-0.4078,-0.3948,-0.3768,0.0,-0.3767,-0.3737,-0.3778,-0.3849,-0.3954,-0.3877,-0.3792,-0.3792,-0.3686,-0.3604,-0.3604,-0.3604,-0.3449,-0.3121,-0.3101,-0.2985,-0.2699,-0.2561,-0.2392,-0.2177,-0.193,0.0,0.0,0.0,0.0,0.0,0.0,0.0,0.0,0.0,0.0,0.0,0.0,0.0,0.0,0.0,0.0,0.0,0.0,0.0,0.0,0.0,0.0,0.0,0.0,0.0,0.0,0.0,0.0,-0.7856,-0.8385,0.0,-0.8185,-0.8437,-0.8731,-0.9038,-0.9426,-0.986,-1.0341,-1.0568,-1.0815,-1.1109,-1.1437,-1.1638,-1.171,-1.1897,-1.1991,-1.1991,-1.1991,-1.1891,-1.171,-1.171,-1.1603,-1.1382,-1.1282,-1.1269,-1.1209,-1.0633,-0.9307,-0.7542,-0.6518,-0.5811,-0.5328,-0.4977,-0.487,-0.4887,-0.4887,-0.4887,-0.4881,-0.4857,-0.4728,-0.457,-0.457,-0.449,-0.4382,-0.4436,-0.4419,-0.4399,-0.4477,-0.4491,-0.4491,-0.4491,-0.4491,-0.4491,-0.4491,-0.4491,-0.4474,-0.4395,-0.4341,-0.4226,-0.3982,-0.3994,-0.3994,-0.3822,-0.3958,-0.4082,-0.4136,-0.4095,-0.4021,-0.3948,-0.3805,-0.3703,-0.361,-0.3604,-0.3449,-0.3121,-0.3101,-0.2988,-0.271,-0.2565,-0.2399,-0.22,-0.2022,-0.1784,0.0,0.0,0.0,0.0,0.0,0.0,0.0,0.0,0.0,0.0,0.0,0.0,0.0,0.0,0.0,0.0,0.0,0.0,0.0,0.0,0.0,0.0,0.0,0.0,0.0,0.0,-0.8223,-0.8617,-0.9151,-0.9391,-0.9132,-0.9517,-0.9913,-1.0107,-1.0394,-1.0696,-1.1116,-1.1236,-1.1376,-1.157,-1.1864,-1.2011,-1.2011,-1.2204,-1.2305,-1.2305,-1.2305,-1.2204,-1.2011,-1.2011,-1.1904,-1.1717,-1.1617,-1.1577,-1.1563,-1.147,-1.0263,-0.842,-0.7688,-0.6786,-0.5899,-0.5619,-0.5314,-0.5067,-0.5067,-0.5033,-0.4958,-0.4958,-0.4928,-0.4887,-0.4887,-0.485,-0.4769,-0.4769,-0.4694,-0.4634,-0.458,-0.4566,-0.4552,-0.4501,-0.4491,-0.4491,-0.4491,-0.4491,-0.4491,-0.4491,-0.4491,-0.4426,-0.4202,-0.4253,-0.425,-0.4075,-0.4192,-0.4294,-0.4294,-0.425,-0.4157,-0.4082,-0.3914,-0.3751,-0.3682,-0.3561,-0.3392,-0.3118,-0.3057,-0.294,-0.271,-0.2565,-0.2399,-0.22,-0.1979,-0.1778,-0.1599,0.0,0.0,0.0,0.0,0.0,0.0,0.0,0.0,0.0,0.0,0.0,0.0,0.0,0.0,0.0,0.0,0.0,0.0,0.0,0.0,0.0,0.0,0.0,-0.7919,-0.8223,-0.8644,-0.9184,-0.9764,-1.004,-0.9766,-1.0508,-1.1009,-1.1022,-1.1283,-1.1409,-1.1415,-1.1724,-1.1919,-1.1919,-1.2151,-1.2305,-1.2305,-1.2305,-1.2305,-1.2305,-1.2305,-1.2305,-1.2305,-1.2305,-1.2305,-1.2285,-1.204,-1.1919,-1.1899,-1.157,-1.0921,-1.0124,-0.9835,-0.9003,-0.7907,-0.7022,-0.6145,-0.5395,-0.5395,-0.5264,-0.5106,-0.5106,-0.5012,-0.4904,-0.4904,-0.4897,-0.4894,-0.4894,-0.4891,-0.4884,-0.4731,-0.4691,-0.4653,-0.4528,-0.4491,-0.4491,-0.4491,-0.4491,-0.4491,-0.4491,-0.4491,-0.4491,-0.4491,-0.4491,-0.4491,-0.4491,-0.4491,0.0,-0.4491,-0.4341,-0.42,-0.4197,-0.3957,-0.3802,-0.3792,-0.3505,-0.3252,-0.3111,-0.2973,-0.2846,-0.2703,-0.2565,-0.2399,-0.2194,-0.1819,-0.1617,-0.1606,0.0,0.0,0.0,0.0,0.0,0.0,0.0,0.0,0.0,0.0,0.0,0.0,0.0,0.0,0.0,0.0,0.0,0.0,0.0,0.0,0.0,0.0,-0.825,-0.825,-0.9051,-0.978,-1.0184,-1.0528,-1.0802,-1.0935,-1.1162,-1.1396,-1.161,-1.1703,-1.1837,-1.2051,-1.2138,-1.2184,-1.2184,-1.2258,-1.2305,-1.2305,-1.2305,-1.2305,-1.2305,-1.2305,-1.2305,-1.2305,-1.2305,-1.2305,-1.2298,-1.2218,-1.2184,-1.2178,-1.2091,-1.1794,-1.1323,-1.0343,-0.9287,-0.8199,-0.7299,-0.6317,-0.5395,-0.5395,-0.5365,-0.533,-0.533,-0.5303,-0.5272,-0.5272,-0.5162,-0.5042,-0.5042,-0.4968,-0.4884,-0.4731,-0.4691,-0.4653,-0.4528,-0.4491,-0.4491,-0.4491,-0.4491,-0.4491,-0.4491,-0.4491,-0.4491,-0.4491,-0.4491,-0.4491,-0.4491,-0.4491,0.0,-0.4491,-0.4457,-0.4365,-0.4207,-0.4146,-0.4008,-0.3812,-0.3717,-0.3514,-0.3125,-0.3064,-0.2947,-0.271,-0.2565,-0.2362,-0.2066,-0.2049,-0.1943,0.0,0.0,0.0,0.0,0.0,0.0,0.0,0.0,0.0,0.0,0.0,0.0,0.0,0.0,0.0,0.0,0.0,0.0,0.0,0.0,0.0,0.0,-0.8844,-0.936,-0.9481,-0.9953,-1.0461,-1.0875,-1.1182,-1.143,-1.1597,-1.1724,-1.1864,-1.2037,-1.2087,-1.2214,-1.2472,-1.2522,-1.2545,-1.2679,-1.2685,-1.2685,-1.2685,-1.2685,-1.2685,-1.2679,-1.2552,-1.2522,-1.2485,-1.2358,-1.2305,0.0,-1.2305,-1.2305,-1.2305,-1.2305,-1.2204,0.0,0.0,0.0,0.0,0.0,-0.6592,-0.5881,-0.5524,-0.5395,-0.5395,-0.5395,-0.5395,-0.5395,-0.5395,-0.533,-0.5226,-0.5226,-0.5169,-0.507,-0.4914,-0.4874,-0.4819,-0.4638,-0.4586,-0.4566,-0.4505,-0.4491,-0.4491,-0.4491,-0.4491,0.0,-0.4491,-0.4491,-0.4491,-0.4491,-0.4491,-0.4491,-0.4491,-0.4491,-0.4457,-0.4345,-0.4257,-0.4126,-0.3907,-0.3775,0.0,0.0,0.0,-0.2988,-0.271,-0.2565,0.0,0.0,0.0,0.0,0.0,0.0,0.0,0.0,-0.1743,-0.1798,0.0,0.0,0.0,0.0,0.0,0.0,0.0,0.0,0.0,0.0,0.0,0.0,0.0,0.0,0.0,0.0,-1.0053,-1.0754,-1.1042,-1.0908,-1.0935,-1.1416,-1.171,-1.1919,-1.1953,-1.2151,-1.2318,-1.2351,-1.2351,-1.2485,-1.2817,0.0,0.0,0.0,0.0,-1.3213,-1.3213,-1.3213,-1.3213,-1.3206,-1.2938,-1.2784,-1.277,-1.2438,-1.2305,-1.2305,-1.2305,-1.2305,-1.2305,-1.2305,-1.2305,-1.2271,-1.202,-1.1134,-0.9765,-0.7936,-0.6987,-0.6461,-0.5682,0.0,0.0,-0.5395,-0.5395,-0.5395,-0.5395,-0.5395,-0.5395,-0.5395,-0.5395,-0.5358,-0.514,-0.51,-0.5029,-0.4782,-0.4704,-0.4653,-0.4545,-0.4501,-0.4491,-0.4491,-0.4491,-0.4491,-0.4491,-0.4491,-0.4491,-0.4491,-0.4491,-0.4491,-0.4491,-0.4491,-0.4491,-0.4491,0.0,0.0,-0.4035,-0.3788,-0.3558,-0.3343,-0.3195,-0.2983,-0.2757,-0.2634,-0.2474,-0.2288,-0.2301,-0.2291,-0.2261,-0.2278,-0.2278,-0.2258,-0.21,-0.2103,0.0,0.0,0.0,0.0,0.0,0.0,0.0,0.0,0.0,0.0,0.0,0.0,0.0,0.0,0.0,-0.981,-1.0488,-1.1096,-1.1658,-1.1685,-1.1692,-1.1806,-1.1873,-1.1993,-1.2191,-1.2271,-1.2405,-1.2683,-1.2697,-1.2831,-1.3106,-1.312,-1.3153,-1.3206,-1.3213,-1.3213,-1.3213,-1.3213,-1.3213,-1.3206,0.0,0.0,-1.277,-1.2438,-1.2305,-1.2305,-1.2305,-1.2305,-1.2305,-1.2305,-1.2305,-1.2271,-1.202,-1.082,-0.9227,-0.8539,-0.7255,-0.5782,-0.5614,-0.5498,-0.5395,-0.5395,-0.5395,-0.5395,-0.5395,-0.5395,0.0,-0.5395,-0.5395,-0.5358,-0.514,-0.51,-0.5056,-0.4884,-0.4779,-0.468,-0.4682,-0.458,-0.4491,-0.4491,-0.4491,-0.4491,-0.4491,-0.4491,-0.4491,-0.4491,-0.4491,-0.4491,-0.4491,-0.4491,-0.4491,-0.4491,-0.4464,-0.4362,-0.4164,-0.4014,-0.3822,-0.3551,-0.3273,-0.3074,-0.302,-0.3005,-0.2905,-0.2764,-0.2872,-0.2814,-0.2611,-0.272,-0.2717,-0.2588,-0.2305,-0.2258,0.0,0.0,0.0,0.0,0.0,0.0,0.0,0.0,0.0,0.0,0.0,-0.8285,0.0,0.0,-1.0307,-1.0895,-1.1243,-1.1583,-1.2024,-1.2084,-1.2084,-1.2084,-1.2084,-1.2144,-1.2285,-1.2438,-1.2623,-1.277,-1.2924,-1.3113,-1.3373,-1.3387,-1.35,-1.3647,-1.3647,-1.3647,-1.3647,-1.3647,-1.3647,-1.3647,-1.334,-1.3193,-1.3186,-1.2893,-1.2672,-1.2563,-1.2563,-1.2476,-1.2305,-1.2305,-1.2305,-1.2285,-1.2144,-1.1444,-1.0359,-0.9262,-0.8125,-0.6968,-0.5956,-0.5538,-0.5498,-0.5419,-0.5395,-0.5395,-0.5395,-0.5395,-0.5395,-0.5395,-0.5395,-0.5378,-0.5267,-0.5247,-0.5209,-0.5029,-0.4911,-0.4782,-0.4707,-0.46,-0.4491,-0.4491,-0.4491,-0.4491,-0.4491,-0.4491,-0.4491,-0.4491,-0.4491,-0.4491,-0.4491,-0.4491,-0.4491,-0.4491,-0.4491,-0.4429,-0.4207,-0.4011,-0.3812,-0.3617,-0.3385,-0.3236,-0.3196,-0.3141,-0.3067,-0.2996,-0.3067,-0.303,-0.29,-0.2959,-0.2956,-0.2896,-0.273,-0.2663,0.0,0.0,0.0,0.0,0.0,0.0,0.0,0.0,-0.8812,-0.8718,-0.9308,-0.9923,-1.0231,-1.0768,-1.1316,-1.1826,-1.1953,-1.2037,-1.2271,-1.2305,-1.2305,-1.2305,-1.2305,-1.2325,-1.2385,-1.2643,-1.2837,-1.2951,-1.3153,-1.338,-1.3673,-1.3686,-1.3841,-1.4082,-1.4088,-1.4088,-1.4088,-1.4088,-1.4088,-1.4082,-1.374,-1.36,-1.3593,-1.3307,-1.3039,-1.2784,-1.2723,-1.2563,-1.2305,-1.2305,-1.2305,-1.2305,-1.2305,-1.2158,-1.1735,-0.9829,-0.8809,-0.8134,-0.6307,-0.5654,-0.5606,-0.5487,-0.544,-0.5433,-0.5402,-0.5395,-0.5395,-0.5395,-0.5395,-0.5395,-0.5395,-0.5395,-0.5361,-0.5206,-0.5012,-0.4854,-0.4762,-0.4621,-0.4491,-0.4491,-0.4491,-0.4491,-0.4491,-0.4491,-0.4491,-0.4491,-0.4491,-0.4491,-0.4491,-0.4491,-0.4491,-0.4491,-0.4491,-0.4419,-0.4193,-0.3954,-0.3765,-0.3614,-0.3506,-0.3416,-0.3353,-0.3256,-0.3192,-0.3192,-0.3192,-0.3175,-0.3164,-0.3164,-0.3131,-0.3101,-0.3131,-0.3067,-0.8882,-0.8809,-0.9113,-0.9991,-0.9821,-0.9898,0.0,0.0,-1.1491,-1.1537,-1.1803,-1.1799,-1.1045,-1.1376,-1.1826,-1.1893,-1.2084,-1.2265,-1.2298,-1.2305,-1.2305,-1.2305,-1.2305,-1.2405,-1.271,-1.2764,-1.3005,-1.346,-1.3533,-1.3686,-1.4021,-1.4041,-1.4055,-1.4088,-1.4088,-1.4088,-1.4088,-1.4088,-1.4088,-1.4082,-1.374,-1.36,-1.3593,-1.3307,-1.3039,-1.277,-1.2502,-1.2331,-1.2305,-1.2305,-1.2305,-1.2305,-1.2305,-1.2278,-1.1994,-1.0007,-0.8556,-0.7461,-0.6349,-0.5891,-0.5752,-0.561,-0.5562,-0.5538,-0.5436,-0.5395,-0.5395,-0.5395,-0.5395,-0.5395,-0.5395,-0.5395,-0.5392,-0.5375,-0.5121,-0.4884,-0.4867,-0.4667,-0.4491,-0.4491,-0.4491,-0.4491,-0.4491,-0.4491,-0.4491,-0.4491,-0.4491,-0.4491,-0.4491,-0.4491,-0.4491,-0.4491,-0.4491,-0.4375,-0.4045,-0.3991,-0.3877,-0.3621,-0.3587,-0.3576,-0.3576,-0.3559,-0.3549,-0.3549,-0.3549,-0.3484,-0.3365,-0.3365,-0.3276,-0.3104,-0.3219,-0.3202,-1.0771,-1.0738,0.0,0.0,-1.2059,-1.214,-1.2308,-1.2546,-1.2522,-1.1602,-1.1796,-1.1977,-1.1606,-1.1844,-1.2124,0.0,-1.2225,-1.2305,-1.2305,-1.2305,-1.2305,-1.2305,-1.2305,-1.2351,-1.2516,-1.2844,-1.312,-1.3333,-1.3707,-1.3955,-1.4082,-1.4088,-1.4088,-1.4088,-1.4088,-1.4088,-1.4088,-1.4088,-1.4088,-1.4088,-1.3961,-1.3901,-1.3901,-1.3774,-1.3554,-1.324,-1.2804,-1.2596,-1.2583,-1.2371,-1.2305,-1.2305,-1.2305,-1.2305,-1.2077,-1.0051,-0.8972,-0.8314,-0.6578,-0.5949,-0.5895,-0.5664,-0.5589,-0.5562,-0.544,-0.5395,-0.5395,-0.5395,-0.5395,-0.5395,-0.5395,-0.5395,-0.5395,-0.5395,-0.5135,-0.4887,-0.4887,-0.4677,-0.4491,-0.4491,-0.4491,-0.4491,-0.4491,-0.4491,-0.4491,-0.4491,-0.4491,-0.4491,-0.4491,-0.4491,-0.4491,-0.4491,-0.4491,-0.4406,-0.4146,-0.4045,-0.3927,-0.374,-0.3648,-0.3604,-0.3604,-0.3604,-0.3604,-0.3604,-0.3604,-0.357,-0.3508,-0.3508,-0.3474,-0.3388,-0.3453,-0.3449,-1.1831,0.0,0.0,-1.346,-1.3892,-1.3871,-1.3237,-1.3412,-1.3346,-1.2032,-1.204,-1.2219,-1.1942,-1.2044,0.0,-1.2184,-1.2318,-1.2398,-1.2311,-1.2371,-1.2392,-1.2311,-1.2305,-1.2305,-1.2305,-1.2779,-1.3153,-1.332,-1.3728,-1.4001,-1.4082,-1.4088,-1.4088,-1.4088,-1.4088,-1.4088,-1.4088,-1.4088,-1.4088,-1.4088,-1.4088,-1.4088,-1.4082,-1.4001,-1.3848,-1.3573,-1.31,-1.2864,-1.2764,-1.2549,-1.2223,-1.1885,-1.1885,-1.1737,-1.1248,-0.9518,-0.9069,-0.9049,-0.7138,-0.6317,-0.6044,-0.5745,-0.5647,-0.5613,-0.5453,-0.5395,-0.5395,-0.5395,-0.5395,-0.5395,-0.5395,-0.5395,-0.5395,-0.5395,-0.5165,-0.4935,-0.4897,-0.4711,-0.4542,-0.4498,-0.4491,-0.4491,-0.4491,-0.4491,-0.4491,-0.4491,-0.4491,-0.4491,-0.4491,-0.4491,-0.4491,-0.4491,-0.4491,-0.4429,-0.4207,-0.4119,-0.3974,-0.3802,-0.3716,-0.3645,-0.3604,-0.3604,-0.3604,-0.3604,-0.3604,-0.3604,-0.3604,-0.3604,-0.3604,-0.3604,-0.3604,-0.3604,0.0,0.0,-1.3433,-1.4955,-1.4997,-1.4877,-1.5605,-1.5112,-1.4305,-1.3741,-1.3433,-1.2987,-1.2077,-1.1913,-1.1919,-1.1919,-1.2402,-1.267,-1.2345,-1.2589,-1.2663,-1.2338,-1.2305,-1.2305,0.0,-1.2616,-1.3038,-1.3547,-1.3606,-1.374,-1.4075,-1.4088,-1.4088,-1.4088,-1.4088,-1.4088,-1.4088,-1.4088,-1.4088,-1.4088,-1.4088,-1.4088,-1.4075,-1.3746,-1.3613,-1.3586,-1.3327,-1.3026,-1.2784,-1.277,-1.2017,-1.0864,-1.0864,-1.0265,-0.9258,-0.8237,-0.8466,-0.9145,-0.8118,-0.7092,-0.6242,-0.5895,-0.5793,-0.5742,-0.5484,-0.5395,-0.5395,-0.5395,-0.5395,-0.5395,-0.5395,-0.5395,-0.5395,-0.5395,-0.524,-0.5056,-0.4918,-0.4796,-0.4668,-0.4518,-0.4491,-0.4491,-0.4491,-0.4491,-0.4491,-0.4491,-0.4491,-0.4491,-0.4491,-0.4491,-0.4491,-0.4491,-0.4491,-0.4429,-0.4207,-0.419,-0.4089,-0.3812,-0.3788,-0.3747,-0.3607,-0.3604,-0.3604,-0.3604,-0.3604,-0.3604,-0.3604,-0.3604,-0.3604,-0.3604,-0.3604,-0.3604,0.0,0.0,-1.3288,-1.4923,-1.4965,-1.4547,-1.4447,-1.4206,-1.3686,-1.2706,-1.2263,-1.1888,-1.1391,-1.1289,-1.1349,-1.1543,-1.2064,-1.2418,-1.2318,-1.2739,-1.2866,-1.2358,-1.2516,0.0,0.0,0.0,0.0,-1.3327,-1.3493,-1.3733,-1.4075,-1.4088,-1.4088,-1.4088,-1.4088,-1.4088,-1.4088,-1.4088,-1.4088,-1.4088,-1.4088,-1.4088,-1.4082,-1.3981,-1.3941,-1.3908,-1.342,-1.2785,-1.2054,-1.1644,-1.0796,-0.982,-0.982,-0.9593,-0.9258,-0.8917,-0.858,-0.8161,-0.7138,-0.6567,-0.6265,-0.602,-0.5884,-0.5766,-0.5572,-0.5477,-0.5395,-0.5395,-0.5395,-0.5395,-0.5395,-0.5395,-0.5395,-0.5395,-0.5172,-0.5098,-0.5529,-0.5434,-0.5207,-0.5175,-0.5164,-0.503,-0.457,-0.4491,-0.4491,-0.4491,-0.4491,-0.4491,-0.4491,-0.4491,-0.4491,-0.4491,-0.4491,-0.447,-0.4395,-0.4277,-0.4153,-0.4075,-0.3904,-0.3771,-0.3747,-0.3651,-0.3604,-0.3604,-0.3604,-0.3604,-0.3604,-0.3604,-0.3604,-0.3604,-0.3604,-0.3604,0.0,-1.2985,-1.36,-1.4748,-1.4612,-1.4108,-1.3658,-1.3287,-1.2778,-1.1776,-1.1323,-1.1029,-1.0735,-1.0681,-1.0808,-1.1202,-1.185,-1.2338,-1.2445,-1.2979,-1.314,-1.2685,-1.2792,0.0,0.0,0.0,0.0,-1.32,-1.344,-1.3733,-1.4075,-1.4088,-1.4088,-1.4088,-1.4088,-1.4088,-1.4088,-1.4088,-1.4088,-1.4088,-1.4088,-1.4088,-1.4088,-1.4088,-1.4088,-1.4062,-1.3574,-1.2734,-1.1666,-1.115,-1.0084,-0.8765,-0.8765,-0.8542,-0.8237,-0.8237,-0.7821,-0.7211,-0.6945,-0.6606,-0.6276,-0.6078,-0.5925,-0.5776,-0.5633,-0.5518,-0.5395,-0.5395,-0.5395,-0.5395,-0.5395,-0.5395,-0.5395,-0.5395,-0.5248,-0.5279,-0.5982,-0.5986,-0.5861,-0.6031,-0.6059,-0.5816,-0.4987,-0.4653,-0.4491,-0.4491,-0.4491,-0.4491,-0.4491,-0.4491,-0.4491,-0.4491,-0.4491,-0.4491,-0.4491,-0.4379,-0.4277,-0.42,-0.4038,-0.3907,-0.3795,-0.3726,-0.3655,-0.3604,-0.3604,-0.3604,-0.3604,-0.3604,-0.3604,-0.3604,-0.3604,-0.3604,-1.179,-1.3052,-1.4264,-1.4424,-1.4038,-1.3555,-1.3299,-1.2516,-1.1712,-1.1089,-1.076,-1.0452,0.0,0.0,-1.0281,-1.0855,-1.171,-1.2405,-1.2744,-1.328,-1.3513,0.0,0.0,0.0,0.0,0.0,0.0,-1.3233,0.0,-1.3733,-1.4075,-1.4088,-1.4088,-1.4088,-1.4088,-1.4088,-1.4088,-1.4088,-1.4088,-1.4088,-1.4088,-1.4088,-1.4088,-1.4088,-1.4088,-1.4075,-1.3685,-1.2772,-1.1604,-1.1183,-0.9725,-0.7706,-0.7706,-0.7138,-0.63,-0.63,-0.63,-0.6451,-0.7403,-0.7099,-0.6276,-0.6091,-0.5939,-0.5786,-0.5644,-0.5528,-0.5405,-0.5395,-0.5395,-0.5395,-0.5395,-0.5395,-0.5395,-0.5395,-0.5388,-0.557,-0.6299,-0.6433,-0.6559,-0.7057,-0.7108,-0.6745,-0.5681,-0.4976,-0.4546,-0.4519,-0.4491,-0.4491,-0.4491,-0.4491,-0.4491,-0.4491,-0.4491,-0.4491,-0.4491,-0.4491,-0.4429,-0.4214,-0.42,-0.4092,-0.3826,-0.3809,-0.3737,-0.3617,-0.3614,-0.361,-0.3604,-0.3604,-0.3604,-0.3604,-0.3604,-0.3607,-1.3316,-1.3608,-1.3623,-1.3856,-1.3288,-1.2583,-1.2323,-1.1872,-1.1376,-1.0827,-1.0291,-0.9775,-0.9239,0.0,0.0,-1.0281,-1.1443,0.0,-1.2744,-1.3494,0.0,0.0,0.0,-1.3407,-1.3233,-1.3367,0.0,0.0,-1.356,-1.3733,-1.4075,-1.4088,-1.4088,-1.4088,-1.4088,-1.4088,-1.4088,-1.4088,-1.4088,-1.4088,-1.4088,-1.4088,-1.4088,-1.4088,-1.4088,-1.4026,-1.2831,-1.1682,-1.0509,-0.9315,-0.7982,-0.6679,-0.6679,-0.6528,-0.63,-0.63,-0.63,-0.6338,-0.6606,-0.6528,-0.6293,-0.6252,-0.6098,-0.5905,-0.5793,-0.5647,-0.5542,-0.5426,-0.5395,-0.5395,-0.5395,-0.5395,-0.5395,-0.5395,-0.5274,-0.5556,-0.6925,-0.6979,-0.6987,-0.7762,-0.7284,-0.6457,-0.5632,-0.5351,-0.5085,-0.457,-0.4491,-0.4491,-0.4491,-0.4491,-0.4491,-0.4491,-0.4491,-0.4491,-0.4491,-0.4491,-0.4474,-0.4436,-0.4281,-0.416,-0.4109,-0.3998,-0.389,-0.3764,-0.3761,-0.3709,-0.3604,-0.3604,-0.3604,-0.3604,-0.3604,-0.3658,-1.3103,-1.3354,-1.3414,-1.3165,-1.2599,-1.2004,-1.1618,-1.1156,-1.0648,-0.994,-0.9454,0.0,0.0,0.0,0.0,0.0,0.0,0.0,-1.269,-1.3407,-1.3821,0.0,-1.3741,0.0,-1.3614,-1.3741,-1.3841,0.0,-1.3841,-1.3908,-1.4082,-1.4088,-1.4088,-1.4088,-1.4088,-1.4088,-1.4088,-1.4088,-1.3822,-1.3294,-1.3294,-1.3294,-1.3294,-1.3294,-1.3294,-1.3275,0.0,-1.0933,-0.9325,-0.84,-0.7321,-0.63,-0.63,-0.63,-0.63,-0.63,-0.63,-0.63,-0.63,-0.63,-0.63,-0.63,-0.6156,-0.5976,-0.5928,-0.5755,-0.5572,-0.5521,-0.5446,-0.5395,-0.5395,-0.5395,-0.5395,-0.5395,-0.5327,-0.5582,-0.688,-0.7269,-0.7673,-0.8667,-0.7893,-0.6961,-0.6551,-0.5923,-0.5378,-0.5003,-0.4677,-0.4491,-0.4491,-0.4491,-0.4491,-0.4491,-0.4491,-0.4491,-0.4491,-0.4491,-0.4491,-0.4491,-0.4389,-0.4287,-0.4197,-0.4139,-0.3991,-0.3795,-0.3792,-0.3744,-0.3604,-0.3604,-0.3604,-0.3604,-0.3665,-0.3706,-1.229,-1.2892,-1.3455,-1.2519,-1.2051,-1.1705,-1.1116,-1.0474,-0.9744,-0.8971,0.0,0.0,-0.7899,0.0,-0.8717,-0.9492,0.0,-1.1437,-1.2616,-1.3233,-1.3666,-1.4048,-1.4088,-1.4088,-1.4088,-1.4088,-1.4088,-1.4088,-1.4088,-1.4088,-1.4088,-1.4088,-1.4088,-1.4088,-1.4088,-1.4088,-1.4088,-1.3955,-1.3336,-1.2285,-1.2157,-1.2072,-1.2072,-1.2072,-1.2072,-1.2054,-1.1634,0.0,-0.8384,-0.7961,-0.7207,-0.63,-0.63,-0.63,-0.63,-0.63,-0.63,-0.63,-0.63,-0.63,-0.63,-0.63,-0.6169,-0.602,-0.6,-0.5837,-0.5613,-0.5596,-0.5515,-0.5395,-0.5395,-0.5395,-0.5395,-0.5395,-0.5395,-0.5657,-0.6527,-0.7446,-0.8417,-0.9441,-0.87,-0.7872,-0.7729,-0.6632,-0.5733,-0.5538,-0.5003,-0.4598,-0.4519,-0.4491,-0.4491,-0.4491,-0.4491,-0.4491,-0.4491,-0.4491,-0.4491,-0.4491,-0.4491,-0.4433,-0.4257,-0.425,-0.4119,-0.386,-0.3853,-0.3782,-0.3662,-0.3662,-0.3651,-0.3634,-0.3754,-0.3754,-1.3285,-1.352,-1.3455,-1.2519,-1.1897,-1.141,-1.1069,-1.0167,0.0,0.0,0.0,-0.7892,-0.7625,-0.8196,0.0,-0.9224,0.0,0.0,0.0,0.0,-1.3487,0.0,0.0,0.0,0.0,0.0,0.0,0.0,0.0,-1.4088,-1.4088,-1.4088,-1.4088,-1.4088,-1.4088,-1.4088,-1.4088,-1.3118,-1.2498,-1.2279,-1.1338,-1.0907,-1.0907,-1.0907,-1.0907,-1.0811,-0.9743,0.0,-0.8302,-0.721,-0.6584,-0.63,-0.63,-0.63,-0.63,-0.63,-0.63,-0.63,-0.63,-0.63,-0.63,-0.63,-0.6282,-0.6235,-0.6067,-0.5905,-0.5739,-0.5623,-0.5515,-0.5395,-0.5395,-0.5395,-0.5395,-0.5395,-0.5395,-0.5657,-0.6527,-0.7741,-0.8774,-0.9199,-0.9093,-0.8669,-0.7839,-0.7477,-0.6902,-0.5678,-0.5406,-0.5136,-0.457,-0.4491,-0.4491,-0.4491,-0.4491,-0.4491,-0.4491,-0.4491,-0.4491,-0.4491,-0.4491,-0.4481,-0.4453,-0.4453,-0.4345,-0.4146,-0.4142,-0.4068,-0.392,-0.392,-0.388,-0.3758,-0.391,-0.3944,-1.2707,-1.2869,-1.2844,-1.2256,-1.1637,-1.1049,-1.0448,0.0,0.0,0.0,0.0,-0.7028,-0.7028,0.0,0.0,0.0,0.0,0.0,0.0,0.0,0.0,0.0,0.0,0.0,0.0,0.0,0.0,0.0,0.0,-1.4088,-1.4088,-1.4088,-1.4088,-1.4088,-1.4088,-1.4088,-1.4088,-1.2899,-1.198,-1.1381,-1.0265,-0.971,-0.9705,-0.9637,-0.9629,-0.9577,-0.8871,0.0,-0.7373,-0.6739,-0.6429,-0.63,-0.63,-0.63,-0.63,-0.63,-0.63,-0.63,-0.63,-0.63,-0.6286,-0.6166,-0.6235,-0.6272,-0.6074,-0.5922,-0.5772,-0.563,-0.5515,-0.5395,-0.5395,-0.5752,-0.598,-0.5491,-0.5395,-0.5752,-0.7079,-0.7431,-0.7858,-0.9195,-0.8968,-0.8466,-0.8306,-0.7963,-0.745,-0.674,-0.6308,-0.5819,-0.5109,-0.503,-0.4893,-0.4546,-0.4491,-0.4491,-0.4491,-0.4491,-0.4491,-0.4491,-0.4491,-0.4491,-0.4491,-0.4491,-0.4395,-0.42,-0.4197,-0.4146,-0.3994,-0.3994,-0.4175,-0.4486,-0.4611,-0.4642,-1.1873,-1.2084,-1.2231,-1.198,-1.1417,-1.0688,-0.9896,-0.8724,0.0,0.0,0.0,-0.6283,-0.6553,0.0,0.0,0.0,0.0,0.0,0.0,0.0,0.0,0.0,0.0,0.0,0.0,0.0,0.0,0.0,0.0,0.0,-1.4088,-1.4088,-1.4088,-1.4088,-1.3864,-1.3688,-1.3688,-1.2553,-1.1509,-1.0611,-0.9449,-0.8869,-0.8822,-0.8465,-0.8294,-0.8245,-0.8061,0.0,0.0,-0.6477,-0.6402,-0.63,-0.63,-0.63,-0.63,-0.63,-0.63,-0.63,-0.63,-0.63,-0.6276,-0.6078,-0.6112,-0.6183,-0.6027,-0.5874,-0.5732,-0.5623,-0.5515,-0.5395,-0.5395,-0.6042,-0.6523,-0.5848,-0.5524,-0.5818,-0.7377,-0.6989,-0.6867,-0.8817,-0.8546,-0.8131,-0.8512,-0.8209,-0.7883,-0.7723,-0.7208,-0.6502,-0.5624,-0.5515,-0.5246,-0.457,-0.4491,-0.4491,-0.4491,-0.4491,-0.4491,-0.4491,-0.4491,-0.4491,-0.4491,-0.4491,-0.4436,-0.4271,-0.4267,-0.421,-0.4114,-0.4114,-0.4372,-0.4911,-0.5194,-0.5259,-1.1759,-1.2084,-1.2231,-1.198,-1.1263,-1.0472,-0.9849,0.0,0.0,0.0,-0.6579,-0.6283,-0.6553,-0.6827,0.0,0.0,0.0,0.0,0.0,0.0,0.0,0.0,0.0,0.0,0.0,0.0,0.0,0.0,0.0,0.0,-1.4088,-1.4088,-1.4088,-1.4088,-1.3033,-1.2456,-1.2456,-1.1343,-1.0697,-1.0611,-0.9449,-0.8845,-0.8675,-0.7567,-0.702,-0.6874,-0.6718,0.0,0.0,-0.6371,-0.6313,-0.63,-0.63,-0.63,-0.63,-0.63,-0.63,-0.63,-0.63,-0.63,-0.6276,-0.6078,-0.6,-0.5986,-0.5867,-0.5722,-0.5606,-0.5593,-0.5515,-0.5395,-0.5395,-0.6042,-0.6687,-0.6588,-0.5976,-0.5653,-0.6621,-0.6739,-0.6811,-0.74,-0.7982,-0.823,-0.7859,-0.8295,-0.848,-0.7803,-0.7643,-0.7095,-0.5678,-0.5515,-0.5246,-0.457,-0.4491,-0.4491,-0.4491,-0.4491,-0.4491,-0.4491,-0.4491,-0.4491,-0.4491,-0.4491,-0.4484,-0.447,-0.447,-0.4464,-0.445,-0.445,-0.4382,-0.4308,-0.5115,-0.5424,-1.1048,-1.1416,-1.1703,-1.1416,-1.0808,-1.0094,-0.9332,0.0,0.0,-0.662,-0.6057,-0.5806,-0.6277,-0.6445,-0.6814,0.0,-0.7946,-0.845,0.0,0.0,0.0,0.0,0.0,0.0,0.0,0.0,0.0,0.0,0.0,0.0,-1.4088,-1.4088,-1.3779,-1.3033,-1.3252,-1.3027,-1.2328,-1.1852,-1.1225,-1.0493,-0.9312,-0.8326,-0.7488,-0.6898,-0.662,-0.6556,-0.645,0.0,0.0,-0.6323,-0.63,-0.63,-0.63,-0.63,-0.63,-0.63,-0.63,-0.63,-0.63,-0.6238,-0.6095,-0.5942,-0.5833,-0.5752,-0.5691,-0.5633,-0.5569,-0.5515,-0.5443,-0.5395,-0.5395,-0.6042,-0.6817,-0.7372,-0.6822,-0.6268,-0.6621,-0.6301,-0.6197,-0.7105,-0.7116,-0.6983,-0.7019,-0.7643,-0.8049,-0.775,-0.8076,-0.783,-0.6362,-0.6172,-0.5741,-0.4625,-0.4491,-0.4491,-0.4491,-0.4491,-0.4491,-0.4491,-0.4491,-0.4491,-0.4491,-0.4491,-0.4491,-0.4491,-0.4491,-0.4491,-0.4491,-0.4491,-0.4676,-0.5015,-0.5783,-0.6134,-1.0412,-1.0855,-1.1202,-1.0828,-1.0421,-0.9866,0.0,0.0,-0.6854,-0.631,-0.5775,-0.5574,-0.6102,-0.6263,-0.6586,-0.7363,-0.7564,-0.7956,-0.8944,0.0,0.0,0.0,0.0,0.0,0.0,0.0,0.0,0.0,0.0,0.0,0.0,-1.4088,-1.3688,-1.2857,-1.3294,-1.316,-1.2328,-1.2285,-1.1812,-1.0814,-0.9732,-0.8647,-0.756,-0.6841,-0.6491,-0.6443,0.0,0.0,0.0,-0.63,-0.63,-0.63,-0.63,-0.63,-0.63,-0.63,-0.63,-0.6293,-0.6245,-0.6122,-0.5959,-0.5803,-0.5671,-0.5583,-0.5569,-0.5556,-0.5535,-0.5426,-0.5395,-0.5458,-0.5719,-0.6235,-0.6915,-0.78,-0.7535,-0.7013,-0.6752,-0.6203,-0.5942,-0.648,-0.6259,-0.6053,-0.6247,-0.688,-0.7369,-0.7369,-0.7803,-0.7691,-0.6448,-0.6285,-0.5823,-0.4625,-0.4491,-0.4491,-0.4491,-0.4491,-0.4491,-0.4491,-0.4491,-0.4491,-0.4491,-0.4491,-0.4491,-0.4491,-0.4491,-0.4491,-0.4491,-0.4491,-0.4732,-0.5218,-0.5928,-0.6394,-0.993,-1.0555,-1.0855,-1.0267,-1.009,-0.9813,0.0,-0.7675,-0.6854,-0.631,-0.5936,-0.5798,-0.6135,-0.6412,-0.6801,-0.739,-0.7722,-0.8105,-0.8724,0.0,0.0,0.0,0.0,0.0,0.0,0.0,0.0,0.0,0.0,0.0,0.0,-1.4088,-1.4088,-1.4088,-1.2942,-1.2328,-1.2285,-1.2285,-1.2156,-1.1863,-1.0856,-1.0126,-0.9591,-0.7462,-0.6436,0.0,0.0,0.0,0.0,-0.63,-0.63,-0.63,-0.63,-0.63,-0.63,-0.63,-0.63,-0.6279,-0.6084,-0.5993,-0.5946,-0.5688,-0.5593,-0.5562,-0.5443,-0.5395,-0.5395,-0.5395,-0.5395,-0.5591,-0.6461,-0.6687,-0.6915,-0.78,-0.7994,-0.7767,-0.6883,-0.6687,-0.6322,-0.5156,-0.5517,-0.5902,-0.5578,-0.6118,-0.6615,-0.6615,-0.6615,-0.6367,-0.5597,-0.5515,-0.5246,-0.457,-0.4491,-0.4491,-0.4491,-0.4491,-0.4491,-0.4491,-0.4491,-0.4491,-0.4491,-0.4491,-0.4491,-0.4491,-0.4491,-0.4491,-0.4491,-0.4491,-0.4519,-0.4515,-0.5191,-0.59,-0.8598,-0.9171,-0.9624,-0.9072,-0.8925,-0.8778,-0.8203,-0.7375,-0.662,-0.6277,-0.5936,-0.5805,-0.6135,-0.6412,-0.6854,-0.7655,-0.7846,0.0,0.0,0.0,0.0,0.0,0.0,0.0,0.0,0.0,0.0,0.0,0.0,0.0,0.0,-1.3895,-1.3487,-1.2893,-1.3063,-1.2796,-1.2022,-1.2609,-1.2426,-1.139,-1.0391,-0.9404,-0.8369,-0.6986,0.0,0.0,0.0,0.0,0.0,-0.63,-0.63,-0.63,-0.63,-0.63,-0.63,-0.63,-0.63,-0.6293,-0.6242,-0.6051,-0.5857,-0.5766,-0.5599,-0.5457,-0.5409,-0.5395,-0.5395,-0.5395,-0.5395,-0.5591,-0.6461,-0.7144,-0.7665,-0.7929,-0.8452,-0.8484,-0.7013,-0.6687,-0.6355,-0.5126,-0.51,-0.5143,-0.4873,-0.5382,-0.5846,-0.5846,-0.6285,-0.634,-0.5597,-0.5515,-0.5246,-0.457,-0.4491,-0.4491,-0.4491,-0.4491,-0.4491,-0.4491,-0.4491,-0.4491,-0.4491,-0.4491,-0.4491,-0.4491,-0.4491,-0.4491,-0.4491,-0.4491,-0.4732,-0.5191,-0.5406,-0.5624,0.0,-0.8218,-0.8631,-0.8297,-0.821,-0.8096,-0.7659,-0.6987,-0.6365,-0.6064,-0.5845,-0.5805,-0.6135,-0.6412,-0.6807,-0.7459,-0.7759,0.0,0.0,0.0,0.0,0.0,0.0,0.0,0.0,0.0,0.0,0.0,0.0,0.0,0.0,-1.3641,-1.3181,-1.2675,-1.3153,-1.3103,-1.2388,-1.2928,-1.2537,-1.1194,-1.0172,-0.9043,-0.7783,-0.6756,0.0,0.0,0.0,0.0,0.0,-0.63,-0.63,-0.63,-0.63,-0.63,-0.63,-0.63,-0.63,-0.6289,-0.6231,-0.601,-0.5793,-0.5739,-0.5593,-0.5395,-0.5395,-0.5395,-0.5395,-0.5395,-0.5395,-0.5524,-0.6075,-0.6854,-0.7502,-0.7502,-0.8188,-0.842,-0.7013,-0.6687,-0.6355,-0.5126,-0.4887,-0.4823,-0.4542,-0.4842,-0.5136,-0.5136,-0.5523,-0.5632,-0.5191,-0.5136,-0.4976,-0.4546,-0.4491,-0.4491,-0.4491,-0.4491,-0.4491,-0.4491,-0.4491,-0.4491,-0.4491,-0.4491,-0.4491,-0.4491,-0.4491,-0.4491,-0.4491,-0.4491,-0.4708,-0.5136,-0.5136,-0.5273,0.0,-0.7582,-0.7799,-0.7759,-0.7766,-0.7632,-0.7066,-0.6546,0.0,-0.5772,-0.5694,-0.5812,-0.6169,-0.6425,-0.6713,-0.7066,0.0,0.0,0.0,0.0,0.0,0.0,0.0,0.0,0.0,0.0,0.0,0.0,0.0,0.0,0.0,-1.334,-1.318,-1.318,-1.3074,-1.3074,-1.318,-1.316,-1.2485,-1.1165,-1.0146,-0.9029,-0.7783,-0.6756,0.0,0.0,0.0,0.0,0.0,-0.63,-0.63,-0.63,-0.63,-0.63,-0.63,-0.63,-0.6293,-0.6262,-0.6078,-0.5922,-0.5762,-0.562,-0.5511,-0.5395,-0.5395,-0.5395,-0.5395,-0.5395,-0.5395,-0.5395,-0.5395,-0.6042,-0.6687,-0.6687,-0.7372,-0.7767,-0.6883,-0.6687,-0.6355,-0.5126,-0.4887,-0.4823,-0.4542,-0.4491,-0.4491,-0.4491,-0.4491,-0.4491,-0.4491,-0.4491,-0.4491,-0.4491,-0.4491,-0.4491,-0.4491,-0.4491,-0.4491,-0.4491,-0.4491,-0.4491,-0.4491,-0.4491,-0.4491,-0.4491,-0.4491,-0.4491,-0.4491,-0.4491,-0.4491,-0.4491,-0.4491,-0.4842,-0.5945,0.0,-0.6794,-0.6327,-0.6406,-0.6559,0.0,-0.6097,-0.5798,-0.5708,0.0,-0.5872,-0.6412,-0.6559,-0.6987,0.0,0.0,0.0,0.0,0.0,0.0,0.0,0.0,0.0,0.0,0.0,0.0,0.0,0.0,0.0,0.0,-1.3019,-1.2898,-1.2898,-1.1891,-1.1847,-1.2891,-1.2632,-1.1978,-1.0883,-0.9867,-0.8851,-0.7783,-0.6756,0.0,0.0,0.0,0.0,-0.63,-0.63,-0.63,-0.63,-0.63,-0.63,-0.63,-0.63,-0.6186,-0.6078,-0.6003,-0.5857,-0.5613,-0.5498,-0.5426,-0.5395,-0.5395,-0.5395,-0.5395,-0.5395,-0.5395,-0.5395,-0.5395,-0.6042,-0.6687,-0.6687,-0.7372,-0.7767,-0.6883,-0.6687,-0.6355,-0.5126,-0.4887,-0.4823,-0.4542,-0.4491,-0.4491,-0.4491,-0.4491,-0.4491,-0.4491,-0.4491,-0.4491,-0.4491,-0.4491,-0.4491,-0.4491,-0.4491,-0.4491,-0.4491,-0.4491,-0.4491,-0.4491,-0.4491,-0.4491,-0.4491,-0.4491,-0.4491,-0.4491,-0.4491,-0.4491,-0.4491,-0.4491,-0.4598,-0.5175,-0.5939,-0.6546,-0.634,-0.6333,-0.6391,-0.6391,0.0,0.0,0.0,0.0,-0.5892,-0.648,0.0,0.0,0.0,0.0,0.0,0.0,0.0,0.0,0.0,0.0,0.0,0.0,0.0,0.0,0.0,0.0,0.0,0.0,-1.2311,-1.1879,-1.1879,-1.0715,-1.0671,-1.1879,-1.1241,-1.0421,-0.9399,-0.8879,-0.8084,-0.7099,-0.6567,-0.63,0.0,0.0,0.0,-0.63,-0.63,-0.63,-0.6293,-0.6183,-0.6238,-0.6282,-0.6139,-0.604,-0.5983,-0.5912,-0.5779,-0.5566,-0.5443,-0.5395,-0.5395,-0.5395,-0.5395,-0.5395,-0.5395,-0.5395,-0.5395,-0.5395,-0.5752,-0.6108,-0.6108,-0.6465,-0.6662,-0.6207,-0.6108,-0.5881,-0.5068,-0.4887,-0.4823,-0.4542,-0.4491,-0.4491,-0.4491,-0.4491,-0.4491,-0.4491,-0.4491,-0.4491,-0.4491,-0.4491,-0.4491,-0.4491,-0.4491,-0.4491,-0.4491,-0.4491,-0.4491,-0.4491,-0.4491,-0.4491,-0.4491,-0.4491,-0.4491,-0.4491,-0.4491,-0.4491,-0.4491,-0.4491,-0.4491,-0.4827,-0.5748,-0.6627,-0.676,-0.6707,-0.66,-0.6553,0.0,0.0,0.0,0.0,0.0,0.0,0.0,0.0,0.0,0.0,0.0,0.0,0.0,0.0,0.0,0.0,0.0,0.0,0.0,0.0,0.0,0.0,0.0,0.0,-1.1252,-1.0565,-1.0565,-0.9593,-0.948,-1.0335,-0.9631,-0.8803,-0.7783,-0.7783,-0.7288,-0.63,-0.63,-0.63,-0.63,0.0,0.0,-0.63,-0.63,-0.63,-0.6286,-0.6115,-0.6132,-0.6231,-0.5932,-0.5888,-0.5902,-0.5786,-0.5654,-0.5569,-0.5436,-0.5395,-0.5395,-0.5395,-0.5395,-0.5395,-0.5395,-0.5395,-0.5395,-0.5395,-0.5395,-0.5395,-0.5395,-0.5395,-0.5395,-0.5395,-0.5395,-0.5313,-0.5003,-0.4904,-0.483,-0.4576,-0.4505,-0.4491,-0.4491,-0.4491,-0.4491,-0.4491,-0.4491,-0.4491,-0.4491,-0.4491,-0.4491,-0.4491,-0.4491,-0.4491,-0.4491,-0.4491,-0.4491,-0.4491,-0.4491,-0.4491,-0.4491,-0.4491,-0.4491,-0.4491,-0.4491,-0.4491,-0.4491,-0.4491,-0.4491,-0.5281,-0.6072,-0.648,-0.6007,-0.6253,-0.6546,-0.6317,0.0,0.0,0.0,0.0,0.0,0.0,0.0,0.0,0.0,0.0,0.0,0.0,0.0,0.0,0.0,0.0,0.0,0.0,0.0,0.0,0.0,0.0,0.0,0.0,-1.0099,-0.9518,-0.9518,-0.8537,-0.8122,-0.8271,-0.8955,-0.8803,-0.7783,-0.7783,-0.7288,-0.63,-0.63,-0.63,-0.63,0.0,-0.63,-0.63,-0.63,-0.63,-0.6296,-0.6272,-0.6159,-0.6023,-0.5976,-0.585,-0.5637,-0.5518,-0.5446,-0.5426,-0.5402,-0.5395,-0.5395,-0.5395,-0.5395,-0.5395,-0.5395,-0.5395,-0.5395,-0.5395,-0.5395,-0.5395,-0.5395,-0.5395,-0.5395,-0.5395,-0.5395,-0.5344,-0.51,-0.4972,-0.4863,-0.4684,-0.4576,-0.4491,-0.4491,-0.4491,-0.4491,-0.4491,-0.4491,-0.4491,-0.4491,-0.4491,-0.4491,-0.4491,-0.4491,-0.4491,-0.4491,-0.4491,-0.4491,-0.4491,-0.4491,-0.4491,-0.4491,-0.4491,-0.4491,-0.4491,-0.4491,-0.4491,-0.4491,-0.4491,-0.4491,-0.4762,-0.5551,-0.6126,-0.6172,-0.6754,-0.7281,-0.7148,0.0,0.0,0.0,0.0,0.0,0.0,0.0,0.0,0.0,0.0,0.0,0.0,0.0,0.0,0.0,0.0,0.0,0.0,0.0,0.0,0.0,0.0,0.0,0.0,0.0,-0.8504,-0.8504,-0.7518,-0.6984,-0.6984,-0.7442,-0.7442,-0.6984,-0.6984,-0.6756,-0.63,-0.63,-0.63,-0.63,0.0,-0.63,-0.63,-0.63,-0.6248,-0.6129,-0.6044,-0.5969,-0.5895,-0.582,-0.5654,-0.5491,-0.5419,-0.5395,-0.5395,-0.5395,-0.5395,-0.5395,-0.5395,-0.5395,-0.5395,-0.5395,-0.5395,-0.5395,-0.5395,-0.5395,-0.5395,-0.5395,-0.5395,-0.5395,-0.5395,-0.5395,-0.5324,-0.5029,-0.4931,-0.4843,-0.4638,-0.4539,-0.4491,-0.4491,-0.4491,-0.4491,-0.4491,-0.4491,-0.4491,-0.4491,-0.4491,-0.4491,-0.4491,-0.4491,-0.4491,-0.4491,-0.4491,-0.4491,-0.4491,-0.4491,-0.4491,-0.4491,-0.4491,-0.4491,-0.4491,-0.4491,-0.4491,-0.4491,-0.4491,-0.4491,-0.4409,-0.5097,-0.5798,-0.662,-0.7315,-0.7839,-0.7979,-0.7599,0.0,0.0,0.0,0.0,0.0,0.0,0.0,0.0,0.0,0.0,0.0,0.0,0.0,0.0,0.0,0.0,0.0,0.0,0.0,0.0,0.0,0.0,0.0,0.0,-0.7442,-0.7442,-0.6718,-0.6282,-0.6245,-0.6282,-0.63,-0.63,-0.6262,-0.6245,-0.6245,-0.6207,-0.619,-0.619,-0.619,-0.619,-0.619,-0.619,-0.6084,-0.5929,-0.5847,-0.5779,-0.5735,-0.5589,-0.5494,-0.5395,-0.5395,-0.5259,-0.5123,-0.5329,-0.5259,-0.5123,-0.5326,-0.5395,-0.5395,-0.5395,-0.5395,-0.5395,-0.5395,-0.5395,-0.5395,-0.5395,-0.5395,-0.5395,-0.5395,-0.5395,-0.5317,-0.502,-0.4911,-0.4833,-0.459,-0.4515,-0.4491,-0.4491,-0.4491,-0.4491,-0.4491,-0.4491,-0.4491,-0.4491,-0.4491,-0.4491,-0.4491,-0.4491,-0.4491,-0.4491,-0.4491,-0.4491,-0.4491,-0.4491,-0.4491,-0.4491,-0.4491,-0.4491,-0.4491,-0.4491,-0.4491,-0.4491,-0.4491,-0.4405,-0.4925,-0.528,-0.5662,-0.7075,-0.7471,-0.7672,-0.8241,-0.8096,0.0,-0.8564,0.0,0.0,0.0,0.0,0.0,0.0,0.0,0.0,0.0,0.0,0.0,0.0,0.0,0.0,0.0,0.0,0.0,0.0,0.0,0.0,0.0,0.0,0.0,-0.6412,-0.6338,-0.6193,-0.601,-0.619,-0.63,-0.6296,-0.6115,-0.601,-0.6003,-0.5901,-0.5833,-0.5833,-0.5833,-0.5833,-0.5833,-0.5833,-0.5827,-0.5817,-0.5803,-0.5722,-0.5586,-0.5467,-0.5402,-0.5395,-0.5395,-0.4821,-0.4251,-0.5123,-0.4821,-0.4251,-0.5126,-0.5395,-0.5395,-0.5395,-0.5395,-0.5395,-0.5395,-0.5395,-0.5395,-0.5395,-0.5395,-0.5395,-0.5395,-0.5395,-0.5347,-0.5113,-0.4978,-0.4867,-0.4704,-0.4586,-0.4491,-0.4491,-0.4491,-0.4491,-0.4491,-0.4491,-0.4491,-0.4491,-0.4491,-0.4491,-0.4491,-0.4491,-0.4491,-0.4491,-0.4491,-0.4491,-0.4491,-0.4491,-0.4491,-0.4491,-0.4491,-0.4491,-0.4491,-0.4491,-0.4491,-0.4491,-0.4491,-0.4125,-0.4516,-0.513,-0.5812,-0.6914,-0.7475,0.0,0.0,-0.8671,-0.8831,-0.9265,-0.9439,0.0,0.0,0.0,0.0,0.0,0.0,0.0,0.0,0.0,0.0,0.0,0.0,0.0,0.0,0.0,0.0,0.0,0.0,0.0,0.0,0.0,0.0,-0.5976,-0.5976,-0.5945,-0.5888,-0.5945,-0.5976,-0.5976,-0.6013,-0.5942,-0.5884,-0.5827,-0.58,-0.58,-0.58,-0.58,-0.58,-0.58,-0.5749,-0.5661,-0.56,-0.5528,-0.5474,-0.5416,-0.5395,-0.5329,-0.4722,-0.4284,-0.3982,-0.3782,-0.348,-0.3347,-0.4251,-0.4519,-0.4652,-0.5226,-0.5395,-0.5395,-0.5395,-0.5395,-0.5395,-0.5395,-0.5395,-0.5395,-0.5395,-0.5395,-0.532,-0.5047,-0.4924,-0.484,-0.4621,-0.4528,-0.4491,-0.4491,-0.4491,-0.4491,-0.4491,-0.4491,-0.4491,-0.4491,-0.4491,-0.4491,-0.4491,-0.4491,-0.4491,-0.4491,-0.4491,-0.4491,-0.4491,-0.4491,-0.4491,-0.4491,-0.4491,-0.4491,-0.4491,-0.3984,-0.3763,-0.379,-0.3314,-0.2926,-0.4396,-0.5102,-0.5907,-0.678,0.0,0.0,-0.8758,-0.9071,-0.9351,-0.986,0.0,0.0,0.0,0.0,0.0,0.0,0.0,0.0,0.0,0.0,0.0,0.0,0.0,0.0,0.0,0.0,0.0,0.0,0.0,0.0,0.0,0.0,0.0,0.0,-0.58,-0.5779,-0.5735,-0.5779,-0.5752,-0.5664,-0.5817,-0.5837,-0.5732,-0.5684,-0.5664,-0.5664,-0.5664,-0.5664,-0.5664,-0.5664,-0.5606,-0.5542,-0.5436,-0.5395,-0.5395,-0.5395,-0.5226,-0.4855,-0.4215,-0.3613,-0.3111,-0.2811,-0.2509,-0.241,-0.3311,-0.358,-0.3782,-0.4688,-0.4957,-0.5024,-0.5329,-0.5395,-0.5395,-0.5395,-0.5395,-0.5395,-0.5395,-0.5354,-0.5216,-0.4965,-0.488,-0.4765,-0.4535,-0.4491,-0.4491,-0.4491,-0.4491,-0.4491,-0.4491,-0.4491,-0.4491,-0.4491,-0.4491,-0.4491,-0.4491,-0.4491,-0.4491,-0.4491,-0.4491,-0.4491,-0.4491,-0.4491,-0.4491,-0.4491,-0.4491,-0.4491,-0.4491,-0.368,-0.3345,-0.3372,-0.2565,-0.2063,-0.4728,-0.5239,-0.5914,0.0,0.0,0.0,-0.9018,-0.9217,-0.9471,-1.0412,0.0,0.0,0.0,0.0,0.0,0.0,0.0,0.0,0.0,0.0,0.0,0.0,0.0,0.0,0.0,0.0,0.0,0.0,0.0,0.0,0.0,0.0,0.0,0.0,-0.5796,-0.5728,-0.5589,-0.5728,-0.565,-0.5395,-0.5549,-0.5589,-0.5583,-0.5463,-0.5395,-0.5395,-0.5395,-0.5395,-0.5395,-0.5395,-0.5395,-0.5395,-0.5395,-0.5395,-0.5395,-0.5395,-0.4821,-0.4015,-0.3982,-0.2811,-0.1441,-0.2376,-0.2043,-0.1474,-0.241,-0.2678,-0.2878,-0.3747,-0.3982,-0.4215,-0.516,-0.5395,-0.5395,-0.5395,-0.5395,-0.5395,-0.5395,-0.524,-0.5056,-0.4918,-0.4796,-0.4672,-0.4515,-0.4491,-0.4491,-0.4491,-0.4491,-0.4491,-0.4491,-0.4491,-0.4491,-0.4491,-0.4491,-0.4491,-0.4491,-0.4491,-0.4491,-0.4491,-0.4491,-0.4491,-0.4491,-0.4491,-0.4491,-0.4491,-0.4491,-0.4491,-0.4491,-0.368,-0.3317,-0.3372,-0.2565,-0.1786,-0.4773,-0.5173,0.0,0.0,0.0,0.0,0.0,-0.9706,0.0,0.0,0.0,0.0,0.0,0.0,0.0,0.0,0.0,0.0,0.0,0.0,0.0,0.0,0.0,0.0,0.0,0.0,0.0,0.0,0.0,0.0,0.0,0.0,0.0,0.0,-0.5525,-0.5504,-0.5463,-0.5504,-0.5481,-0.5395,-0.544,-0.5463,-0.5463,-0.5416,-0.5395,-0.5395,-0.5395,-0.5395,-0.5395,-0.5395,-0.5395,-0.5395,-0.5395,-0.5395,-0.5395,-0.5395,-0.4821,-0.3915,-0.3311,-0.231,-0.124,-0.0907,-0.0605,-0.0538,-0.1441,-0.1708,-0.1909,-0.2811,-0.3513,-0.4048,-0.435,-0.4891,-0.5395,-0.5395,-0.5395,-0.5395,-0.5395,-0.524,-0.5056,-0.4918,-0.4796,-0.4672,-0.4515,-0.4491,-0.4491,-0.4491,-0.4491,-0.4491,-0.4491,-0.4491,-0.4491,-0.4491,-0.4491,-0.4491,-0.4491,-0.4491,-0.4491,-0.4491,-0.4491,-0.4491,-0.4491,-0.4491,-0.4491,-0.4491,-0.4491,-0.4208,-0.3649,-0.2899,-0.2258,-0.1758,-0.1006,-0.0532,-0.5055,0.0,0.0,0.0,0.0,0.0,0.0,0.0,0.0,0.0,0.0,0.0,0.0,0.0,0.0,0.0,0.0,0.0,0.0,0.0,0.0,0.0,0.0,0.0,0.0,0.0,0.0,0.0,0.0,0.0,0.0,0.0,0.0,0.0,-0.5395,-0.5395,-0.5395,-0.5395,-0.5395,-0.5395,-0.5395,-0.5395,-0.5395,-0.5395,-0.5395,-0.5395,-0.5395,-0.5395,-0.5395,-0.5395,-0.5395,-0.5395,-0.5395,-0.5395,-0.5395,-0.5395,-0.4586,-0.3413,-0.2878,-0.1843,-0.0706,-0.0168,0.0,-0.0101,-0.0638,-0.0772,-0.0974,-0.1876,-0.2778,-0.358,-0.3915,-0.4686,-0.5395,-0.5395,-0.5395,-0.5395,-0.5395,-0.5196,-0.4988,-0.4904,-0.4748,-0.46,-0.4505,-0.4491,-0.4491,-0.4491,-0.4491,-0.4491,-0.4491,-0.4491,-0.4491,-0.4491,-0.4491,-0.4491,-0.4491,-0.4491,-0.4491,-0.4491,-0.4491,-0.4491,-0.4491,-0.4491,-0.4491,-0.4491,-0.4491,-0.4098,-0.3287,-0.2565,-0.1813,-0.109,-0.0336,0.0,-0.545,0.0,0.0,0.0,0.0,0.0,0.0,0.0,0.0,0.0,0.0,0.0,0.0,0.0,0.0,0.0,0.0,0.0,0.0,0.0,0.0,0.0,0.0,0.0,0.0,0.0,0.0,0.0,0.0,0.0,0.0,0.0,0.0,-0.5395,-0.5395,-0.5395,-0.5395,-0.5395,-0.5395,-0.5395,-0.5395,-0.5395,-0.5395,-0.5395,-0.5395,-0.5395,-0.5395,-0.5395,-0.5395,-0.5395,-0.5395,-0.5395,-0.5395,-0.5395,-0.5395,-0.5395,-0.4317,-0.2811,-0.2744,-0.1576,-0.0101,-0.0034,0.0,0.0,0.0,0.0,-0.0168,-0.104,-0.1976,-0.2911,-0.3782,-0.4686,-0.5392,-0.5378,-0.5385,-0.5392,-0.5378,-0.5118,-0.4884,-0.487,-0.4663,-0.4491,-0.4491,-0.4491,-0.4491,-0.4491,-0.4491,-0.4491,-0.4491,-0.4491,-0.4491,-0.4491,-0.4491,-0.4491,-0.4491,-0.4491,-0.4491,-0.4491,-0.4491,-0.4491,-0.4491,-0.4491,-0.4491,-0.4491,-0.4436,-0.3984,-0.3204,-0.2454,-0.173,-0.0978,-0.0308,0.0,0.0,0.0,0.0,0.0,0.0,0.0,0.0,0.0,0.0,0.0,0.0,0.0,0.0,0.0,0.0,0.0,0.0,0.0,0.0,0.0,0.0,0.0,0.0,0.0,0.0,0.0,0.0,0.0,0.0,0.0,0.0,0.0,0.0,-0.5395,-0.5395,-0.5395,-0.5395,-0.5395,-0.5395,0.0,-0.5395,-0.5395,-0.5395,-0.5395,-0.5395,-0.5395,-0.5395,-0.5395,-0.5395,-0.5395,-0.5395,-0.5395,-0.5395,-0.5395,-0.5395,-0.5395,-0.4686,-0.3613,-0.2945,-0.1976,-0.0906,-0.0236,0.0,0.0,0.0,0.0,-0.0168,-0.104,-0.1976,-0.2911,-0.3782,-0.4686,-0.5365,-0.5209,-0.5274,-0.5361,-0.5206,-0.5012,-0.4884,-0.4762,-0.4617,-0.4491,-0.4491,-0.4491,-0.4491,-0.4491,-0.4491,-0.4491,-0.4491,-0.4491,-0.4491,-0.4491,-0.4491,-0.4491,-0.4491,-0.4491,-0.4491,-0.4491,-0.4491,-0.4491,-0.4491,-0.4491,-0.4491,-0.4491,-0.3873,-0.3176,-0.2426,-0.1703,-0.095,-0.0224,-0.0084,0.0,0.0,0.0,0.0,0.0,0.0,0.0,0.0,0.0,0.0,0.0,0.0,0.0,0.0,0.0,0.0,0.0,0.0,0.0,0.0,0.0,0.0,0.0,0.0,0.0,0.0,0.0,0.0,0.0,0.0,0.0,0.0,-0.5395,-0.5395,-0.5395,-0.5324,-0.525,-0.525,-0.525,-0.525,-0.525,-0.525,-0.5216,-0.5155,-0.533,-0.5395,-0.5395,-0.5395,-0.5395,-0.5395,-0.5395,-0.5395,-0.5395,-0.5395,-0.5395,-0.5395,-0.5395,-0.4821,-0.3949,-0.348,-0.2744,-0.1809,-0.0906,-0.0638,-0.0538,-0.0135,0.0,-0.0101,-0.0562,-0.1659,-0.2694,-0.272,-0.3702,-0.4593,-0.4082,-0.4626,-0.5209,-0.5029,-0.4914,-0.4785,-0.4707,-0.4597,-0.4491,-0.4491,-0.4491,-0.4377,-0.4015,-0.4267,-0.4377,-0.4015,-0.4294,-0.4491,-0.4491,-0.4491,-0.4491,-0.4491,-0.4153,-0.4098,-0.4487,-0.4125,-0.3929,-0.3929,-0.3959,-0.3959,-0.3929,-0.3539,-0.2788,-0.1675,-0.1284,-0.0727,0.0,0.0,0.0,0.0,0.0,0.0,0.0,0.0,0.0,0.0,0.0,0.0,0.0,0.0,0.0,0.0,0.0,0.0,0.0,0.0,0.0,0.0,0.0,0.0,0.0,0.0,0.0,0.0,0.0,0.0,0.0,0.0,0.0,-0.5354,-0.533,-0.5317,-0.5317,-0.5162,-0.5063,-0.5063,-0.5063,-0.5063,-0.5063,-0.5063,-0.5002,-0.4897,-0.5176,-0.533,-0.5354,-0.5382,-0.5395,-0.5395,-0.5395,-0.5395,-0.5395,-0.5395,-0.5395,-0.5395,-0.5395,-0.4924,-0.4215,-0.4048,-0.3513,-0.2744,-0.1641,-0.1303,-0.1133,-0.0267,0.0,-0.0033,-0.0194,-0.1299,-0.2318,-0.1713,-0.2658,-0.3602,-0.2856,-0.3694,-0.4612,-0.4503,-0.4391,-0.43,-0.4275,-0.4291,-0.4294,-0.4294,-0.4405,-0.4294,-0.368,-0.4098,-0.4236,-0.3483,-0.3901,-0.4236,-0.4125,-0.4098,-0.4098,-0.4098,-0.3483,-0.34,-0.407,-0.3597,-0.3262,-0.3121,-0.3289,-0.3262,-0.2926,-0.2982,-0.2371,-0.109,-0.0978,-0.0588,0.0,0.0,0.0,0.0,0.0,0.0,0.0,0.0,0.0,0.0,0.0,0.0,0.0,0.0,0.0,0.0,0.0,0.0,0.0,0.0,0.0,0.0,0.0,0.0,0.0,0.0,0.0,0.0,0.0,0.0,0.0,0.0,0.0,-0.513,-0.5043,-0.4979,-0.4979,-0.4928,-0.4918,-0.4918,-0.4918,-0.4918,-0.4918,-0.4918,-0.4908,-0.4891,-0.4958,-0.5043,-0.5137,-0.5337,-0.5395,-0.5395,-0.5395,-0.5395,-0.5395,-0.5395,-0.5395,-0.5395,-0.5395,-0.5329,-0.509,-0.4284,-0.3915,-0.3547,-0.1842,-0.1287,-0.1133,-0.026,0.0,-0.0156,-0.09,-0.1304,-0.1648,-0.2342,-0.2682,-0.2822,-0.2587,-0.2692,-0.2846,-0.2834,-0.2794,-0.2733,-0.2569,-0.3077,-0.3539,-0.3483,-0.4042,-0.446,-0.4377,-0.4436,-0.4208,-0.3428,-0.34,-0.3204,-0.2565,-0.2508,-0.2508,-0.2508,-0.2397,-0.2397,-0.2508,-0.3065,-0.3065,-0.2369,-0.3037,-0.276,-0.1424,-0.1396,-0.1312,-0.109,-0.0448,-0.0084,0.0,0.0,0.0,0.0,0.0,0.0,0.0,0.0,0.0,0.0,0.0,0.0,0.0,0.0,0.0,0.0,0.0,0.0,0.0,0.0,0.0,0.0,0.0,0.0,0.0,0.0,0.0,0.0,0.0,0.0,0.0,0.0,-0.4982,-0.4982,-0.4921,-0.4887,-0.4887,-0.4836,-0.4792,-0.4792,-0.4792,-0.4792,-0.4792,-0.4792,-0.4748,-0.4667,-0.4752,-0.487,-0.4985,-0.5084,-0.5114,-0.5114,-0.5114,-0.5114,-0.5114,-0.5114,-0.5114,-0.5121,-0.5203,-0.5233,-0.5178,-0.4893,-0.4453,-0.3773,-0.2496,-0.1721,-0.1123,-0.0253,0.0,-0.0092,-0.0453,-0.0912,-0.1283,-0.1209,-0.1538,-0.1785,-0.1238,-0.1086,-0.1086,-0.1086,-0.174,-0.2299,-0.2209,-0.2482,-0.2704,-0.2676,-0.2982,-0.3204,-0.3204,-0.3204,-0.3093,-0.2732,-0.2676,-0.2565,-0.2232,-0.2202,-0.2202,-0.2202,-0.1813,-0.1758,-0.2174,-0.2148,-0.1953,-0.1591,-0.1925,-0.1591,-0.0504,-0.0895,-0.0895,-0.0476,-0.0168,0.0,0.0,0.0,0.0,0.0,0.0,0.0,0.0,0.0,0.0,0.0,0.0,0.0,0.0,0.0,0.0,0.0,0.0,0.0,0.0,0.0,0.0,0.0,0.0,0.0,0.0,0.0,0.0,0.0,0.0,0.0,0.0,0.0,-0.486,-0.486,-0.4823,-0.4802,-0.4802,-0.4694,-0.4662,-0.4662,-0.4662,-0.4662,-0.4662,-0.4662,-0.46,-0.4494,-0.4607,-0.4694,-0.4806,-0.4854,-0.4887,-0.4887,-0.4887,-0.4887,-0.4887,-0.4887,-0.4887,-0.4901,-0.5005,-0.5046,-0.5063,-0.5209,-0.4688,-0.3821,-0.2939,-0.2022,-0.1129,-0.0276,0.0,0.0,0.0,-0.0473,-0.0833,-0.017,-0.0485,-0.0808,-0.0141,0.0,0.0,0.0,-0.0866,-0.1647,-0.1647,-0.1786,-0.1925,-0.1925,-0.2063,-0.2202,-0.2202,-0.2202,-0.212,-0.1952,-0.1925,-0.1842,-0.1675,-0.1647,-0.1647,-0.1647,-0.1146,-0.1062,-0.1619,-0.1312,-0.1006,-0.0838,-0.1006,-0.0755,-0.0028,-0.0532,-0.056,0.0,0.0,0.0,0.0,0.0,0.0,0.0,0.0,0.0,0.0,0.0,0.0,0.0,0.0,0.0,0.0,0.0,0.0,0.0,0.0,0.0,0.0,0.0,0.0,0.0,0.0,0.0,0.0,0.0,0.0,0.0,0.0,0.0,0.0,0.0,-0.4704,-0.4704,-0.4593,-0.4515,-0.4515,-0.4505,-0.4501,-0.4501,-0.4501,-0.4501,-0.4501,-0.4501,-0.4498,-0.4491,-0.4498,-0.4505,-0.4532,-0.4792,-0.4887,-0.4887,-0.4887,-0.4887,-0.4887,-0.4887,-0.4887,-0.4891,-0.4897,-0.4897,-0.4901,-0.4908,-0.4446,-0.3671,-0.2805,-0.1963,-0.1151,-0.0266,0.0,0.0,0.0,-0.0028,-0.0056,0.0,-0.0028,-0.0056,0.0,0.0,0.0,0.0,-0.0056,-0.0112,-0.0112,-0.0671,-0.1146,-0.1146,-0.173,-0.2202,-0.2202,-0.2202,-0.1952,-0.1257,-0.1146,-0.0895,-0.0196,-0.0112,-0.0112,-0.0112,-0.0084,-0.0084,-0.0112,-0.0727,-0.0783,-0.0084,-0.0727,-0.0755,-0.0028,-0.0028,-0.0028,0.0,0.0,0.0,0.0,0.0,0.0,0.0,0.0,0.0,0.0,0.0,0.0,0.0,0.0,0.0,0.0,0.0,0.0,0.0,0.0,0.0,0.0,0.0,0.0,0.0,0.0,0.0,0.0,0.0,0.0,0.0,0.0,0.0,0.0,0.0,0.0,-0.4573,-0.4518,-0.4491,-0.4491,-0.4491,-0.4491,-0.4491,-0.4491,-0.4491,-0.4491,-0.4491,-0.4491,-0.4491,-0.4491,-0.4491,-0.4494,-0.4607,-0.4655,-0.4655,-0.4655,-0.4655,-0.4655,-0.4655,-0.4655,-0.4665,-0.4735,-0.4772,-0.4726,-0.4333,-0.3656,-0.2818,-0.2012,-0.1156,-0.041,-0.0086,0.0,0.0,0.0,0.0,0.0,0.0,0.0,0.0,0.0,0.0,0.0,0.0,0.0,0.0,0.0,-0.0224,-0.0392,-0.0392,-0.0615,-0.095,-0.1424,-0.109,-0.0866,-0.1062,-0.0699,-0.028,-0.0028,0.0,0.0,0.0,0.0,0.0,0.0,-0.0252,-0.028,0.0,-0.0252,-0.028,0.0,0.0,0.0,0.0,0.0,0.0,0.0,0.0,0.0,0.0,0.0,0.0,0.0,0.0,0.0,0.0,0.0,0.0,0.0,0.0,0.0,0.0,0.0,0.0,0.0,0.0,0.0,0.0,0.0,0.0,0.0,0.0,0.0,0.0,0.0,0.0,0.0,0.0,0.0,-0.4491,-0.4491,-0.4491,-0.4491,-0.4491,-0.4491,-0.4491,-0.4491,-0.4491,-0.4491,-0.4491,-0.4491,-0.4491,-0.4491,-0.4491,-0.4491,-0.4491,-0.4491,-0.4491,-0.4491,-0.4491,-0.4491,-0.4491,-0.4491,-0.4501,-0.4604,-0.4641,-0.454,-0.3901,-0.3095,-0.2255,-0.1483,-0.0665,0.0,0.0,0.0,0.0,0.0,0.0,0.0,0.0,0.0,0.0,0.0,0.0,0.0,0.0,0.0,0.0,0.0,0.0,0.0,0.0,0.0,-0.0168,-0.0643,-0.0308,-0.0168,-0.0671,-0.0308,0.0,0.0,0.0,0.0,0.0,0.0,0.0,0.0,0.0,0.0,0.0,0.0,0.0,0.0,0.0,0.0,0.0,0.0,0.0,0.0,0.0,0.0,0.0,0.0,0.0,0.0,0.0,0.0,0.0,0.0,0.0,0.0,0.0,0.0,0.0,0.0,0.0,0.0,0.0,0.0,0.0,0.0,0.0,0.0,0.0,0.0,0.0,0.0,0.0,0.0,0.0,-0.4491,-0.4491,-0.4491,-0.4491,-0.4491,-0.4491,-0.4491,-0.4491,-0.4491,-0.4491,-0.4491,-0.4491,-0.4491,-0.4491,-0.4491,-0.4491,-0.4491,-0.4491,-0.4491,-0.4491,-0.4491,-0.4491,-0.4491,-0.4491,-0.4491,-0.4491,-0.4491,-0.4491,-0.4349,-0.3624,-0.2843,-0.2035,-0.1312,-0.0588,0.0,0.0,0.0,0.0,0.0,0.0,0.0,0.0,0.0,0.0,0.0,0.0,0.0,0.0,0.0,0.0,0.0,0.0,0.0,0.0,0.0,0.0,0.0,0.0,0.0,0.0,0.0,0.0,0.0,0.0,0.0,0.0,0.0,0.0,0.0,0.0,0.0,0.0,0.0,0.0,0.0,0.0,0.0,0.0,0.0,0.0,0.0,0.0,0.0,-0.1934,0.0,0.0,0.0,0.0,0.0,0.0,0.0,0.0,0.0,0.0,0.0,0.0,0.0,0.0,0.0,0.0,0.0,0.0,0.0,0.0,0.0,0.0,0.0,0.0,0.0,0.0,0.0,-0.4491,-0.4491,-0.4491,-0.4491,-0.4491,-0.4491,-0.4491,-0.4491,-0.4491,-0.4491,-0.4491,-0.4491,-0.4491,-0.4491,-0.4491,-0.4491,-0.4491,-0.4491,-0.4491,-0.4491,-0.4491,-0.4491,-0.4491,-0.4491,-0.4491,-0.4491,-0.4491,-0.4491,-0.4125,-0.3539,-0.2788,-0.2037,-0.1284,-0.0532,-0.0168,0.0,0.0,0.0,0.0,0.0,0.0,0.0,0.0,0.0,0.0,0.0,0.0,0.0,0.0,0.0,0.0,0.0,0.0,0.0,0.0,0.0,0.0,0.0,0.0,0.0,0.0,0.0,0.0,0.0,0.0,0.0,0.0,0.0,0.0,0.0,0.0,0.0,0.0,0.0,0.0,0.0,0.0,0.0,0.0,0.0,0.0,0.0,0.0,0.0,0.0,0.0,0.0,0.0,0.0,0.0,0.0,0.0,0.0,0.0,0.0,0.0,0.0,0.0,0.0,0.0,0.0,0.0,0.0,0.0,0.0,0.0,0.0,0.0,0.0,0.0,0.0,-0.4491,-0.4491,-0.4491,-0.4491,-0.4491,-0.4491,-0.4491,-0.4491,-0.4491,-0.4491,-0.4491,-0.4491,-0.4491,-0.4491,-0.4491,-0.4491,-0.4491,-0.4491,-0.4491,-0.4491,-0.4491,-0.4491,-0.4491,-0.4491,-0.4491,-0.4491,-0.4491,-0.4491,-0.4491,-0.3984,-0.3204,-0.2454,-0.173,-0.0978,-0.0252,0.0,0.0,0.0,0.0,0.0,0.0,0.0,0.0,0.0,0.0,0.0,0.0,0.0,0.0,0.0,0.0,0.0,0.0,0.0,0.0,0.0,0.0,0.0,0.0,0.0,0.0,0.0,0.0,0.0,0.0,0.0,0.0,0.0,0.0,0.0,0.0,0.0,0.0,0.0,0.0,0.0,0.0,0.0,0.0,0.0,0.0,0.0,0.0,0.0,0.0,-0.2532,-0.2549,0.0,0.0,0.0,0.0,-0.2919,-0.2856,0.0,0.0,0.0,0.0,0.0,0.0,0.0,0.0,0.0,0.0,0.0,0.0,0.0,0.0,0.0,0.0,0.0,-0.4491,-0.4491,-0.4491,-0.4491,-0.4491,-0.4491,-0.4491,-0.4491,-0.4491,-0.4491,-0.4491,-0.4491,-0.4491,-0.4491,-0.4491,-0.4491,-0.4491,-0.4491,-0.4491,-0.4491,-0.4491,-0.4491,-0.4491,-0.4491,-0.4491,-0.4491,-0.4491,-0.4491,-0.4491,-0.4491,-0.4405,-0.3873,-0.3065,-0.2343,-0.1591,-0.0866,-0.0224,0.0,0.0,0.0,0.0,0.0,0.0,0.0,0.0,0.0,0.0,0.0,0.0,0.0,0.0,0.0,0.0,0.0,0.0,0.0,0.0,0.0,0.0,0.0,0.0,0.0,0.0,0.0,0.0,0.0,0.0,0.0,0.0,0.0,0.0,0.0,0.0,0.0,0.0,0.0,0.0,0.0,0.0,0.0,0.0,0.0,0.0,0.0,0.0,0.0,0.0,-0.2716,-0.2826,-0.2917,0.0,0.0,0.0,0.0,-0.2664,0.0,0.0,0.0,0.0,0.0,0.0,0.0,0.0,0.0,0.0,0.0,0.0,0.0,0.0,0.0,0.0,0.0,-0.4491,-0.4491,-0.4491,-0.4491,-0.4491,-0.4491,-0.4491,-0.4491,-0.4491,-0.4491,-0.4491,-0.4491,-0.4491,-0.4491,-0.4491,-0.4491,-0.4491,-0.4491,-0.4491,-0.4491,-0.4491,-0.4491,-0.4491,-0.4491,-0.4491,-0.4491,-0.4491,-0.4491,-0.4491,-0.4436,-0.3846,-0.3093,-0.2313,-0.1563,-0.0838,-0.0196,-0.0056,0.0,0.0,0.0,0.0,0.0,0.0,0.0,0.0,0.0,0.0,0.0,0.0,0.0,0.0,0.0,0.0,0.0,0.0,0.0,0.0,0.0,0.0,0.0,0.0,0.0,0.0,0.0,0.0,0.0,0.0,0.0,0.0,0.0,0.0,0.0,0.0,0.0,0.0,0.0,0.0,0.0,0.0,0.0,0.0,0.0,0.0,0.0,0.0,0.0,0.0,-0.3057,-0.3104,-0.3178,-0.3071,0.0,0.0,0.0,0.0,0.0,0.0,0.0,0.0,0.0,0.0,0.0,0.0,0.0,0.0,0.0,0.0,0.0,0.0,0.0,0.0,0.0,-0.4355,-0.4385,-0.4484,-0.4491,-0.4491,-0.4491,-0.4491,-0.4491,-0.4491,-0.4491,-0.4491,-0.4491,-0.4491,-0.4491,-0.4491,-0.4491,-0.4491,-0.4491,-0.4491,-0.4491,-0.4491,-0.4491,-0.4491,-0.4491,-0.4491,-0.4491,-0.4491,-0.4491,-0.4491,-0.4405,-0.368,-0.2899,-0.2093,-0.1369,-0.0615,0.0,0.0,0.0,0.0,0.0,0.0,0.0,0.0,0.0,0.0,0.0,0.0,0.0,0.0,0.0,0.0,0.0,0.0,0.0,0.0,0.0,0.0,0.0,0.0,0.0,0.0,0.0,0.0,0.0,0.0,0.0,0.0,0.0,0.0,0.0,0.0,0.0,0.0,0.0,0.0,0.0,0.0,0.0,0.0,0.0,0.0,0.0,0.0364,0.056,0.056,0.0923,0.109,0.0,0.0,0.0,0.0,0.0,-0.3303,0.0,0.0,0.0,-0.3169,0.0,0.0,0.0,0.0,0.0,0.0,0.0,0.0,0.0,0.0,0.0,0.0,0.0,0.0,0.0,-0.4109,-0.4166,-0.4392,-0.4375,-0.4331,-0.4224,-0.4391,-0.4436,-0.4294,-0.4436,-0.4491,-0.4491,-0.4491,-0.4491,-0.4491,-0.4491,-0.4436,-0.4294,-0.4436,-0.4405,-0.4267,-0.4436,-0.4491,-0.4491,-0.4491,-0.4491,-0.4491,-0.4491,-0.4491,-0.4405,-0.3652,-0.2871,-0.2093,-0.1369,-0.0615,0.0,0.0,0.0,0.0,0.0,0.0,0.0,0.0,0.0,0.0,0.0,0.0,0.0,0.0,0.0,0.0,0.0,0.0,0.0,0.0,0.0,0.0,0.0,0.0,0.0,0.0,0.0,0.0,0.0,0.0,0.0,0.0,0.0,0.0,0.0,0.0,0.0,0.0,0.0,0.0,0.0,0.0,0.0,0.0,0.0,0.0056,0.0224,0.095,0.1229,0.1118,0.187,0.2202,0.0,0.0,0.0,0.0,-0.3705,0.0,0.0,0.0,-0.3399,-0.3032,0.0,0.0,0.0,0.0,0.0,0.0,0.0,0.0,0.0,0.0,0.0,0.0,0.0,0.0,0.0,0.0,-0.3771,-0.4024,-0.3944,-0.3686,-0.3271,-0.4063,-0.4211,-0.3541,-0.4153,-0.4491,-0.4491,-0.4491,-0.4491,-0.4491,-0.4491,-0.4153,-0.3541,-0.4211,-0.4098,-0.3483,-0.4184,-0.4491,-0.4491,-0.4491,-0.4491,-0.4491,-0.4491,-0.4491,-0.4405,-0.3594,-0.2843,-0.2093,-0.1369,-0.0615,0.0,0.0,0.0,0.0,0.0,0.0,0.0,0.0,0.0,0.0,0.0,0.0,0.0,0.0,0.0,0.0,0.0,0.0,0.0,0.0,0.0,0.0,0.0,0.0,0.0,0.0,0.0,0.0,0.0,0.0,0.0,0.0,0.0,0.0,0.0,0.0,0.0,0.0,0.0,0.0,0.0,0.0,0.0,0.0,0.0,0.0308,0.0978,0.1703,0.173,0.1118,0.187,0.2202,0.0,0.0,0.0,0.0,0.0,0.0,0.0,0.0,-0.3334,0.0,0.0,0.0,0.0,0.0,0.0,0.0,0.0,0.0,0.0,0.0,0.0,0.0,0.0,0.0,0.0,0.0,0.0,0.0,0.0,-0.2794,-0.2585,-0.2944,-0.303,-0.2705,-0.3007,-0.3178,-0.3178,-0.3178,-0.3178,-0.3178,-0.3178,-0.3231,-0.3345,-0.3649,-0.3873,-0.4015,-0.4349,-0.4491,-0.4491,-0.4491,-0.4491,-0.446,-0.3984,-0.4098,-0.4349,-0.3121,-0.2454,-0.2037,-0.0866,-0.0252,0.0,0.0,0.0,0.0,0.0,0.0,0.0,0.0,0.0,0.0,0.0,0.0,0.0,0.0,0.0,0.0,0.0,0.0,0.0,0.0,0.0,0.0,0.0,0.0,0.0,0.0,0.0,0.0,0.0,0.0,0.0,0.0,0.0,0.0,0.0,0.0,0.0,0.0,0.0,0.0,0.0,0.0,0.0196,0.0643,0.0643,0.1006,0.173,0.248,0.2676,0.2397,0.3178,0.3539,-0.4172,0.0,0.0,0.0,0.0,0.0,0.0,0.0,0.0,0.0,0.0,0.0,0.0,0.0,0.0,0.0,0.0,0.0,0.0,0.0,0.0,0.0,0.0,0.0,0.0,0.0,0.0,0.0,0.0,-0.1984,-0.1862,-0.2059,-0.2099,-0.1906,-0.2083,-0.2202,-0.2202,-0.2202,-0.2202,-0.2202,-0.2202,-0.2369,-0.2702,-0.2899,-0.3204,-0.3566,-0.379,-0.3873,-0.3873,-0.3873,-0.3873,-0.3818,-0.3231,-0.3345,-0.3735,-0.2619,-0.2063,-0.1758,-0.0671,-0.0168,0.0,0.0,0.0,0.0,0.0,0.0,0.0,0.0,0.0,0.0,0.0,0.0,0.0,0.0,0.0,0.0,0.0,0.0,0.0,0.0,0.0,0.0,0.0,0.0,0.0,0.0,0.0,0.0,0.0,0.0,0.0,0.0,0.0,0.0,0.0,0.0,0.0,0.0,0.0,0.0,0.0,0.0196,0.056,0.109,0.1312,0.1758,0.2508,0.3037,0.34,0.3649,0.4236,0.4491,0.0,0.0,0.0,-0.3754,0.0,0.0,0.0,0.0,-0.3396,0.0,0.0,0.0,0.0,0.0,0.0,-0.1343,0.0,0.0,0.0,0.0,0.0,0.0,0.0,0.0,0.0,0.0,0.0,0.0,0.0,0.0,-0.0956,-0.1742,-0.1869,-0.1166,-0.1837,-0.2202,-0.2202,-0.2202,-0.2202,-0.2202,-0.2202,-0.1842,-0.1202,-0.1898,-0.187,-0.1257,-0.1952,-0.2286,-0.2286,-0.2286,-0.2286,-0.2258,-0.2259,-0.2259,-0.2258,-0.2232,-0.1758,-0.1118,-0.109,-0.0588,0.0,0.0,0.0,0.0,0.0,0.0,0.0,0.0,0.0,0.0,0.0,0.0,0.0,0.0,0.0,0.0,0.0,0.0,0.0,0.0,0.0,0.0,0.0,0.0,0.0,0.0,0.0,0.0,0.0,0.0,0.0,0.0,0.0,0.0,0.0,0.0,0.0,0.0,0.0,0.0,0.0,0.0699,0.109,0.109,0.1814,0.2536,0.3259,0.3287,0.3707,0.446,0.4491,0.4491,0.0,0.0,-0.4395,-0.3968,0.0,0.0,0.0,0.0,0.0,0.0,0.0,0.0,0.0,0.0,-0.0976,-0.0521,-0.0433,0.0,0.0,0.0,0.0,0.0,0.0,0.0,0.0,0.0,0.0,0.0,-0.0796,0.0,0.0,-0.0574,-0.0618,-0.0385,-0.0611,-0.0738,-0.0755,-0.0755,-0.0755,-0.0755,-0.0755,-0.0866,-0.1118,-0.1369,-0.1591,-0.1842,-0.2091,-0.2202,-0.2202,-0.2202,-0.2202,-0.2147,-0.1675,-0.148,-0.148,-0.148,-0.1312,-0.1034,-0.0532,-0.0196,0.0,0.0,0.0,0.0,0.0,0.0,0.0,0.0,0.0,0.0,0.0,0.0,0.0,0.0,0.0,0.0,0.0,0.0,0.0,0.0,0.0,0.0,0.0,0.0,0.0,0.0,0.0,0.0,0.0,0.0,0.0,0.0,0.0,0.0,0.0,0.0,0.0,0.0,0.0,0.0,0.0,0.0699,0.134,0.1813,0.2565,0.3314,0.4098,0.4098,0.4236,0.4491,0.4491,0.4491,-0.4491,-0.4491,0.0,-0.4094,-0.3877,0.0,-0.3366,0.0,0.0,0.0,0.0,0.0,0.0,0.0,0.0,-0.0057,0.0,0.0,0.0,0.0,0.0,0.0,0.0,0.0,0.0,0.0,-0.0582,-0.0585,0.0,0.0,0.0,0.0,0.0,0.0,0.0,0.0,0.0,0.0,0.0,0.0,0.0,-0.0252,-0.0699,-0.0699,-0.0978,-0.1424,-0.1424,-0.1424,-0.1424,-0.1424,-0.1424,-0.1369,-0.0895,-0.0699,-0.0699,-0.0699,-0.0699,-0.0643,-0.0168,0.0,0.0,0.0,0.0,0.0,0.0,0.0,0.0,0.0,0.0,0.0,0.0,0.0,0.0,0.0,0.0,0.0,0.0,0.0,0.0,0.0,0.0,0.0,0.0,0.0,0.0,0.0,0.0,0.0,0.0,0.0,0.0,0.0,0.0,0.0,0.0,0.0,0.0,0.0,0.0,0.0,0.0,0.095,0.1703,0.2202,0.3204,0.3984,0.4491,0.4491,0.4491,0.4491,0.4491,0.4491]}]]